[[{"header":{"parameterUnit":"m.s-1","parameterCategory":1,"la1":30.6,"la2":29.2853,"lo1":-89.7004,"lo2":-87.6739,"dy":0.0162,"dx":0.0183,"nx":112,"ny":82,"refTime":"2023-10-06T06:00:00:Z","depth":0,"parameterNumber":2,"parameterNumberName":"U-component_of_WINDS"},"data":[0.0,0.0,0.0,0.0,0.0,0.0,0.0,0.0,0.0,0.0,0.0,0.0,0.0,0.0,0.0,0.0,0.0,0.0,0.0,0.0,0.0,0.0,0.0,0.0,0.0,0.0,0.0,0.0,0.0,0.0,0.0,0.0,0.0,0.0,0.0,0.0,0.0,0.0,0.0,0.0,0.0,0.0,0.0,0.0,0.0,0.0,0.0,0.0,0.0,0.0,0.0,0.0,0.0,0.0,0.0,0.0,0.0,0.0,0.0,0.0,0.0,0.0,0.0,0.0,0.0,0.0,0.0,0.0,0.0,0.0,0.0,0.0,0.0,0.0,0.0,0.0,0.0,0.0,0.0,0.0,0.0,0.0,0.0,0.0,0.0,0.0,0.0,0.0,0.0,0.0,-3.9556,-3.9556,-3.8678,-3.8101,-3.8101,-3.7412,-3.6457,-3.5176,0.0,0.0,0.0,0.0,0.0,0.0,0.0,0.0,0.0,0.0,0.0,0.0,0.0,0.0,0.0,0.0,0.0,0.0,0.0,0.0,0.0,0.0,0.0,0.0,0.0,0.0,0.0,0.0,0.0,0.0,0.0,0.0,0.0,0.0,0.0,0.0,0.0,0.0,0.0,0.0,0.0,0.0,0.0,0.0,0.0,0.0,0.0,0.0,0.0,0.0,0.0,0.0,0.0,0.0,0.0,0.0,0.0,0.0,0.0,0.0,0.0,0.0,0.0,0.0,0.0,0.0,0.0,0.0,0.0,0.0,0.0,0.0,0.0,0.0,0.0,0.0,0.0,0.0,0.0,0.0,0.0,0.0,0.0,0.0,0.0,0.0,0.0,0.0,0.0,0.0,0.0,0.0,0.0,0.0,0.0,0.0,0.0,0.0,0.0,0.0,0.0,0.0,0.0,0.0,-3.9754,-3.9754,-3.8759,-3.8101,-3.8101,-3.7412,-3.6457,-3.5176,0.0,0.0,0.0,0.0,0.0,0.0,0.0,0.0,0.0,0.0,0.0,0.0,0.0,0.0,0.0,0.0,0.0,0.0,0.0,0.0,0.0,0.0,0.0,0.0,0.0,0.0,0.0,0.0,0.0,0.0,0.0,0.0,0.0,0.0,0.0,0.0,0.0,0.0,0.0,0.0,0.0,0.0,0.0,0.0,0.0,0.0,0.0,0.0,0.0,0.0,0.0,0.0,0.0,0.0,0.0,0.0,0.0,0.0,0.0,0.0,0.0,0.0,0.0,0.0,0.0,0.0,0.0,0.0,0.0,0.0,0.0,0.0,0.0,0.0,0.0,0.0,0.0,0.0,0.0,0.0,0.0,0.0,0.0,0.0,0.0,0.0,0.0,0.0,0.0,0.0,0.0,0.0,0.0,0.0,0.0,0.0,0.0,0.0,0.0,0.0,0.0,0.0,0.0,-3.9656,-3.9683,-3.9786,-3.8769,-3.8101,-3.8101,-3.7412,-3.6457,-3.5176,-3.5107,0.0,0.0,0.0,0.0,0.0,0.0,0.0,0.0,0.0,0.0,0.0,0.0,0.0,0.0,0.0,0.0,0.0,0.0,0.0,0.0,0.0,0.0,0.0,0.0,0.0,0.0,0.0,0.0,0.0,0.0,0.0,0.0,0.0,0.0,0.0,0.0,0.0,0.0,0.0,0.0,0.0,0.0,0.0,0.0,0.0,0.0,0.0,0.0,0.0,0.0,0.0,0.0,0.0,0.0,0.0,0.0,0.0,0.0,0.0,0.0,0.0,0.0,0.0,0.0,0.0,0.0,0.0,0.0,0.0,0.0,0.0,0.0,0.0,0.0,0.0,0.0,0.0,0.0,0.0,0.0,0.0,0.0,0.0,0.0,0.0,0.0,0.0,0.0,0.0,0.0,0.0,0.0,0.0,0.0,0.0,0.0,0.0,0.0,0.0,0.0,0.0,0.0,-3.9644,-3.9609,-3.9728,-3.8744,-3.8101,-3.8101,-3.7412,-3.6457,-3.5176,-3.5107,0.0,0.0,0.0,0.0,0.0,0.0,0.0,0.0,0.0,0.0,0.0,0.0,0.0,0.0,0.0,0.0,0.0,0.0,0.0,0.0,0.0,0.0,0.0,0.0,0.0,0.0,0.0,0.0,0.0,0.0,0.0,0.0,0.0,0.0,0.0,0.0,0.0,0.0,0.0,0.0,0.0,0.0,0.0,0.0,0.0,0.0,0.0,0.0,0.0,0.0,0.0,0.0,0.0,0.0,0.0,0.0,0.0,0.0,0.0,0.0,0.0,0.0,0.0,0.0,0.0,0.0,0.0,0.0,0.0,0.0,0.0,0.0,0.0,0.0,0.0,0.0,0.0,0.0,0.0,0.0,0.0,0.0,0.0,0.0,0.0,0.0,0.0,0.0,0.0,0.0,0.0,0.0,0.0,0.0,0.0,0.0,0.0,0.0,0.0,0.0,0.0,0.0,-3.9671,-3.9717,-3.9544,-3.8666,-3.8101,-3.8101,-3.7412,-3.6457,-3.5176,-3.5107,0.0,0.0,0.0,0.0,0.0,0.0,0.0,0.0,0.0,0.0,0.0,0.0,0.0,0.0,0.0,0.0,0.0,0.0,0.0,0.0,0.0,0.0,0.0,0.0,0.0,0.0,0.0,0.0,0.0,0.0,0.0,0.0,0.0,0.0,0.0,0.0,0.0,0.0,0.0,0.0,0.0,0.0,0.0,0.0,0.0,0.0,0.0,0.0,0.0,0.0,0.0,0.0,0.0,0.0,0.0,0.0,0.0,0.0,0.0,0.0,0.0,0.0,0.0,0.0,0.0,0.0,0.0,0.0,0.0,0.0,0.0,0.0,0.0,0.0,0.0,0.0,0.0,0.0,0.0,0.0,0.0,0.0,0.0,0.0,0.0,0.0,0.0,0.0,0.0,0.0,0.0,0.0,0.0,0.0,0.0,0.0,0.0,0.0,0.0,0.0,0.0,0.0,-3.9414,-3.9326,0.0,-3.853,-3.8,-3.7738,-3.7262,-3.6457,-3.5176,0.0,0.0,0.0,0.0,0.0,0.0,0.0,0.0,0.0,0.0,0.0,0.0,0.0,0.0,0.0,0.0,0.0,0.0,0.0,0.0,0.0,0.0,0.0,0.0,0.0,0.0,0.0,0.0,0.0,0.0,0.0,0.0,0.0,0.0,0.0,0.0,0.0,0.0,0.0,0.0,0.0,0.0,0.0,0.0,0.0,0.0,0.0,0.0,0.0,0.0,0.0,0.0,0.0,0.0,0.0,0.0,0.0,0.0,0.0,0.0,0.0,0.0,0.0,0.0,0.0,0.0,0.0,0.0,0.0,0.0,0.0,0.0,0.0,0.0,0.0,0.0,0.0,0.0,0.0,0.0,0.0,0.0,0.0,0.0,0.0,0.0,0.0,0.0,0.0,0.0,0.0,0.0,0.0,0.0,0.0,0.0,0.0,0.0,0.0,0.0,0.0,0.0,-3.935,-3.9285,-3.9132,0.0,-3.8423,-3.793,-3.7542,-3.7186,-3.6478,-3.5307,0.0,0.0,0.0,0.0,0.0,0.0,0.0,0.0,0.0,0.0,0.0,0.0,0.0,0.0,0.0,0.0,0.0,0.0,0.0,0.0,0.0,0.0,0.0,0.0,0.0,0.0,0.0,0.0,0.0,0.0,0.0,0.0,0.0,0.0,0.0,0.0,0.0,0.0,0.0,0.0,0.0,0.0,0.0,0.0,0.0,0.0,0.0,0.0,0.0,0.0,0.0,0.0,0.0,0.0,0.0,0.0,0.0,0.0,0.0,0.0,0.0,0.0,0.0,0.0,0.0,0.0,0.0,0.0,0.0,0.0,0.0,0.0,0.0,0.0,0.0,0.0,0.0,0.0,0.0,0.0,0.0,0.0,0.0,0.0,0.0,0.0,0.0,0.0,0.0,0.0,0.0,0.0,0.0,0.0,0.0,0.0,0.0,0.0,0.0,0.0,0.0,0.0,-3.9101,-3.9337,-3.9261,-3.8655,-3.8298,-3.793,-3.7523,-3.7186,-3.6557,0.0,0.0,0.0,0.0,0.0,0.0,0.0,0.0,0.0,0.0,0.0,0.0,0.0,0.0,0.0,0.0,0.0,0.0,0.0,0.0,0.0,0.0,0.0,0.0,0.0,0.0,0.0,0.0,0.0,0.0,0.0,0.0,0.0,0.0,0.0,0.0,0.0,0.0,0.0,0.0,0.0,0.0,0.0,0.0,0.0,0.0,0.0,0.0,0.0,0.0,0.0,0.0,0.0,0.0,0.0,0.0,0.0,0.0,0.0,0.0,0.0,0.0,0.0,0.0,0.0,0.0,0.0,0.0,0.0,0.0,0.0,0.0,0.0,0.0,0.0,0.0,0.0,0.0,0.0,0.0,0.0,0.0,0.0,0.0,0.0,0.0,0.0,0.0,0.0,0.0,0.0,0.0,0.0,0.0,0.0,0.0,0.0,0.0,0.0,0.0,0.0,0.0,0.0,-3.8748,-3.8818,-3.8715,-3.8298,-3.7895,-3.7541,-3.7185,-3.7068,-3.6557,-3.557,0.0,0.0,0.0,0.0,0.0,0.0,0.0,0.0,0.0,0.0,0.0,0.0,0.0,0.0,0.0,0.0,0.0,0.0,0.0,0.0,0.0,0.0,0.0,0.0,0.0,0.0,0.0,0.0,0.0,0.0,0.0,0.0,0.0,0.0,0.0,0.0,0.0,0.0,0.0,0.0,0.0,0.0,0.0,0.0,0.0,0.0,0.0,0.0,0.0,0.0,0.0,0.0,0.0,0.0,0.0,0.0,0.0,0.0,0.0,0.0,0.0,0.0,0.0,0.0,0.0,0.0,0.0,0.0,0.0,0.0,0.0,0.0,0.0,0.0,0.0,0.0,0.0,0.0,0.0,0.0,0.0,0.0,0.0,0.0,0.0,0.0,0.0,0.0,0.0,0.0,0.0,0.0,0.0,0.0,0.0,0.0,0.0,0.0,0.0,0.0,0.0,0.0,-3.8579,-3.8594,-3.8455,-3.8135,-3.7738,-3.7376,-3.7029,-3.6888,-3.6471,-3.5698,0.0,0.0,0.0,0.0,0.0,0.0,0.0,0.0,0.0,0.0,0.0,0.0,0.0,0.0,0.0,0.0,0.0,0.0,0.0,0.0,0.0,0.0,0.0,0.0,0.0,0.0,0.0,0.0,0.0,0.0,0.0,0.0,0.0,0.0,0.0,0.0,0.0,0.0,0.0,0.0,0.0,0.0,0.0,0.0,0.0,0.0,0.0,0.0,0.0,0.0,0.0,0.0,0.0,0.0,0.0,0.0,0.0,0.0,0.0,0.0,0.0,0.0,0.0,0.0,0.0,0.0,0.0,0.0,0.0,0.0,0.0,0.0,0.0,0.0,0.0,0.0,0.0,0.0,0.0,0.0,0.0,0.0,0.0,0.0,0.0,0.0,0.0,0.0,0.0,0.0,0.0,0.0,0.0,0.0,0.0,0.0,0.0,0.0,0.0,0.0,0.0,0.0,-3.8455,-3.8502,-3.8376,-3.8085,-3.7685,-3.732,-3.7029,-3.669,-3.6322,-3.5929,0.0,0.0,0.0,0.0,0.0,0.0,0.0,0.0,0.0,0.0,0.0,0.0,0.0,0.0,0.0,0.0,0.0,0.0,0.0,0.0,0.0,0.0,0.0,0.0,0.0,0.0,0.0,0.0,0.0,0.0,0.0,0.0,0.0,0.0,0.0,0.0,0.0,0.0,0.0,0.0,0.0,0.0,0.0,0.0,0.0,0.0,0.0,0.0,0.0,0.0,0.0,0.0,0.0,0.0,0.0,0.0,0.0,0.0,0.0,0.0,-4.0626,0.0,0.0,0.0,0.0,0.0,0.0,0.0,0.0,0.0,0.0,0.0,0.0,0.0,0.0,0.0,0.0,0.0,0.0,0.0,0.0,0.0,0.0,0.0,0.0,0.0,0.0,0.0,0.0,0.0,0.0,0.0,0.0,0.0,0.0,0.0,0.0,0.0,0.0,0.0,0.0,0.0,-3.772,-3.7738,-3.7703,-3.7632,-3.7319,-3.7087,-3.7007,-3.669,-3.6322,-3.5929,-3.4788,0.0,0.0,0.0,0.0,0.0,0.0,0.0,0.0,0.0,0.0,0.0,0.0,0.0,0.0,0.0,0.0,0.0,0.0,0.0,0.0,0.0,0.0,0.0,0.0,0.0,0.0,0.0,0.0,0.0,0.0,0.0,0.0,0.0,0.0,0.0,0.0,0.0,0.0,0.0,0.0,0.0,0.0,0.0,0.0,0.0,0.0,0.0,0.0,0.0,0.0,0.0,0.0,0.0,0.0,0.0,0.0,0.0,0.0,0.0,0.0,-4.0053,0.0,0.0,0.0,0.0,0.0,0.0,0.0,0.0,0.0,0.0,0.0,0.0,0.0,0.0,0.0,0.0,0.0,0.0,0.0,0.0,0.0,0.0,0.0,0.0,0.0,0.0,0.0,0.0,0.0,0.0,0.0,0.0,0.0,0.0,0.0,0.0,0.0,0.0,0.0,0.0,-3.7505,-3.7578,-3.7614,-3.7505,-3.7186,-3.7007,-3.7007,-3.653,-3.6118,-3.5907,-3.4837,0.0,0.0,0.0,0.0,0.0,0.0,0.0,0.0,0.0,0.0,0.0,0.0,0.0,0.0,0.0,0.0,0.0,0.0,0.0,0.0,0.0,0.0,0.0,0.0,0.0,0.0,0.0,0.0,0.0,0.0,0.0,0.0,0.0,0.0,0.0,0.0,0.0,0.0,0.0,0.0,0.0,0.0,0.0,0.0,0.0,0.0,0.0,0.0,0.0,0.0,0.0,0.0,0.0,-4.0491,-4.0484,-4.0319,-4.0319,-4.0434,-4.0623,-4.0317,-4.0274,-4.0334,-3.9489,0.0,0.0,0.0,0.0,0.0,0.0,0.0,0.0,0.0,0.0,0.0,0.0,0.0,0.0,0.0,0.0,0.0,0.0,0.0,0.0,0.0,0.0,0.0,0.0,-3.8658,-3.8612,0.0,0.0,0.0,0.0,0.0,0.0,0.0,0.0,0.0,0.0,0.0,0.0,-3.7541,-3.765,-3.7703,-3.7487,-3.7223,-3.7046,-3.6989,-3.6388,-3.5972,-3.589,-3.4911,-3.4259,0.0,0.0,0.0,0.0,0.0,0.0,0.0,0.0,0.0,0.0,0.0,0.0,0.0,0.0,0.0,0.0,0.0,0.0,0.0,0.0,0.0,0.0,0.0,0.0,0.0,0.0,0.0,0.0,0.0,0.0,0.0,0.0,-4.1005,-4.1005,0.0,0.0,0.0,0.0,0.0,0.0,0.0,0.0,0.0,0.0,0.0,0.0,0.0,-4.1936,-4.1034,-4.1038,-4.0974,-4.0819,-4.0829,-4.0829,-4.0819,-4.0819,-4.0807,-4.0757,-4.0595,0.0,-4.0369,-3.9948,0.0,0.0,0.0,0.0,0.0,0.0,0.0,0.0,0.0,0.0,0.0,0.0,0.0,0.0,0.0,0.0,0.0,0.0,0.0,0.0,0.0,0.0,-3.8892,-3.8862,-3.8862,-3.8848,0.0,-3.8234,-3.7739,-3.7843,-3.7859,0.0,0.0,0.0,0.0,0.0,0.0,0.0,-3.7577,-3.7613,-3.754,-3.7353,-3.7297,-3.7182,-3.7009,-3.665,-3.628,-3.5929,-3.5481,-3.489,-3.4126,-3.4546,0.0,0.0,0.0,0.0,0.0,0.0,0.0,0.0,0.0,0.0,0.0,0.0,0.0,0.0,0.0,0.0,0.0,0.0,0.0,0.0,0.0,0.0,0.0,0.0,0.0,0.0,0.0,0.0,0.0,-4.1053,-4.1034,-4.1007,-4.0994,-4.1659,0.0,0.0,0.0,0.0,0.0,0.0,0.0,0.0,0.0,-4.2792,-4.1927,-4.1286,-4.0907,-4.0893,-4.0893,-4.0907,-4.0907,-4.0907,-4.0907,-4.0907,-4.0863,-4.0794,-4.0655,-4.0518,-4.0375,-3.9965,-3.9626,-3.9371,0.0,0.0,0.0,0.0,-3.8462,-3.8338,-3.8433,-3.8387,0.0,-3.8336,0.0,0.0,0.0,0.0,0.0,0.0,0.0,0.0,0.0,0.0,-3.871,-3.8862,-3.8788,-3.8664,-3.8664,-3.8287,-3.795,0.0,-3.8065,-3.7929,-3.7504,0.0,0.0,0.0,0.0,-3.7631,-3.7595,-3.7703,-3.7685,-3.7503,-3.7223,-3.7032,-3.6954,-3.6426,-3.6041,-3.5849,-3.5532,-3.5182,-3.4787,-3.4994,-3.5018,0.0,0.0,0.0,0.0,0.0,0.0,0.0,0.0,0.0,0.0,0.0,0.0,0.0,0.0,0.0,0.0,0.0,0.0,0.0,0.0,0.0,0.0,0.0,0.0,0.0,0.0,0.0,0.0,-4.1107,-4.1089,-4.1035,-4.1,-4.1586,0.0,0.0,0.0,0.0,0.0,0.0,-4.4476,-4.365,-4.2869,-4.2214,-4.1354,-4.0907,-4.0907,-4.0907,-4.0907,-4.0907,-4.0907,-4.0907,-4.0907,-4.0907,-4.0833,-4.0739,-4.0648,-4.0508,-4.0349,-3.9992,-3.9783,-3.9675,-3.9346,-3.9049,-3.8803,-3.8744,-3.86,-3.8415,-3.8523,-3.8481,-3.8338,-3.8433,0.0,-3.8209,-3.8209,0.0,0.0,0.0,0.0,-3.8224,-3.8385,-3.8415,-3.8462,-3.8667,-3.8478,-3.8283,-3.8399,-3.8221,-3.807,0.0,-3.8283,-3.8117,-3.7613,0.0,0.0,0.0,0.0,-3.7864,-3.7775,-3.7881,-3.7899,-3.7703,-3.7262,-3.6958,-3.69,-3.6305,-3.5905,-3.5795,-3.5566,-3.5383,-3.5291,-3.5291,-3.5291,-3.5291,0.0,0.0,0.0,0.0,0.0,0.0,0.0,0.0,0.0,0.0,0.0,0.0,0.0,0.0,0.0,0.0,0.0,0.0,0.0,0.0,0.0,0.0,0.0,0.0,0.0,0.0,0.0,0.0,0.0,-4.11,-4.1038,0.0,0.0,0.0,0.0,-4.3565,-4.3582,-4.3569,-4.3578,-4.2738,-4.2252,-4.2194,-4.1354,-4.0907,-4.0907,-4.0907,-4.0907,-4.0907,-4.0907,-4.0907,-4.0907,-4.0907,-4.0782,-4.0621,-4.0595,-4.0492,-4.0291,-4.0272,-4.0039,-3.9675,-3.9396,-3.909,-3.8774,-3.86,-3.8478,-3.8415,-3.8478,-3.8462,-3.8401,-3.8322,-3.8257,-3.8209,-3.8209,-3.8209,0.0,0.0,-3.8209,-3.8209,-3.8225,-3.8225,-3.8225,-3.8242,-3.788,-3.7667,-3.8105,-3.7862,-3.7721,0.0,-3.8476,-3.8412,-3.8183,0.0,-3.8101,-3.7899,-3.7881,-3.7969,-3.8158,-3.8175,-3.8124,-3.7899,-3.7449,-3.7094,-3.6919,-3.6533,-3.6131,-3.5817,-3.5773,-3.5616,-3.5314,-3.5291,-3.5291,-3.5291,-3.5291,0.0,0.0,0.0,0.0,0.0,0.0,0.0,0.0,0.0,0.0,0.0,0.0,0.0,0.0,0.0,0.0,0.0,0.0,0.0,0.0,0.0,0.0,0.0,0.0,0.0,0.0,0.0,0.0,-4.1033,-4.1001,0.0,-4.2222,-4.1833,-4.2083,-4.345,-4.3034,-4.2738,-4.2735,-4.2386,-4.1942,-4.1374,-4.1063,-4.0907,-4.0907,-4.0907,-4.0907,-4.0907,-4.0907,-4.0907,-4.0907,-4.0853,-4.0744,-4.0607,-4.0508,-4.0411,-4.0301,-4.0301,-4.0215,-4.0078,-3.9988,-3.9663,-3.9234,-3.9168,-3.8913,-3.8578,-3.851,-3.8494,-3.8462,-3.8385,-3.8336,-3.8322,-3.829,-3.8257,-3.8257,-3.8225,-3.8209,-3.8209,-3.8209,-3.8209,-3.8123,-3.7827,-3.7632,-3.7469,-3.7376,-3.7227,-3.7171,-3.7433,-3.7913,-3.8239,-3.8036,-3.7862,-3.7685,-3.7468,-3.7338,-3.7282,-3.7357,-3.7357,-3.7338,-3.7264,-3.6878,-3.6577,-3.6533,-3.611,-3.58,-3.5667,-3.5667,-3.5639,-3.5503,-3.5487,-3.5487,-3.5487,-3.5487,-3.5435,0.0,0.0,0.0,0.0,0.0,0.0,0.0,0.0,0.0,0.0,0.0,0.0,0.0,0.0,0.0,0.0,0.0,0.0,0.0,0.0,0.0,0.0,0.0,0.0,0.0,0.0,-4.1074,-4.1034,-4.103,-4.1254,-4.1836,-4.1402,-4.1559,-4.2632,-4.219,-4.1857,-4.1869,-4.1805,-4.149,-4.0927,-4.0907,-4.0907,-4.0907,-4.0907,-4.0907,-4.0907,-4.0907,-4.0893,-4.0863,-4.0823,-4.0707,-4.053,-4.0446,-4.036,-4.0301,-4.0301,-4.0301,-4.0272,-4.0098,-3.9815,-3.9489,-3.9298,-3.9007,-3.8692,-3.8609,-3.8525,-3.8476,-3.8446,-3.8415,-3.8382,-3.8354,-3.8223,-3.8088,-3.8037,-3.7898,-3.7757,-3.7757,-3.7757,-3.7667,-3.7377,-3.719,-3.7075,-3.6919,-3.6781,-3.6739,-3.686,-3.7375,-3.7703,-3.7595,-3.7431,-3.7265,-3.7113,-3.6978,-3.69,-3.69,-3.69,-3.69,-3.69,-3.6536,-3.6301,-3.6301,-3.5871,-3.56,-3.56,-3.56,-3.56,-3.56,-3.5424,-3.5424,-3.56,-3.56,-3.5509,-3.5377,0.0,0.0,0.0,0.0,0.0,0.0,0.0,0.0,0.0,0.0,0.0,0.0,0.0,0.0,0.0,0.0,0.0,0.0,0.0,0.0,0.0,0.0,0.0,-4.1083,-4.1103,-4.11,-4.1091,-4.1103,-4.11,-4.1091,-4.1093,-4.1074,-4.1008,-4.0994,-4.1008,-4.1,-4.0933,-4.0907,-4.0907,-4.0907,-4.0907,-4.0907,-4.0907,-4.0907,-4.0903,-4.0903,-4.0863,-4.0794,-4.0788,-4.0641,-4.0406,-4.0397,-4.036,-4.0301,-4.0301,-4.0301,-4.0244,-3.9717,-3.9508,-3.9439,-3.8925,-3.8704,-3.8707,-3.8707,-3.8609,-3.851,-3.851,-3.8462,-3.8382,-3.8399,-3.8086,-3.7703,-3.7703,-3.732,-3.69,-3.69,-3.69,-3.69,-3.688,-3.6577,-3.6388,-3.6781,-3.6557,-3.6388,-3.6781,-3.686,-3.686,-3.69,-3.688,-3.688,-3.688,-3.686,0.0,-3.686,-3.686,-3.686,-3.686,-3.6512,-3.628,-3.628,-3.5849,-3.56,-3.56,-3.56,-3.56,-3.56,-3.5091,-3.5068,-3.56,-3.56,-3.5571,-3.5492,0.0,0.0,0.0,0.0,0.0,0.0,0.0,0.0,0.0,0.0,0.0,0.0,0.0,0.0,0.0,0.0,0.0,0.0,0.0,0.0,0.0,0.0,-4.1003,-4.1022,-4.1065,-4.1097,-4.1103,-4.11,-4.1103,-4.11,-4.11,-4.1097,-4.1074,-4.1072,-4.1055,-4.1003,-4.0972,-4.0975,-4.0975,-4.0926,-4.0907,-4.0907,-4.0907,-4.0878,-4.0834,-4.0834,-4.0769,-4.0655,-4.0545,-4.0469,-4.0397,-4.0353,-4.0319,-4.0301,-4.0301,-4.0301,-4.0291,-4.0147,-3.9848,-3.9471,-3.9337,-3.9031,-3.8707,-3.8707,-3.8692,-3.8658,-3.8658,-3.8433,-3.8218,-3.8396,-3.7999,-3.7523,-3.7721,-3.7431,-3.7052,-3.7052,-3.6976,-3.6821,-3.6516,-3.6367,-3.6237,-3.6006,-3.5854,-3.5827,-3.5941,-3.5963,-3.6161,-3.6781,-3.6658,-3.6471,-3.6471,-3.6178,0.0,-3.5963,-3.5963,-3.5963,-3.5963,-3.5871,-3.5783,-3.5783,-3.5672,-3.56,-3.56,-3.56,-3.56,-3.56,-3.5447,-3.5447,-3.56,-3.5549,-3.5537,0.0,0.0,0.0,0.0,0.0,0.0,0.0,0.0,0.0,0.0,0.0,0.0,0.0,0.0,0.0,0.0,0.0,0.0,0.0,0.0,0.0,0.0,-4.0928,-4.0921,-4.0921,-4.1027,-4.1107,-4.1107,-4.1107,-4.1094,-4.1103,-4.1106,-4.1093,-4.1099,-4.1074,-4.1049,-4.1003,-4.1003,-4.0999,-4.0999,-4.096,-4.0939,-4.0939,-4.0917,-4.0883,-4.0837,-4.0837,-4.075,-4.0607,-4.0523,-4.0449,0.0,-4.0319,-4.0301,-4.0301,-4.0301,-4.0234,0.0,0.0,0.0,0.0,0.0,-3.8964,-3.8707,-3.8707,-3.8596,-3.8451,-3.8451,-3.8186,-3.7879,-3.8032,-3.7632,-3.7133,-3.7303,-3.6997,-3.6635,-3.6635,-3.6553,-3.6388,-3.6152,-3.6045,-3.5937,-3.5667,-3.56,-3.5515,-3.5293,-3.527,0.0,-3.5642,-3.5847,-3.592,-3.5705,-3.5633,-3.5515,-3.5293,-3.5447,-3.56,-3.56,-3.56,-3.56,-3.56,-3.56,0.0,0.0,0.0,-3.5492,-3.527,-3.547,0.0,0.0,0.0,-3.5543,-3.5543,0.0,0.0,0.0,-3.6507,-3.6825,0.0,0.0,0.0,0.0,0.0,0.0,0.0,0.0,0.0,0.0,0.0,0.0,0.0,0.0,0.0,0.0,-4.0807,-4.0807,-4.0807,-4.0967,-4.1078,-4.1085,-4.1107,-4.1107,-4.1107,-4.1107,-4.1091,-4.1097,-4.1039,-4.1016,-4.1016,0.0,0.0,0.0,0.0,-4.1,-4.1,-4.0943,-4.0902,-4.0893,-4.0878,-4.0771,-4.0588,-4.0566,-4.0476,-4.0301,-4.0301,-4.0272,-4.0253,-4.0253,-4.0098,-3.984,-3.9818,-3.9651,-3.9383,-3.8896,-3.8707,-3.8707,-3.8707,0.0,0.0,-3.8186,-3.7896,-3.7578,-3.7614,-3.7209,-3.6726,-3.6786,-3.6416,-3.6019,-3.6019,-3.591,-3.5817,-3.5817,-3.5734,-3.5644,-3.5644,-3.5644,-3.547,-3.4998,-3.4904,-3.4721,-3.4185,-3.4833,-3.5247,-3.4769,-3.5115,-3.527,-3.484,-3.5155,-3.5447,-3.5492,0.0,0.0,-3.5509,-3.5577,-3.56,-3.56,-3.56,-3.5402,-3.4904,-3.5356,-3.5379,-3.4904,-3.5379,-3.5622,-3.56,-3.565,-3.6097,-3.69,-3.6649,-3.6849,0.0,0.0,0.0,0.0,0.0,0.0,0.0,0.0,0.0,0.0,0.0,0.0,0.0,0.0,0.0,-4.0807,-4.0807,-4.0807,-4.0807,-4.0874,-4.0967,-4.1003,-4.1071,-4.1107,-4.1107,-4.1107,-4.1106,-4.11,-4.1098,-4.1073,-4.1073,-4.1081,-4.1086,-4.1086,-4.1039,-4.1,-4.1,-4.0993,-4.0949,-4.09,0.0,0.0,-4.0518,-4.0406,-4.0344,-4.0301,-4.0301,-4.0176,-3.9986,-3.9986,-3.9807,-3.9563,-3.935,-3.9219,-3.9142,-3.8825,-3.8707,-3.8707,-3.8707,-3.8643,-3.8596,-3.8596,-3.8302,-3.8051,-3.8368,-3.7721,0.0,-3.7247,-3.6779,-3.6144,-3.6144,-3.6058,-3.5954,-3.5954,-3.5932,-3.591,-3.591,-3.5839,-3.5728,-3.5622,-3.5515,-3.527,-3.4745,-3.4456,-3.4284,-3.4185,-3.4235,-3.4431,-3.4745,-3.4504,-3.448,-3.4904,-3.4951,-3.4951,-3.4951,-3.5339,-3.56,-3.56,-3.56,-3.5538,-3.5447,-3.5538,-3.5538,-3.5447,-3.5644,-3.5706,-3.56,-3.6032,-3.6457,-3.69,-3.686,-3.7246,0.0,0.0,0.0,0.0,0.0,0.0,0.0,0.0,0.0,0.0,0.0,-4.0684,-4.0775,0.0,-4.08,-4.08,-4.08,-4.08,-4.08,-4.0832,-4.0869,-4.0939,-4.1019,-4.1045,-4.1045,-4.1078,-4.11,-4.1103,-4.1099,-4.1102,-4.1093,-4.1106,-4.1108,-4.1094,-4.1069,-4.1053,-4.1053,-4.1019,-4.096,-4.0906,-4.0835,-4.0718,-4.0542,-4.0484,-4.0413,-4.0355,-4.0355,-4.0253,-4.0099,-3.9969,-3.9777,-3.9568,-3.9311,-3.917,-3.9073,-3.881,-3.8707,-3.8707,-3.8707,-3.858,-3.8401,-3.8401,-3.8118,-3.7809,-3.7809,-3.7395,-3.69,-3.69,-3.6594,-3.6255,-3.6255,-3.6187,-3.6101,-3.6101,-3.6058,-3.5997,-3.5997,-3.5949,-3.5822,-3.5543,-3.5453,-3.523,-3.4704,-3.4103,-3.3691,-3.3614,-3.3818,-3.3995,-3.402,-3.4219,-3.4504,-3.4769,-3.4793,-3.4833,-3.4937,-3.5008,-3.5148,-3.5379,-3.5402,-3.5515,-3.58,-3.58,-3.58,-3.58,-3.5866,-3.5866,-3.58,-3.6088,-3.6388,-3.6759,-3.6958,-3.7468,0.0,0.0,0.0,0.0,0.0,0.0,0.0,-4.0175,-4.0354,-4.0234,-4.0274,-4.0351,-4.0557,-4.0633,-4.0661,-4.0694,-4.0713,-4.0746,-4.0746,-4.0788,-4.0826,-4.0873,-4.093,-4.0984,-4.0984,-4.103,-4.1071,-4.1078,-4.1086,-4.1083,-4.1106,-4.1094,-4.1107,-4.1109,-4.1092,-4.11,-4.11,-4.1042,-4.0984,-4.0945,-4.0924,-4.0828,-4.0633,-4.0605,-4.0535,-4.0407,-4.0334,-4.0298,-4.0224,-3.992,-3.9724,-3.9599,-3.9324,-3.917,-3.9031,-3.8825,-3.8735,-3.8753,-3.8719,-3.8496,-3.8234,-3.8219,-3.8,-3.7667,-3.7358,-3.7151,-3.6958,-3.6719,-3.6492,-3.6322,-3.6388,-3.6318,-3.6208,-3.6208,-3.6144,-3.6062,-3.6062,-3.6041,-3.5871,-3.5328,-3.5214,-3.5035,-3.4496,-3.3937,-3.3521,-3.3261,-3.3511,-3.3604,-3.3277,-3.3944,-3.4472,-3.4569,-3.4593,-3.473,-3.5071,-3.4835,-3.4842,-3.5316,-3.5247,-3.5385,-3.5827,-3.5827,-3.5783,-3.5717,-3.5932,-3.5975,-3.5827,-3.5975,-3.6216,-3.6594,-3.6999,-3.7541,-3.9895,-4.0019,-3.9974,-3.9851,-3.99,-3.9938,0.0,-3.9837,-3.9967,-3.9957,-3.9947,-4.0005,-4.0137,-4.0164,-4.0219,-4.0342,-4.0466,-4.0526,-4.0526,-4.0681,-4.0809,-4.0815,-4.0877,-4.0917,-4.0917,-4.0921,-4.0939,-4.1019,-4.1016,-4.1048,-4.1106,-4.1094,-4.1107,-4.1109,-4.1106,-4.1106,-4.1106,-4.1085,-4.1081,-4.1076,-4.1028,-4.091,-4.0765,-4.0649,-4.0523,-4.0398,-4.0158,-4.0042,-4.0002,-3.9549,-3.9363,-3.9324,-3.9045,-3.8935,-3.8921,-3.8896,-3.8881,-3.8881,-3.8807,-3.8762,-3.8698,-3.8658,-3.8611,-3.8564,-3.8515,-3.8,-3.7505,-3.7809,-3.7132,-3.6367,-3.6739,-3.6557,-3.628,-3.628,-3.628,-3.6259,-3.6259,-3.6212,-3.6014,-3.5476,-3.527,-3.5045,-3.4488,-3.4342,-3.4095,-3.3469,-3.3018,-3.2915,-3.3319,-3.3224,-3.3293,-3.3771,-3.3822,-3.4193,-3.5108,-3.5155,-3.5339,-3.5888,-3.5453,-3.5224,-3.5293,-3.5293,-3.5085,-3.4691,-3.565,-3.5888,-3.5293,-3.5888,-3.6318,-3.6594,-3.6999,-3.7414,-3.892,-3.9075,-3.905,-3.9008,-3.9239,-3.945,-3.9229,-3.9432,-3.9671,-3.9675,-3.9668,-3.9738,-3.9935,-3.9976,-4.0034,0.0,-4.0236,-4.0287,-4.0375,-4.0511,-4.0621,-4.0621,-4.0745,-4.0846,-4.0839,-4.0869,-4.0917,-4.0935,-4.0945,-4.0964,-4.1035,-4.1042,-4.1054,-4.1105,-4.1095,-4.1109,-4.1109,-4.1109,-4.1078,-4.103,-4.1006,-4.0906,-4.0734,-4.0681,-4.0588,-4.0452,-4.0332,-4.0286,-4.0276,-4.0081,-3.9929,-3.9802,-3.9531,-3.9351,-3.9219,-3.8993,-3.891,-3.891,-3.8881,-3.8866,-3.8803,-3.851,-3.8412,-3.8298,-3.7808,-3.7432,-3.7151,-3.7075,-3.6698,-3.6343,-3.6512,-3.643,-3.6301,-3.6301,-3.6301,-3.6301,-3.6301,-3.6276,-3.6191,-3.598,-3.5655,-3.5368,-3.5144,-3.4512,-3.396,-3.3665,-3.364,-3.3726,-3.3953,-3.4119,-3.421,-3.4102,-3.4193,-3.4168,-3.3993,-3.4043,-3.4317,-3.4849,-3.4682,-3.4826,-3.5413,-3.5436,-3.5459,-3.5566,-3.6023,-3.611,-3.5854,-3.611,-3.6318,-3.6447,-3.7094,-3.7451,-3.7927,-3.8064,-3.808,-3.8148,-3.8524,-3.8882,-3.88,-3.9064,-3.932,-3.937,-3.9389,-3.9451,-3.9694,-3.9735,-3.9781,-3.9915,-3.9965,-4.0024,-4.0119,-4.029,-4.0388,-4.0388,-4.0545,-4.0648,-4.0662,-4.0796,-4.0873,-4.0864,-4.0869,-4.09,-4.0961,-4.0976,-4.0995,-4.1074,-4.1069,-4.1081,-4.1093,-4.109,-4.1076,-4.1037,-4.1,-4.0902,-4.0729,-4.0675,-4.0581,-4.0496,-4.0495,-4.0503,-4.0508,-4.0447,-4.0334,-4.0167,-3.9893,-3.9683,-3.9458,-3.9165,-3.9017,-3.895,-3.8921,-3.8939,-3.8877,-3.8504,-3.8392,-3.8279,-3.7649,-3.7322,-3.7095,-3.6939,-3.6638,-3.6444,-3.6512,-3.6489,-3.6423,-3.6423,-3.6423,-3.6402,-3.6343,-3.636,-3.6301,-3.6135,-3.5815,-3.5594,-3.5594,-3.4871,-3.426,-3.4185,-3.4438,-3.448,-3.4087,-3.4536,-3.4745,-3.4374,-3.4504,-3.4407,-3.3841,-3.3689,-3.3835,-3.4385,-3.4249,-3.4464,-3.5043,-3.5425,-3.5571,-3.547,-3.6028,-3.622,-3.6041,-3.6329,-3.6533,-3.6638,-3.734,-3.7667,-3.7126,-3.7236,-3.7272,-3.7488,-3.7823,-3.8251,-3.8698,-3.8822,-3.8877,-3.9073,-3.9115,-3.9151,-3.9298,-3.9324,-3.9357,-3.9495,-3.9625,-3.972,-3.972,-3.9955,-4.0119,-4.0119,-4.0219,-4.0317,0.0,-4.06,-4.0808,-4.0807,-4.0793,-4.083,-4.0905,-4.0893,-4.0928,-4.1009,-4.0994,-4.1035,-4.1098,-4.1093,-4.1108,-4.1108,-4.1022,-4.0933,-4.0796,-4.0596,-4.0496,-4.0496,-4.0496,-4.0496,-4.0481,-4.0286,-4.0205,-4.0167,-3.9893,-3.9683,-3.9502,-3.9489,-3.9324,-3.9087,-3.9021,-3.9011,-3.8979,-3.8906,-3.8877,-3.8862,-3.8848,-3.8346,-3.7861,-3.8234,-3.7541,-3.6748,-3.7091,-3.6933,-3.6681,-3.6681,-3.6681,-3.6643,-3.6523,-3.6502,-3.6318,-3.5727,-3.5616,-3.5594,-3.5594,-3.5571,-3.5467,-3.5211,-3.5173,-3.4677,-3.3329,-3.372,-3.4126,-3.4126,-3.4537,-3.4981,-3.5481,-3.4812,-3.4601,-3.5132,-3.4683,-3.4208,-3.3783,-3.4936,-3.4911,-3.3424,-3.5311,-3.6002,-3.543,-3.6408,-3.7094,-3.7469,-3.7896,-3.8085,-3.4438,-3.51,-3.5775,-3.5822,-3.6549,-3.7306,-3.7596,-3.803,-3.838,-3.8585,-3.877,-3.8921,-3.8946,-3.896,-3.9017,-3.9151,-3.9073,-3.899,-3.9099,-3.9407,-3.9649,-3.9649,-3.9946,0.0,0.0,0.0,0.0,-4.0596,-4.0603,-4.0697,-4.0898,-4.0906,-4.0944,-4.1051,-4.1074,-4.1071,-4.1104,-4.1099,-4.1095,-4.1095,-4.1035,-4.0986,-4.0932,-4.0729,-4.0636,-4.063,-4.053,-4.0496,-4.0489,-4.0433,-4.0321,-4.0167,-3.9893,-3.9683,-3.9489,-3.9298,-3.9183,-3.9101,-3.9073,-3.8913,-3.8673,-3.8344,-3.8082,-3.7861,-3.7523,-3.7262,-3.7089,-3.7223,-3.7007,-3.6742,-3.6849,-3.6768,-3.6702,-3.6702,-3.6702,-3.6623,-3.6301,-3.6444,-3.6326,-3.5271,-3.5001,-3.4745,-3.4167,-3.3844,-3.3606,-3.3394,-3.3728,-3.3833,-3.3365,-3.3222,-3.3053,-3.2748,-3.285,-3.2874,-3.2691,-3.2707,-3.2813,-3.3011,-3.309,-3.3223,-3.3431,-3.3857,-3.4013,-3.3839,-3.4493,-3.474,-3.4545,-3.5103,-3.5728,-3.6391,-3.7018,-3.7594,-3.1831,-3.2756,-3.364,-3.3933,-3.502,-3.6139,-3.6432,-3.6973,-3.756,-3.7995,-3.8229,-3.8439,-3.8743,-3.8713,-3.8713,-3.8906,-3.8707,-3.8566,-3.8636,-3.8906,-3.9139,-3.9255,-3.9576,-3.9832,0.0,0.0,0.0,-4.0407,-4.0462,-4.0584,-4.0751,-4.0833,-4.0932,-4.1052,-4.1048,-4.1054,-4.1109,-4.1104,-4.1098,-4.1067,-4.1022,-4.0961,-4.0928,-4.079,-4.0736,-4.0731,-4.061,-4.0568,-4.0574,-4.0557,-4.0465,-4.0341,-4.0157,-3.9964,-3.975,-3.947,-3.9326,-3.924,-3.9124,-3.8956,-3.8733,-3.8436,-3.8178,-3.7946,-3.7649,-3.7469,-3.7376,-3.7376,-3.73,-3.7185,-3.7185,-3.7185,-3.7166,-3.7029,-3.6779,-3.6488,-3.6052,-3.5922,-3.5653,-3.4829,-3.4483,-3.4167,-3.3607,-3.2988,-3.2505,-3.2375,-3.2352,-3.2534,-3.2974,-3.3024,-3.2899,-3.2602,-3.2752,-3.273,-3.2377,-3.2376,-3.2364,-3.2364,-3.2605,-3.2836,-3.3012,-3.3539,-3.3837,-3.3814,-3.4281,-3.4507,-3.4455,-3.4872,-3.54,-3.6055,-3.6536,-3.703,-2.9322,-3.0238,-3.0964,-3.1763,-3.3262,-3.4631,-3.5076,-3.5647,-3.6313,-3.7181,-3.7399,-3.77,-3.8535,-3.851,-3.843,-3.8683,-3.8478,-3.8283,-3.8318,-3.8442,-3.8624,0.0,0.0,0.0,0.0,0.0,0.0,-4.0229,0.0,-4.0496,-4.0499,-4.0681,-4.0848,-4.1007,-4.0933,-4.0966,-4.1093,-4.111,-4.1078,-4.1005,-4.1005,-4.0939,-4.0813,-4.0809,-4.0805,-4.0797,-4.0738,-4.0707,-4.0686,-4.0636,-4.0586,-4.058,-4.0579,-4.0431,-4.0229,-3.9973,-3.9709,-3.9451,-3.9187,-3.9101,-3.9073,-3.9073,-3.9073,-3.9059,-3.9059,-3.8822,-3.8563,-3.8563,-3.8346,-3.8101,-3.8101,-3.8065,-3.7945,-3.7542,-3.6899,-3.6239,-3.5776,-3.5085,-3.4505,-3.4371,-3.4049,-3.3799,-3.3819,-3.298,-3.2283,-3.2283,-3.1331,-3.1007,-3.2165,-3.2945,-3.3424,-3.3424,-3.3879,-3.4185,-3.4185,-3.3531,-3.3097,-3.3114,-3.3133,-3.2967,-3.2508,-3.389,-3.4223,-3.3284,-3.4517,-3.5103,-3.496,-3.5507,-3.6,-3.6408,-3.6436,-3.6473,-2.5934,-2.698,-2.7953,-2.8669,-3.0401,-3.2027,-3.2338,-3.3453,-3.4645,-3.5477,-3.6125,-3.6736,-3.7417,-3.756,-3.7596,-3.7667,-3.7156,-3.6886,-3.7228,-3.747,-3.779,-3.8218,-3.8551,-3.888,-3.9165,-3.9266,0.0,0.0,-4.0003,-4.0304,-4.0559,-4.0615,-4.0766,-4.0987,-4.104,-4.1069,-4.1102,-4.1094,-4.109,-4.1065,-4.1065,-4.1085,-4.1083,-4.0994,-4.0911,-4.0878,-4.0747,-4.0672,-4.0629,-4.0602,-4.0515,-4.0362,-4.0221,-4.0004,-3.9757,-3.9587,-3.9477,-3.9432,-3.936,-3.9059,-3.8733,-3.8733,-3.8566,-3.8346,-3.8346,-3.8316,-3.8216,-3.8216,-3.8168,-3.8101,-3.8101,-3.7614,-3.7094,-3.7011,-3.6382,-3.5689,-3.5331,-3.5292,-3.4954,-3.381,-3.3031,-3.2556,-3.2611,-3.2418,-3.2169,-3.2023,-3.1941,-3.1697,-3.107,-3.0869,-3.0767,-3.0767,-3.1108,-3.1336,-3.1336,-3.1652,-3.1857,-3.1857,-3.2189,-3.2441,-3.2564,-3.2704,-3.2791,-3.2774,-3.3103,-3.3272,-3.3253,-3.3822,-3.4473,-3.5158,-3.5631,-3.6066,-2.2987,-2.414,-2.5297,-2.6196,-2.7779,-2.9317,-3.0048,-3.1514,-3.3024,-3.4006,-3.4987,-3.5882,-3.6586,-3.6696,-3.6694,-3.6796,-3.6449,-3.6249,-3.6519,-3.6706,-3.7041,-3.7614,-3.7893,-3.8243,-3.8778,-3.9013,-3.9192,0.0,-3.9769,-4.0101,-4.0276,-4.0346,-4.0527,-4.0814,-4.0836,-4.0922,-4.1108,-4.1107,-4.1113,-4.1132,-4.1132,-4.1152,-4.1191,-4.1126,-4.1046,-4.0981,0.0,-4.0786,-4.07,-4.0694,-4.06,-4.0477,-4.0386,-4.0247,-4.011,-3.991,-3.9832,-3.9818,-3.9575,-3.93,-3.9036,-3.8966,-3.8826,-3.8661,-3.8661,-3.8661,-3.8588,-3.8205,-3.8095,-3.8033,-3.7745,-3.7249,-3.6817,-3.6685,-3.6014,-3.5302,-3.4939,-3.4751,-3.4341,-3.3306,-3.2632,-3.2231,-3.2282,-3.2162,-3.2039,-3.1914,-3.1948,-3.1673,-3.0818,-3.0845,-3.0931,-3.0931,-3.1106,-3.1223,-3.1223,-3.1601,-3.184,-3.184,-3.209,-3.237,-3.2669,-3.2653,-3.2782,-3.3126,-3.3225,-3.3314,-3.3357,-3.3768,-3.4215,-3.4679,-3.509,-3.5469,-2.061,-2.1763,-2.2879,-2.4025,-2.5375,-2.6758,-2.7926,-2.9665,-3.1368,-3.2482,-3.3758,-3.4871,-3.5651,-3.5801,-3.5834,-3.5933,-3.5908,-3.5864,-3.5847,-3.5998,-3.6343,-3.706,-3.7155,-3.7488,-3.8339,-3.864,-3.8865,-3.9078,-3.9488,-3.9765,-3.987,-3.9975,-4.0221,-4.0577,-4.052,-4.0699,-4.1081,-4.1081,-4.1115,-4.117,-4.117,-4.1171,-4.1191,-4.1191,-4.115,-4.1108,-4.1047,0.0,-4.0825,-4.0834,-4.0788,-4.0739,-4.0776,-4.0712,-4.0559,-4.0319,-4.0148,-3.9957,-3.9499,-3.9328,-3.9339,-3.9283,-3.9269,-3.9251,-3.9164,-3.9121,-3.8989,-3.8228,-3.801,-3.7871,-3.7291,-3.6975,-3.6744,-3.6472,-3.5726,-3.5014,-3.4682,-3.4035,-3.3421,-3.3102,-3.2787,-3.2548,-3.2559,-3.2296,-3.2109,-3.2109,-3.1915,-3.1657,-3.1374,-3.1857,-3.2214,-3.2143,-3.2267,-3.2353,-3.2353,-3.2473,-3.2541,-3.2541,-3.2541,-3.2672,-3.2952,-3.3199,-3.3494,-3.3815,-3.4049,-3.4209,-3.4257,-3.4473,-3.4586,-3.4622,-3.4822,-3.4907,-1.9856,-2.0433,-2.078,-2.1533,-2.3492,-2.5256,-2.552,-2.7441,-2.9383,-3.0084,-3.1583,-3.2959,-3.3538,-3.4574,-3.5163,-3.4691,-3.4695,-3.4745,-3.4622,-3.5163,-3.5715,-3.6249,-3.6361,-3.6691,-3.7452,-3.756,0.0,0.0,-3.873,-3.9099,-3.9709,-3.9765,-3.9996,-4.0501,-4.0501,-4.0662,-4.1009,-4.1028,-4.1014,-4.1025,-4.1025,-4.1066,-4.1116,-4.1116,-4.1113,-4.1109,-4.1083,0.0,-4.0967,-4.0976,-4.0953,-4.0922,-4.0776,-4.0245,-3.954,-3.9329,-3.8745,-3.8066,-3.7985,-3.7937,-3.8023,-3.8452,-3.8564,-3.8467,-3.7907,-3.774,-3.7721,-3.7551,-3.7513,-3.7485,-3.7374,-3.6833,-3.6261,-3.6056,-3.5507,-3.4953,-3.4736,-3.4356,-3.4012,-3.3834,-3.3542,-3.331,-3.3306,-3.3263,-3.3219,-3.3219,-3.3174,-3.313,-3.3067,-3.1986,-3.1154,-3.0858,-3.157,-3.2057,-3.2057,-3.282,-3.3299,-3.3299,-3.3299,-3.3443,-3.3784,-3.3588,-3.363,-3.3959,-3.4011,-3.4036,-3.4049,-3.4305,-3.4531,-3.4684,-3.4954,-3.5044,-1.8888,-1.9353,-1.9748,-2.042,-2.1493,-2.2751,-2.4098,-2.5826,-2.7554,-2.8806,-3.0494,-3.1819,-3.2047,-3.32,-3.4003,-3.3705,-3.3818,-3.3894,-3.3846,-3.393,-3.4284,-3.5084,-3.525,-3.5674,-3.6588,-3.6829,-3.7064,-3.7452,-3.7874,-3.8428,-3.9099,-3.8964,-3.9034,-3.9337,-3.9084,-3.9082,-3.9379,-3.9413,-3.9509,-3.9643,-3.9652,-3.9666,-3.9689,-3.9689,-3.9683,-3.9648,-3.9646,0.0,-3.9592,-3.9627,-3.9658,-3.9641,-3.9542,-3.9229,-3.8818,-3.8714,-3.8405,-3.7992,-3.7894,-3.7861,-3.7836,-3.7627,-3.7759,-3.7896,-3.7488,-3.7355,-3.728,-3.6967,-3.6823,-3.6715,-3.6477,-3.607,-3.5724,-3.5698,-3.5391,-3.5081,-3.4986,-3.4717,-3.4527,-3.4613,-3.4347,-3.4177,-3.4308,-3.4218,-3.4126,-3.4126,-3.3956,-3.3746,-3.3562,-3.285,-3.2283,-3.2073,-3.2494,-3.2784,-3.2784,-3.332,-3.3655,-3.3655,-3.3731,-3.3913,-3.4248,-3.4147,-3.4202,-3.4507,-3.4557,-3.4585,-3.4632,-3.4816,-3.4983,-3.5124,-3.5313,-3.541,-1.8158,-1.8664,-1.9065,-1.9682,-2.0053,-2.0844,-2.3004,-2.4582,-2.605,-2.7697,-2.9424,-3.0626,-3.0626,-3.1672,-3.2528,-3.2531,-3.2774,-3.2982,-3.2992,-3.2795,-3.2977,-3.3822,-3.403,-3.4534,-3.5593,-3.5976,0.0,-3.6249,-3.675,-3.7425,-3.8261,-3.7944,-3.7815,-3.7972,-3.7616,-3.7531,-3.7807,-3.7873,-3.7994,-3.8207,-3.8205,-3.8245,-3.8284,-3.8284,-3.8293,-3.8301,-3.8306,0.0,0.0,-3.8365,-3.8379,-3.8383,-3.8378,-3.8271,-3.8118,-3.8127,-3.8,-3.7812,-3.765,-3.7585,-3.7459,-3.6725,-3.6911,-3.737,-3.7061,-3.6978,-3.6869,-3.64,-3.6207,-3.6033,-3.5667,-3.5481,-3.5437,-3.5538,-3.5418,-3.5298,-3.5298,-3.5114,-3.5027,-3.5189,-3.5008,-3.4885,-3.5091,-3.4942,-3.4801,-3.4783,-3.453,-3.4216,-3.397,-3.3923,-3.3906,-3.3852,-3.3712,-3.3623,-3.3623,-3.3907,-3.4081,-3.4081,-3.4177,-3.4358,-3.4623,-3.4678,-3.4803,-3.5031,-3.5085,-3.5148,-3.522,-3.5334,-3.5427,-3.5525,-3.5629,-3.5686,-1.8182,-1.8573,-1.8472,-1.8841,-1.9944,-2.1135,-2.1986,-2.3566,-2.5134,-2.5963,-2.758,-2.8852,-2.8852,-2.9838,-3.068,-3.0743,-3.1205,-3.1616,-3.1675,-3.2155,-3.2552,-3.2644,-3.2763,-3.3302,-3.4365,-3.4589,-3.4828,-3.5125,-3.5044,-3.5668,-3.7249,-3.6834,-3.6676,-3.6931,-3.7062,-3.7265,-3.7534,-3.7543,-3.7561,-3.7577,-3.7585,-3.7709,-3.7956,-3.7956,-3.8083,-3.8306,-3.8293,0.0,0.0,-3.8308,-3.8311,-3.8311,-3.8311,-3.7854,-3.7225,-3.7225,-3.6712,-3.6027,-3.5958,-3.5926,-3.5868,-3.5536,-3.6092,-3.6768,-3.6133,-3.5937,-3.594,-3.5869,-3.5853,-3.5837,-3.5771,-3.5755,-3.5758,-3.5761,-3.5674,-3.5553,-3.5553,-3.5549,-3.548,-3.5328,-3.5276,-3.5235,-3.5207,-3.5161,-3.5124,-3.507,-3.5032,-3.5005,-3.4975,-3.4963,-3.4966,-3.4957,-3.4414,-3.4046,-3.4046,-3.4624,-3.4984,-3.4984,-3.5001,-3.5018,-3.5034,-3.5051,-3.5082,-3.5185,-3.5187,-3.5213,-3.5287,-3.5298,-3.5418,-3.5589,-3.5602,-3.567,-1.8317,-1.8707,-1.864,-1.8774,-1.9332,-2.0224,-2.1677,-2.2572,-2.3524,-2.505,-2.617,-2.697,-2.7342,-2.8408,-2.9392,-2.9774,-3.0426,-3.0857,-3.0878,-3.1167,-3.1478,-3.1849,-3.2031,-3.2388,0.0,0.0,-3.3032,-3.3409,-3.2862,-3.324,-3.4901,-3.5121,-3.5334,-3.5588,-3.5206,-3.5163,-3.5515,-3.5547,-3.57,-3.595,-3.5977,-3.6037,-3.6088,-3.6088,-3.6148,-3.6265,-3.6422,0.0,0.0,-3.663,-3.6655,-3.658,-3.6686,-3.6547,-3.6258,-3.6265,-3.6031,-3.5737,-3.5703,-3.5691,-3.5685,-3.5576,-3.5819,-3.6053,-3.5631,-3.5501,-3.5521,-3.5697,-3.565,-3.56,-3.5756,-3.5761,-3.5732,-3.5732,-3.5698,-3.5662,-3.5662,-3.5662,-3.5643,-3.5566,-3.5547,-3.5527,-3.5504,-3.5502,-3.5481,-3.5472,-3.5435,-3.5394,-3.5398,-3.5399,-3.541,-3.5408,-3.4988,-3.4693,-3.4695,-3.5059,-3.528,-3.5286,-3.5398,-3.546,-3.546,-3.546,-3.5468,-3.5506,-3.5546,-3.5577,-3.5602,-3.5602,-3.5643,-3.5723,-3.5716,-3.5741,-1.7584,-1.7969,-1.8046,-1.8317,-1.863,-1.9375,-2.1307,-2.1875,-2.2506,-2.4368,-2.5148,-2.5604,-2.6051,-2.6876,-2.7651,-2.8267,-2.8788,-2.9243,-2.9623,-2.9693,-2.9947,-3.0526,0.0,-3.0968,-3.1556,-3.1303,-3.1246,-3.157,-3.0939,0.0,-3.2399,-3.302,-3.3645,-3.4324,-3.3746,-3.3556,-3.383,-3.3768,-3.3975,-3.4435,-3.4303,-3.4419,-3.4813,-3.46,-3.4601,-3.4794,-3.4983,0.0,0.0,-3.5115,-3.5168,-3.506,-3.5194,-3.5266,-3.5295,-3.5298,-3.5294,-3.53,-3.5287,-3.5297,-3.5274,-3.5262,-3.5262,-3.5218,-3.5028,-3.5176,-3.5425,-3.5493,-3.5325,-3.5204,-3.5507,-3.5466,-3.5359,-3.5359,-3.5359,-3.5359,-3.5359,-3.5359,-3.5359,-3.5359,-3.5359,-3.5349,-3.5318,-3.5323,-3.5312,-3.5282,-3.5252,-3.523,-3.5224,-3.5221,-3.5214,-3.5221,-3.4995,-3.4979,-3.5228,-3.5379,-3.5455,-3.5461,-3.5586,-3.5604,-3.548,-3.5461,-3.5435,-3.5404,-3.5515,-3.56,-3.5671,-3.5732,-3.5729,-3.5671,-3.5666,-3.5613,-1.5693,-1.6018,-1.6245,-1.7164,-1.7867,-1.8787,-2.0677,-2.1569,-2.2396,-2.3813,-2.4595,-2.5007,-2.5007,-2.5021,-2.5239,-2.5825,-2.5934,-2.6356,-2.7571,-2.7734,-2.7935,0.0,-2.8524,-2.8803,-2.9479,-2.9539,-2.9561,-2.9717,-2.9404,0.0,-3.0009,-3.0536,-3.1577,-3.316,-3.309,-3.3006,-3.3006,-3.2624,-3.2715,-3.3306,-3.2715,-3.3194,-3.4583,-3.392,-3.3937,0.0,0.0,0.0,0.0,-3.4199,-3.4222,-3.4214,-3.4214,-3.4264,-3.4308,-3.4308,-3.4358,-3.44,-3.4339,-3.4308,-3.4297,-3.4233,-3.4222,-3.4214,-3.4207,-3.491,-3.5604,-3.5227,-3.4814,-3.4607,-3.4999,-3.4801,-3.4518,-3.4518,-3.4518,-3.4518,-3.4518,-3.4518,-3.4518,-3.4518,-3.4518,-3.4489,-3.4422,-3.441,-3.4379,-3.432,-3.4316,-3.4311,-3.4309,-3.4302,-3.4305,-3.4301,-3.4314,-3.4661,-3.5519,-3.5601,-3.5601,-3.5601,-3.5601,-3.5389,-3.4923,-3.4917,-3.4847,-3.4704,-3.4899,-3.5135,-3.5408,-3.5593,-3.5609,-3.5403,-3.5347,-3.5196,-1.572,-1.6367,-1.6837,-1.7104,-1.7808,-1.8741,-1.9933,-2.0365,-2.0792,-2.1822,-2.2579,-2.314,-2.3555,-2.405,-2.4576,-2.518,-2.5632,-2.6027,-2.6408,-2.6859,-2.723,-2.739,-2.7417,-2.7311,0.0,0.0,-2.7077,-2.7091,-2.692,0.0,-2.8774,-2.8962,-2.9796,-3.1523,-3.1613,-3.1704,-3.1847,-3.1706,-3.2003,-3.2684,-3.2492,-3.2634,-3.3092,-3.2895,-3.2874,0.0,0.0,0.0,0.0,-3.3975,-3.4132,-3.4018,-3.4149,-3.4207,-3.4225,-3.4217,-3.4242,-3.4266,-3.4239,-3.4225,-3.4192,-3.3881,-3.379,-3.3735,-3.3466,-3.3986,-3.4649,-3.4519,-3.4434,-3.4387,-3.4463,-3.4393,-3.4302,-3.4302,-3.4283,-3.4293,-3.4293,-3.4283,-3.4302,-3.4302,-3.4302,-3.4285,-3.4261,-3.4271,-3.4262,-3.4235,-3.4235,-3.4235,-3.4239,-3.4234,-3.4235,-3.4228,-3.4225,-3.4363,-3.4683,-3.4712,-3.4718,-3.4706,-3.4711,-3.4634,-3.45,-3.4492,-3.448,-3.4433,-3.4495,-3.4622,-3.4857,-3.4913,-3.5009,-3.5128,-3.5093,-3.5062,-1.4958,-1.549,-1.6026,-1.6237,-1.6828,-1.7619,-1.8626,-1.8959,-1.9366,-2.0364,-2.1003,-2.1612,-2.217,-2.264,-2.3105,-2.3467,-2.3838,-2.4163,-2.4368,-2.4746,0.0,-2.5349,0.0,0.0,0.0,-2.4757,-2.4862,-2.5135,-2.508,0.0,-2.7567,-2.7453,-2.8051,-2.9583,-3.007,-3.0384,-3.0503,-3.0375,-3.0679,-3.1419,-3.1139,-3.1273,-3.176,-3.1689,-3.1706,0.0,0.0,0.0,0.0,-3.2727,-3.2766,-3.2652,-3.2568,-3.2544,-3.2544,-3.2541,-3.2541,-3.2544,-3.2544,-3.2544,-3.2529,-3.2489,-3.2476,-3.2427,-3.2236,-3.2813,-3.3537,-3.3697,-3.3535,-3.3343,-3.3498,-3.3387,-3.3271,-3.3271,-3.3253,-3.3267,-3.3267,-3.3253,-3.3271,-3.3271,-3.3271,-3.3271,-3.3267,-3.3253,-3.3271,-3.3271,-3.3253,-3.3267,-3.3267,-3.3267,-3.3267,-3.3267,-3.3267,-3.3281,-3.332,-3.3757,-3.4049,-3.405,-3.389,-3.374,-3.3585,-3.3572,-3.3539,-3.3471,-3.3539,-3.3673,-3.3885,-3.3885,-3.3962,-3.4121,-3.4048,-3.4032,0.0,-1.3848,-1.4274,-1.476,-1.5215,-1.5834,-1.7011,-1.7566,0.0,-1.9368,-1.9911,-2.0321,-2.0826,-2.089,-2.0921,-2.0996,-2.0953,-2.1133,-2.1709,-2.1778,0.0,0.0,-2.2666,0.0,-2.2699,-2.2733,-2.3026,-2.3654,0.0,0.0,-2.6169,-2.5859,-2.6167,-2.7333,-2.831,-2.889,-2.9035,-2.8724,-2.8932,-2.9642,-2.8909,-2.9195,-3.0415,-3.0124,-3.0177,0.0,0.0,0.0,0.0,-3.0476,-3.0338,-3.0355,-2.9875,-2.9711,-2.9807,-2.9807,-2.9807,-2.9791,-2.9711,-2.9673,-2.9716,-3.01,-3.0199,-3.0199,-3.0338,-3.1239,-3.2314,-3.2773,-3.2283,-3.1735,-3.2207,-3.1987,-3.1623,-3.1623,-3.1514,-3.1423,-3.1423,-3.1442,-3.1423,-3.1352,-3.1459,-3.1514,-3.1369,-3.1459,-3.1514,-3.1442,-3.1514,-3.155,-3.155,-3.155,-3.155,-3.155,-3.155,-3.155,-3.155,-3.2724,-3.3469,-3.3469,-3.3104,-3.2736,-3.2369,-3.2354,-3.2258,-3.2092,-3.2258,-3.2464,-3.266,-3.2627,-3.2642,-3.2675,-3.2403,-3.2309,-1.4394,0.0,-1.4502,-1.4645,-1.518,-1.5913,0.0,-1.7223,-1.7575,-1.8566,-1.8836,-1.8895,-1.9005,-1.8986,-1.9195,-1.9922,-1.9684,-1.9716,-2.0562,-2.0693,0.0,-2.0882,-2.1234,-2.1496,-2.1496,-2.1494,-2.1581,-2.1737,0.0,-2.2133,-2.3026,-2.2967,-2.3267,-2.3997,-2.4734,-2.592,-2.749,-2.7435,-2.7678,-2.8192,-2.7512,-2.7333,-2.7607,-2.6574,-2.6163,0.0,0.0,0.0,-2.6808,-2.702,-2.7659,-2.8519,-2.8408,-2.8944,-2.9807,-2.9807,-2.9807,-2.9652,-2.8666,-2.8363,-2.8151,-2.6998,-2.6406,-2.6167,-2.6203,-2.8259,-3.0748,-3.16,-3.145,-3.1123,-3.1518,-3.1257,-3.0856,-3.0856,-2.979,-2.88,-2.88,-2.8865,-2.8692,-2.7872,-2.9162,-2.9823,-2.8016,-2.9135,-2.991,-2.8957,-2.9623,-3.0253,-3.0253,-3.0253,-3.0253,-3.0253,-3.0253,-3.0253,-3.0253,-3.1399,-3.2159,-3.2159,-3.2056,-3.1952,-3.188,-3.1862,-3.1844,-3.1788,-3.2039,-3.2195,-3.2245,-3.2053,-3.2119,-3.2454,-3.162,-3.1479,-1.4673,-1.4358,-1.4086,-1.4086,-1.441,-1.4832,-1.5321,-1.5604,-1.5956,-1.6689,-1.6973,-1.7151,-1.74,-1.7406,-1.7557,-1.8073,-1.7905,-1.7939,0.0,0.0,-1.8969,-1.8969,-1.9245,-1.9387,0.0,-1.9387,-1.9541,-1.989,0.0,-2.0685,-2.1568,-2.1596,-2.1986,-2.2882,-2.2487,-2.3326,-2.5547,-2.5574,-2.5735,-2.6052,-2.5311,-2.4998,-2.5038,-2.4531,-2.4296,0.0,0.0,0.0,-2.4975,-2.4973,-2.5355,-2.5944,-2.5701,-2.6031,-2.6638,-2.6638,-2.6638,-2.6537,-2.5848,-2.5779,-2.579,-2.4614,-2.427,-2.4296,-2.4379,-2.5528,-2.7069,-2.813,-2.8229,-2.81,-2.8322,-2.8146,-2.7938,-2.7938,-2.7191,-2.649,-2.649,-2.6525,-2.6396,-2.5825,-2.6742,-2.7206,-2.5941,-2.6708,-2.7261,-2.6579,-2.7061,-2.7711,-2.8295,-2.838,-2.8626,-2.923,-2.9275,-2.9154,-2.8865,-2.9751,-3.0402,-3.0536,-3.0406,-3.0336,-3.0336,-3.0282,-3.0282,-3.0336,-3.0488,-3.0536,-3.0536,-3.0392,-3.046,-3.0695,-3.0145,-3.0084,-1.478,-1.4049,-1.3492,-1.3492,-1.3492,-1.3528,-1.363,-1.3912,-1.4338,-1.4903,-1.5215,-1.549,-1.5948,-1.5948,-1.5921,-1.6062,-1.6132,0.0,-1.6515,-1.6872,-1.7097,-1.7097,-1.7201,0.0,-1.7235,-1.7235,-1.7491,0.0,0.0,-1.94,-2.0486,-2.0534,-2.1012,-2.2043,-2.0733,-2.0997,-2.3056,-2.3263,-2.3427,-2.3535,-2.2827,-2.2455,-2.2376,-2.2816,-2.2896,-2.2711,0.0,0.0,-2.3633,-2.3176,-2.3114,-2.3244,-2.2785,-2.272,-2.2899,-2.2899,-2.2899,-2.2869,-2.2673,-2.279,-2.2921,-2.2455,-2.2628,-2.3039,-2.3144,-2.2854,-2.2688,-2.3651,-2.427,-2.4668,-2.4736,-2.4682,-2.4641,-2.4641,-2.4422,-2.4229,-2.4229,-2.4229,-2.4201,-2.4034,-2.4297,-2.4436,-2.4062,-2.4297,-2.4436,-2.4256,-2.438,-2.49,-2.5971,-2.6116,-2.655,-2.7688,-2.7762,-2.7519,-2.7024,-2.7589,-2.8093,-2.8373,-2.849,-2.8512,-2.841,-2.8355,-2.8355,-2.841,-2.841,-2.8449,-2.8536,-2.8377,-2.8393,-2.8536,-2.8321,-2.8297,-1.4637,-1.4049,-1.3492,-1.3492,-1.3492,-1.3666,-1.4294,-1.4466,-1.4708,-1.5428,-1.5136,-1.4744,-1.4851,-1.4338,-1.4201,-1.4974,0.0,-1.5471,0.0,0.0,-1.5781,-1.5781,0.0,-1.6481,-1.6481,-1.6481,-1.6515,0.0,0.0,-1.736,-1.7537,-1.7813,-1.8061,-1.8224,-1.8583,-1.8938,-1.9336,-2.0379,-2.0945,-2.0976,-2.0739,-2.0016,-1.8984,-1.9565,-1.9171,-1.8191,0.0,-1.9933,-1.9901,-1.9825,-2.0437,-2.1389,-2.1319,-2.1957,-2.2899,-2.2899,-2.2899,-2.2763,-2.1661,-2.0628,-1.9781,-1.9705,-1.9727,-1.9803,-1.9836,-1.9792,-1.9759,-1.9933,-2.1934,-2.4111,-2.4462,-2.4225,-2.3883,-2.3883,-2.2714,-2.159,-2.159,-2.167,-2.1466,-2.0553,-2.1988,-2.2718,-2.0733,-2.1939,-2.2836,-2.1744,-2.2508,-2.3249,-2.3454,-2.3483,-2.3554,-2.3757,-2.3785,-2.3728,-2.3654,-2.4239,-2.4676,-2.4719,-2.6681,-2.7618,-2.712,-2.708,-2.708,-2.7095,-2.7095,-2.7325,-2.7859,-2.6945,-2.696,-2.7835,-2.6527,-2.6144,-1.4315,-1.3905,-1.3492,-1.3492,-1.3492,-1.3601,-1.3912,-1.4013,-1.4013,-1.4034,-1.4006,-1.3796,-1.3157,-1.3032,-1.3149,-1.3579,0.0,-1.4661,-1.4382,-1.4732,-1.5018,0.0,0.0,-1.4887,-1.4887,-1.4629,0.0,0.0,0.0,0.0,-1.5676,-1.6402,-1.6802,-1.6802,-1.654,-1.6409,-1.6409,-1.6354,-1.7094,-1.8563,-1.8138,-1.7499,-1.6688,-1.7192,-1.7023,-1.6401,0.0,-1.7263,-1.6824,-1.7571,-1.7726,-1.7629,-1.9204,-1.9749,-1.9609,-1.9716,-1.9253,-1.8481,-1.8218,-1.7692,-1.7161,-1.7472,-1.7721,-1.7901,-1.7901,-1.8046,-1.8114,-1.7702,-1.9381,-2.1288,-2.1167,-2.0646,-2.0077,-1.9757,-1.8742,-1.7817,-1.7817,-1.7874,-1.7971,-1.819,-1.9107,-1.9738,-1.9375,-2.0171,-2.064,-2.0074,-2.0459,-2.1092,-2.1773,-2.1865,-2.2128,-2.281,-2.2899,-2.2763,-2.2438,-2.2997,-2.367,-2.4443,-2.5589,-2.6114,-2.5844,-2.5818,-2.5818,-2.5818,-2.5818,-2.5966,-2.6246,-2.5753,-2.5753,-2.622,-2.5522,-2.5342,-1.3843,-1.3656,-1.3455,-1.3309,-1.3309,-1.3346,-1.3455,-1.3273,-1.2973,-1.2673,-1.2856,-1.2783,-1.1855,-1.2077,0.0,-1.2378,-1.3032,-1.3542,-1.3542,-1.376,-1.3905,-1.3905,-1.3491,-1.3237,-1.3237,0.0,0.0,0.0,0.0,0.0,-1.406,-1.4969,-1.5517,-1.5517,-1.4649,-1.4212,-1.4212,-1.3324,-1.3973,-1.6035,-1.5651,-1.5149,-1.4554,-1.5325,-1.5396,-1.498,-1.5615,-1.5423,-1.4806,-1.5835,-1.5581,-1.4727,-1.6936,-1.7161,-1.6305,-1.66,-1.5887,-1.4806,-1.5404,-1.5448,-1.5255,-1.5738,-1.6105,-1.6349,-1.6349,-1.6532,-1.6602,-1.6044,-1.6911,-1.793,-1.7565,-1.7033,-1.6462,-1.6,-1.5431,-1.5035,-1.4956,-1.4956,-1.5273,-1.6279,-1.6487,-1.6876,-1.8041,-1.822,-1.8297,-1.8408,-1.8442,-1.8813,-1.9771,-1.9889,-2.0317,-2.1373,-2.1424,-2.1218,-2.0931,-2.1502,-2.2359,-2.3511,-2.4042,-2.4226,-2.4082,-2.4082,-2.4082,-2.4082,-2.4082,-2.4168,-2.4313,-2.4168,-2.4168,-2.4284,-2.414,-2.414,-1.3079,-1.3286,-1.3382,-1.2783,-1.2673,-1.2826,-1.3382,-1.2636,-1.1966,-1.2489,-1.2194,-1.1781,-1.1706,-1.1744,-1.1744,-1.1744,-1.1818,-1.1855,-1.1855,0.0,-1.1929,-1.1929,-1.1885,-1.1848,-1.1848,0.0,0.0,0.0,0.0,0.0,-1.2485,-1.2894,-1.315,-1.315,-1.3077,-1.3004,-1.3004,-1.2938,-1.3004,-1.3215,-1.3649,-1.3186,-1.2027,-1.3778,-1.3914,-1.2809,-1.4094,-1.4585,-1.4514,-1.462,-1.4585,-1.4514,-1.4727,-1.4762,-1.4727,-1.5325,-1.5105,-1.462,-1.522,-1.5035,-1.4585,-1.462,-1.4664,-1.4664,-1.4664,-1.4691,-1.4691,-1.4656,-1.4727,-1.4869,-1.5018,-1.5026,-1.4912,-1.4691,-1.4735,-1.477,-1.4585,-1.4549,-1.4585,-1.4656,-1.4691,-1.4912,-1.5536,-1.5685,-1.5878,-1.6437,-1.6507,-1.6541,-1.6636,-1.6636,-1.68,-1.7273,-1.6998,-1.7005,-1.7596,-1.8375,-1.8973,-1.9327,-2.1151,-2.1949,-2.1396,-2.1396,-2.1396,-2.1396,-2.1396,-2.1643,-2.2201,-2.1643,-2.1674,-2.2201,-2.1643,-2.1396,-1.2701,-1.2806,-1.29,-1.2673,-1.204,-1.1632,-1.2224,-1.204,-1.1669,-1.1521,-1.1595,-1.1595,-1.1223,0.0,-1.1149,-1.1149,-1.1446,-1.1706,-1.1706,-1.1706,-1.1706,-1.1706,-1.1372,-1.1149,0.0,0.0,0.0,0.0,0.0,0.0,-1.136,-1.1879,-1.2137,-1.2137,-1.1805,-1.1583,-1.1583,-1.1211,-1.1025,-1.1025,-1.1859,-1.1866,-1.1186,-1.2111,-1.2221,-1.1681,-1.2441,-1.2391,-1.1877,-1.2743,-1.2487,-1.1723,-1.2693,-1.3158,-1.3266,-1.3526,-1.2845,-1.1907,-1.2501,-1.2501,-1.2245,-1.2654,-1.2939,-1.3114,-1.3114,-1.3302,-1.3411,-1.291,-1.2654,-1.2823,-1.3858,-1.3742,-1.3281,-1.2866,-1.2428,-1.2098,-1.2024,-1.2024,-1.2275,-1.3092,-1.3273,-1.3591,-1.4664,-1.4849,-1.492,-1.5141,-1.5184,-1.5184,-1.5184,-1.5518,-1.5816,-1.5948,-1.6184,-1.6393,-1.6644,-1.6964,-1.717,-1.7279,-1.9053,-2.0094,-2.0095,-1.9619,-1.9478,-1.9717,-1.9954,-2.0062,-2.0082,-2.063,-2.0908,-2.0937,-2.1069,-2.1092,-1.2207,-1.2247,-1.2268,-1.2077,-1.1409,-1.085,-1.1074,-1.1149,-1.1074,-1.085,-1.0962,-1.0999,-1.0588,0.0,0.0,0.0,-1.0426,-1.0453,-1.0726,-1.0533,-1.0458,-1.0726,-1.0395,-1.025,0.0,0.0,0.0,0.0,0.0,0.0,0.0,-1.0925,-1.1149,-1.1149,-1.0738,-1.0513,-1.0513,-0.9836,-0.9539,-0.9539,-0.9976,-1.0276,-1.0513,-1.0812,-1.085,-1.0738,-1.0999,-1.0738,-1.018,-1.1093,-1.0838,-0.9992,-1.1075,-1.1545,-1.1692,-1.1883,-1.1156,-1.018,-1.0812,-1.0775,-1.0588,-1.0999,-1.1329,-1.1533,-1.1533,-1.1724,-1.1835,-1.1292,-1.1037,-1.1174,-1.2245,-1.2128,-1.1668,-1.1217,-1.0775,-1.0406,-1.0331,-1.0331,-1.0582,-1.1514,-1.1692,-1.2018,-1.3129,-1.3346,-1.3382,-1.3606,-1.3606,-1.3606,-1.3606,-1.3973,-1.4232,-1.4232,-1.4827,-1.5199,-1.5128,-1.534,-1.5525,-1.5604,-1.6736,-1.7707,-1.8452,-1.7953,-1.7798,-1.8077,-1.8312,-1.8312,-1.8077,-1.894,-1.9258,-1.906,-1.9411,-1.9727,-1.1587,-1.1637,-1.1558,-1.0962,-1.0775,-1.0625,-1.003,-0.9879,-1.0067,-1.0625,-1.0293,-0.9879,-0.9879,-0.9236,0.0,-0.9728,-0.8537,-0.777,-0.8585,-0.8003,-0.7808,-0.8585,-0.8699,-0.9003,0.0,0.0,0.0,0.0,0.0,0.0,0.0,-0.9884,-0.9884,-0.9879,-0.9884,-0.9884,-0.9879,-0.9084,-0.8703,-0.8661,-0.7889,-0.8347,-0.9879,-0.9879,-0.9879,-0.9879,-0.9884,-0.9884,-0.9884,-0.9884,-0.9884,-0.9884,-0.9884,-0.9884,-0.996,-1.0556,-1.0406,-0.9992,-1.0588,-1.04,-0.9884,-0.9884,-0.9884,-0.9884,-0.9884,-0.9884,-0.9884,-0.9884,-0.9884,-0.9884,-0.9884,-1.0067,-1.0143,-0.9954,-1.0067,-1.0143,-0.996,-0.9884,-0.9884,-0.9884,-0.9884,-1.0105,-1.07,-1.0775,-1.0999,-1.1595,-1.1669,-1.1669,-1.1706,-1.1706,-1.1706,-1.1706,-1.2395,-1.2799,-1.2599,-1.3244,-1.3789,-1.4057,-1.4093,-1.476,-1.6237,-1.6271,-1.6271,-1.6271,-1.6271,-1.6271,-1.6271,-1.6298,-1.6306,-1.6298,-1.6306,-1.6793,-1.1183,-1.0886,-1.0663,-1.0775,-1.0056,-0.9231,-0.8917,-0.8841,-0.8727,-0.8342,-0.8694,-0.8889,-0.8304,-0.7999,0.0,-0.819,-0.7808,-0.7579,-0.7812,-0.7655,-0.7579,-0.7812,-0.7851,0.0,0.0,0.0,0.0,0.0,0.0,0.0,0.0,-0.9884,-0.9652,-0.9084,-0.9614,-0.9344,-0.8228,-0.8546,-0.8432,-0.7851,-0.7617,-0.7732,-0.8228,-0.8808,-0.9046,-0.9084,-0.9652,-0.9884,-0.9884,-0.9884,-0.9884,-0.9884,-0.9884,-0.9884,-0.9916,-1.0105,-1.0067,-0.9916,-1.0105,-1.0067,-0.9884,-0.9884,-0.9884,-0.9884,-0.9884,-0.9884,-0.9884,-0.9884,-0.9884,-0.9884,-0.9884,-0.996,-0.996,-0.9922,-0.9954,-0.996,-0.9922,-0.9884,-0.9884,-0.9884,-0.9884,-0.9954,-1.0143,-1.018,-1.0218,-1.0406,-1.0438,-1.0588,-1.0999,-1.1074,-1.1223,-1.1632,-1.1922,-1.2033,-1.1966,-1.2181,-1.2512,-1.2996,-1.3039,-1.3644,-1.5054,-1.4625,-1.4446,-1.476,-1.4994,-1.5002,-1.476,-1.5666,-1.5983,-1.5745,-1.6132,-1.6446,-1.0482,-0.984,-0.9301,-0.9566,-0.8761,-0.7808,-0.7302,-0.7494,-0.7651,-0.7276,-0.7583,-0.7846,-0.7464,-0.7042,0.0,-0.7153,-0.6692,-0.6388,-0.6696,-0.6461,-0.6423,-0.6808,-0.6846,0.0,0.0,0.0,0.0,0.0,0.0,0.0,0.0,-0.9425,-0.9041,-0.8237,-0.9003,-0.8808,-0.7502,-0.7621,-0.7468,-0.6965,-0.6661,-0.6511,-0.6549,-0.8046,-0.8703,-0.8742,-0.9539,-0.9884,-0.9884,-0.9884,-0.9884,-0.9884,-0.9884,-0.9884,-0.9884,-0.9884,-0.9884,-0.9884,-0.9884,-0.9884,-0.9884,-0.9884,-0.9884,-0.9884,-0.9884,-0.9884,-0.9884,-0.9884,-0.9884,-0.9884,-0.9884,-0.9652,-0.9501,-0.9809,-0.9884,-0.9884,-0.9884,-0.9884,-0.9884,-0.9884,-0.9884,-0.9884,-0.9884,-0.9884,-0.9884,-0.9884,-0.9884,-1.003,-1.04,-1.0443,-1.0588,-1.0962,-1.0962,-1.1074,-1.1335,-1.1335,-1.1595,-1.2187,-1.2224,-1.2592,-1.339,-1.3484,-1.3601,-1.3848,-1.4049,-1.4049,-1.3848,-1.4645,-1.4895,-1.4724,-1.5046,-1.5392,-0.9491,-0.865,-0.7744,-0.7706,-0.7195,-0.6419,-0.5458,-0.5922,-0.6612,-0.6853,0.0,-0.6731,-0.693,-0.616,-0.5735,-0.6458,-0.5345,-0.4654,-0.5389,-0.4849,-0.473,-0.5654,-0.577,0.0,0.0,0.0,0.0,0.0,0.0,0.0,0.0,-0.8585,-0.8237,-0.7425,-0.8161,-0.8161,-0.7272,-0.6546,-0.6163,-0.6089,-0.5362,-0.5018,-0.5093,-0.7399,-0.8508,-0.8623,-0.9425,-0.9765,-0.9728,-0.9803,-0.9809,-0.9809,-0.9809,-0.9765,-0.9728,-0.9765,-0.9771,-0.9728,-0.9728,-0.9728,-0.9728,-0.969,-0.969,-0.969,-0.9765,-0.9728,-0.969,-0.9765,-0.9809,-0.9765,-0.969,-0.9193,-0.8856,-0.9539,-0.969,-0.969,-0.969,-0.9728,-0.9809,-0.9809,-0.9841,-0.9884,-0.9884,-0.9884,-0.9884,-0.9884,-0.9884,-0.9884,-0.9884,-0.9884,-0.9884,-0.9884,-0.9884,-1.0105,-1.0663,-1.07,-1.0962,-1.1595,-1.1632,-1.1632,-1.1706,-1.2746,-1.3346,-1.3346,-1.3346,-1.3346,-1.3346,-1.3346,-1.3346,-1.3346,-1.3346,-1.3804,-0.8166,-0.763,-0.7276,-0.7076,-0.6307,-0.55,-0.4965,-0.4616,-0.4499,-0.4735,-0.5354,-0.5696,-0.5118,-0.481,-0.4732,-0.4885,-0.4616,-0.4462,-0.4616,-0.4499,-0.4499,-0.4693,-0.4732,0.0,0.0,0.0,0.0,0.0,0.0,0.0,-0.7732,-0.777,-0.7349,-0.6507,-0.731,-0.7046,-0.5553,-0.5973,-0.5896,0.0,-0.5093,-0.5018,-0.5054,-0.6205,-0.7122,-0.7808,-0.8618,-0.8775,-0.8542,-0.9165,-0.9241,-0.897,-0.897,-0.8661,-0.8318,-0.8775,-0.8661,-0.8275,-0.8428,-0.8499,-0.8423,-0.8118,-0.7999,-0.8152,-0.8775,-0.8504,-0.8152,-0.8775,-0.897,-0.8813,-0.8194,-0.8351,-0.8585,-0.8118,-0.7999,-0.7999,-0.7999,-0.8504,-0.897,-0.897,-0.9463,-0.9884,-0.9884,-0.9884,-0.9884,-0.9884,-0.9884,-0.9884,-0.9884,-0.9884,-0.9884,-0.9884,-0.9884,-0.9954,-1.0067,-1.0105,-1.0368,-1.0962,-1.0999,-1.1223,-1.1669,-1.1966,-1.2077,-1.2077,-1.2077,-1.2077,-1.2077,-1.2077,-1.2077,-1.2077,-1.2077,-1.2187,-0.774,-0.6828,-0.5893,-0.5461,-0.496,-0.4535,-0.4309,-0.4036,-0.3841,-0.3921,-0.4387,-0.4654,-0.4309,-0.4192,-0.4112,-0.4112,-0.4112,-0.4112,-0.4112,-0.4112,-0.4153,-0.4231,-0.427,0.0,0.0,0.0,0.0,0.0,0.0,-0.6195,-0.658,-0.658,-0.6237,-0.5509,-0.6311,-0.616,-0.5018,-0.5321,-0.5282,-0.4859,-0.474,-0.4779,-0.4896,-0.578,-0.6661,-0.754,-0.8156,-0.8275,-0.8156,-0.878,-0.8894,-0.8665,-0.8394,-0.8241,-0.8241,-0.8241,-0.8241,-0.8203,-0.8008,-0.797,-0.7855,-0.7345,-0.7153,-0.7226,-0.7651,-0.7498,-0.7268,-0.7655,-0.7808,-0.7732,-0.7425,-0.7349,-0.7272,-0.6969,-0.7195,-0.7502,-0.7502,-0.7812,-0.8122,-0.8122,-0.8775,-0.9311,-0.9311,-0.9652,-0.9884,-0.9884,-0.9884,-0.9884,-0.9884,-0.9884,-0.9884,-0.9884,-0.9884,-0.9884,-0.9884,-0.9884,-1.003,-1.0368,-1.0368,-1.0519,-1.0812,-1.085,-1.1111,-1.1706,-1.1706,-1.1706,-1.1706,-1.1706,-1.1706,-1.1706,-1.1706,-1.1706,-0.75,-0.6047,-0.4426,-0.3919,-0.3802,-0.3802,-0.3802,-0.3684,-0.3567,-0.3567,-0.3567,-0.3606,-0.3804,-0.3567,-0.337,-0.337,-0.337,-0.337,-0.337,-0.337,-0.3489,-0.3804,-0.3804,0.0,0.0,0.0,0.0,0.0,0.0,-0.4693,-0.5351,-0.5389,-0.516,-0.4659,-0.5312,-0.5389,-0.4898,-0.474,-0.4659,-0.4659,-0.4462,-0.4501,-0.4659,-0.5509,-0.6314,-0.7042,-0.7464,-0.7621,-0.7621,-0.8084,-0.8237,-0.8122,-0.7625,-0.7663,-0.797,-0.7706,-0.7783,-0.797,-0.7591,-0.7399,-0.7203,-0.6577,-0.6381,-0.6419,-0.6535,-0.6496,-0.6419,-0.6535,-0.6612,-0.6615,-0.67,-0.6272,-0.5848,-0.5893,-0.6426,-0.7,-0.7042,-0.7195,-0.7272,-0.7272,-0.7927,-0.8508,-0.8508,-0.9041,-0.9533,-0.9652,-0.969,-0.9728,-0.9879,-0.9884,-0.9884,-0.9884,-0.9884,-0.9884,-0.9884,-0.9884,-0.9884,-0.9884,-0.9884,-0.9884,-0.9884,-0.9884,-1.0368,-1.1372,-1.1409,-1.1409,-1.1409,-1.1409,-1.1409,-1.1409,-1.1409,-1.1409,-0.6729,-0.5196,-0.3919,-0.3802,-0.3802,-0.3802,-0.3802,-0.3214,-0.2668,0.0,-0.2668,-0.2668,-0.2707,-0.2117,-0.1645,-0.1645,-0.1645,-0.1645,-0.1645,-0.1645,-0.192,-0.2627,-0.2707,0.0,0.0,0.0,0.0,0.0,-0.4345,-0.446,-0.4538,-0.4577,-0.4538,-0.4462,-0.4538,-0.4577,-0.4462,-0.4462,-0.4423,-0.4423,-0.4423,-0.4423,-0.4462,-0.4577,-0.4813,-0.5124,-0.5699,-0.5738,-0.5467,-0.6237,-0.6318,-0.6005,-0.5931,-0.5625,-0.5356,-0.6367,-0.6093,-0.5318,-0.5938,-0.5819,-0.5312,-0.4846,-0.473,-0.4846,-0.5544,-0.5273,-0.4846,-0.558,-0.5774,-0.5622,-0.4963,-0.5196,-0.5467,-0.481,-0.4732,-0.4927,-0.5246,-0.5896,-0.6356,-0.6356,-0.708,-0.7655,-0.7655,-0.7732,-0.8037,-0.8737,-0.8856,-0.9122,-0.9803,-0.9884,-0.9884,-0.9884,-0.9884,-0.9884,-0.9884,-0.9884,-0.9884,-0.9884,-0.9884,-0.9884,-0.9884,-0.9884,-0.9992,-1.0143,-1.0143,-1.0143,-1.0143,-1.0143,-1.0143,-1.0143,-1.0143,-1.0143,-0.6231,-0.4768,-0.3802,-0.3802,-0.3802,-0.3684,-0.3176,-0.2785,-0.2353,-0.1921,-0.145,-0.1254,-0.1724,-0.1528,-0.1293,-0.1293,-0.1293,-0.1293,-0.1293,-0.1293,-0.145,-0.1803,-0.1842,0.0,0.0,0.0,0.0,0.0,-0.3997,-0.4075,-0.4075,-0.4075,-0.4114,-0.4233,-0.4233,-0.427,-0.4384,-0.3795,-0.3444,-0.3329,-0.3839,-0.4114,-0.4233,-0.4114,-0.4231,-0.454,-0.5043,-0.5157,-0.504,-0.5622,-0.5777,-0.5583,-0.5583,-0.5664,-0.5825,-0.6405,-0.6444,-0.6209,-0.5857,-0.5547,-0.5198,-0.4345,-0.4075,-0.4114,-0.4501,-0.4345,-0.4151,-0.4499,-0.4577,-0.454,-0.4309,-0.4504,-0.4696,-0.4462,-0.4384,-0.4462,-0.4621,-0.5046,-0.5509,-0.6086,-0.6507,-0.6927,-0.7425,-0.7502,-0.777,-0.8585,-0.8703,-0.9008,-0.9809,-0.9884,-0.9884,-0.9884,-0.9884,-0.9884,-0.9884,-0.9884,-0.9884,-0.9884,-0.9884,-0.9884,-0.9884,-0.9884,-0.9884,-0.9884,-0.9884,-0.9884,-0.9884,-0.9884,-0.9884,-0.9884,-0.9884,-0.9884,-0.6046,-0.473,-0.3882,-0.3802,-0.3645,-0.3294,-0.2668,0.0,-0.1685,0.0,-0.0274,0.0118,-0.051,-0.0627,-0.0627,-0.0627,-0.0627,-0.0627,-0.0627,-0.0627,-0.0705,-0.094,-0.0979,-0.1293,0.0,0.0,0.0,0.0,-0.3684,-0.3802,-0.3802,-0.3802,-0.3882,-0.3999,-0.404,-0.4077,-0.4229,-0.3444,-0.2978,-0.2823,-0.3489,-0.3882,-0.3999,-0.3882,-0.3958,-0.4268,-0.4577,-0.4693,-0.4732,-0.5004,-0.516,-0.516,-0.516,-0.5431,-0.5902,-0.6057,-0.6286,-0.6437,-0.5661,-0.5276,-0.5004,-0.4112,-0.3802,-0.3802,-0.3802,-0.3802,-0.3802,-0.3802,-0.3802,-0.3841,-0.3999,-0.404,-0.4077,-0.4231,-0.4229,-0.4268,-0.4384,-0.4501,-0.4854,-0.5586,-0.5738,-0.5967,-0.6619,-0.6692,-0.7042,-0.8008,-0.8161,-0.8542,-0.962,-0.9733,-0.9733,-0.9733,-0.9846,-0.9803,-0.9614,-0.9765,-0.9841,-0.9771,-0.9846,-0.9884,-0.9884,-0.9884,-0.9884,-0.9884,-0.9884,-0.9884,-0.9884,-0.9884,-0.9884,-0.9884,-0.9884,-0.9884,-0.6353,-0.5124,-0.404,-0.3843,-0.3176,-0.255,-0.2511,0.0,-0.0117,-0.0078,0.0628,0.1218,0.1178,0.1178,0.1178,0.1178,0.1178,0.1178,0.1178,0.1178,0.0863,0.0039,-0.0078,-0.0392,0.0,0.0,0.0,0.0,-0.3333,-0.3802,-0.3802,-0.3802,-0.3802,-0.3802,-0.3802,-0.3802,-0.3841,-0.3763,-0.3763,-0.3724,-0.3763,-0.3802,-0.3802,-0.3802,-0.3802,-0.3841,-0.3841,-0.388,-0.388,-0.388,-0.388,-0.388,-0.388,-0.3919,-0.3997,-0.4582,-0.4465,-0.4075,-0.4582,-0.4387,-0.388,-0.3802,-0.3802,-0.3802,-0.3802,-0.3802,-0.3802,-0.3802,-0.3802,-0.3802,-0.3802,-0.3802,-0.3802,-0.3841,-0.3841,-0.3919,-0.4307,-0.4423,-0.4423,-0.4501,-0.4499,-0.4499,-0.4538,-0.4577,-0.504,-0.6426,-0.6619,-0.7272,-0.9089,-0.9322,-0.9322,-0.9322,-0.9657,-0.9576,-0.8818,-0.9463,-0.9733,-0.9359,-0.9695,-0.9884,-0.9884,-0.9884,-0.9884,-0.9884,-0.9884,-0.9884,-0.9884,-0.9884,-0.9884,-0.9884,-0.9884,-0.9884,-0.7046,-0.589,-0.4732,-0.4155,-0.3255,-0.2353,-0.1843,-0.0823,0.0157,0.0706,0.1099,0.1296,0.1296,0.1296,0.1296,0.1296,0.1296,0.1296,0.1296,0.1296,0.1178,0.0863,0.0824,0.051,0.0,0.0,0.0,0.0,0.0,-0.3215,-0.3763,-0.3802,-0.3802,-0.3802,-0.3802,-0.3528,-0.2979,-0.3528,-0.3528,-0.2979,-0.3528,-0.3802,-0.3802,-0.3802,-0.3802,-0.3802,-0.3802,-0.3802,-0.3802,-0.3802,-0.3802,-0.3841,-0.4231,-0.4389,-0.4465,-0.5046,-0.516,-0.4927,-0.4776,-0.4545,-0.4309,-0.3919,-0.3802,-0.3802,-0.3802,-0.3802,-0.3802,-0.3802,-0.3802,-0.3802,-0.3802,-0.3802,-0.3802,-0.3802,-0.3802,-0.3841,-0.3997,-0.4229,-0.4384,-0.4384,-0.4384,-0.4384,-0.4384,-0.4384,-0.4732,-0.5774,-0.5928,-0.6349,-0.754,-0.7693,-0.7693,-0.7693,-0.8199,-0.8432,-0.8165,-0.8737,-0.9084,-0.8932,-0.9046,-0.9122,-0.9122,-0.9392,-0.9511,-0.9511,-0.9771,-0.9884,-0.9884,-0.9884,-0.9884,-0.9884,-0.9884,-0.9884,-0.7506,-0.6314,-0.5193,-0.4311,-0.3096,-0.196,-0.1411,-0.0392,0.0588,0.1178,0.1296,0.1296,0.1296,0.1296,0.1296,0.1296,0.1296,0.1296,0.1296,0.1296,0.1296,0.1296,0.1296,0.106,0.0,0.0,0.0,0.0,0.0,0.0,-0.3333,-0.3645,-0.3802,-0.3802,-0.3802,-0.3528,-0.2942,-0.3528,-0.3528,-0.2942,-0.3528,-0.3802,-0.3802,-0.3802,-0.3802,-0.3802,-0.3802,-0.3802,-0.3802,-0.3802,-0.3802,-0.3841,-0.4231,-0.4387,-0.4465,-0.4849,-0.5004,-0.4927,-0.4543,-0.4387,-0.4348,-0.3919,-0.3802,-0.3802,-0.3802,-0.3802,-0.3802,-0.3802,-0.3802,-0.3802,-0.3802,-0.3802,-0.3802,-0.3802,-0.3802,-0.3802,-0.3802,-0.3997,-0.419,-0.419,-0.419,-0.419,-0.419,-0.419,-0.4462,-0.5198,-0.5315,-0.5622,-0.65,-0.6615,-0.6692,-0.6923,-0.7468,-0.7783,-0.7706,-0.8318,-0.8546,-0.8203,-0.8318,-0.828,-0.808,-0.8313,-0.8466,-0.8466,-0.8727,-0.8879,-0.8879,-0.9571,-0.9884,-0.9884,-0.9884,-0.9884,0.0,0.0,0.0,-0.4389,-0.2741,-0.1332,-0.1293,0.0,0.1257,0.1296,0.1296,0.1296,0.1296,0.1296,0.1296,0.1296,0.1296,0.1296,0.1296,0.1296,0.1296,0.1296,0.1296,0.1296,0.1296,0.0,0.0,0.0,-0.1528,-0.247,-0.2511,-0.3333,-0.3802,-0.3802,-0.3802,-0.3802,-0.3802,-0.3802,-0.3802,-0.3802,-0.3802,-0.3802,-0.3802,-0.3802,-0.3802,-0.3802,-0.3802,-0.3802,-0.3802,-0.3802,-0.3802,-0.3802,-0.3802,-0.3802,-0.3802,-0.3802,-0.3802,-0.3802,-0.3802,-0.3802,-0.3802,-0.3802,-0.3802,-0.3802,-0.3802,-0.3802,-0.3802,-0.3802,-0.3802,-0.3802,-0.3802,-0.3802,-0.3802,-0.3802,-0.3802,-0.3802,-0.3802,-0.3802,-0.3802,-0.3802,-0.3802,-0.3802,-0.3802,-0.3802,-0.3997,-0.4582,-0.4659,-0.5007,-0.6009,-0.6125,-0.6395,-0.7046,-0.7472,-0.7629,-0.7442,-0.8165,-0.8199,-0.7203,-0.751,-0.7429,-0.6804,-0.6765,-0.6765,-0.6765,-0.6804,-0.6804,-0.6804,-0.8841,-0.9841,-0.9841,-0.9841,-0.9884,-0.8694,0.0,0.0,0.0,0.0,0.0,0.0,0.0,0.0549,0.1178,0.1296,0.1296,0.1296,0.1296,0.1296,0.1296,0.1296,0.1296,0.1296,0.1296,0.1296,0.1296,0.1296,0.1296,0.1296,0.0,0.0,0.0,-0.1019,-0.1882,-0.247,-0.3333,-0.3802,-0.3802,-0.3802,-0.3802,-0.3802,-0.3802,-0.3802,-0.3802,-0.3802,-0.3802,-0.3802,-0.3802,-0.3802,-0.3802,-0.3802,-0.3802,-0.3802,-0.3802,-0.3802,-0.3802,-0.3802,-0.3802,-0.3802,-0.3802,-0.3802,-0.3802,-0.3802,-0.3802,-0.3802,-0.3802,-0.3802,-0.3802,-0.3802,-0.3802,-0.3802,-0.3802,-0.3802,-0.3802,-0.3802,-0.3802,-0.3802,-0.3802,-0.3802,-0.3802,-0.3802,-0.3802,-0.3802,-0.3802,-0.3802,-0.3802,-0.3802,-0.3802,-0.3841,-0.4036,-0.4036,-0.4153,-0.4423,-0.4462,-0.454,-0.4732,-0.5237,-0.555,-0.5473,-0.6086,-0.6353,-0.6044,-0.6163,-0.6121,-0.5928,-0.6198,-0.6353,-0.6353,-0.6654,-0.6804,-0.6804,-0.7851,-0.8394,-0.8394,-0.8813,-0.9046,-0.9155,-0.8199,-0.7387,-0.6041,0.0,0.0,-0.2152,-0.1214,-0.0392,0.0,0.051,0.0746,0.0746,0.106,0.1296,0.1296,0.1296,0.1296,0.1296,0.1296,0.1296,0.1296,0.1296,0.1296,0.1296,0.1296,0.1099,0.0588,-0.0274,-0.1254,-0.2431,-0.3333,-0.3802,-0.3802,-0.3802,-0.3802,-0.3802,-0.3802,-0.3802,-0.3802,-0.3802,-0.3802,-0.3802,-0.3802,-0.3802,-0.3802,-0.3802,-0.3802,-0.3802,-0.3802,-0.3802,-0.3802,-0.3802,-0.3802,-0.3802,-0.3802,-0.3802,-0.3802,-0.3802,-0.3802,-0.3802,-0.3802,-0.3802,-0.3802,-0.3802,-0.3802,-0.3802,-0.3802,-0.3802,-0.3802,-0.3802,-0.3802,-0.3802,-0.3802,-0.3802,-0.3802,-0.3802,-0.3802,-0.3802,-0.3802,-0.3802,-0.3802,-0.3802,-0.3802,-0.3802,-0.3802,-0.3802,-0.3802,-0.3802,-0.3802,-0.388,-0.4153,-0.4504,-0.4815,-0.5046,-0.5392,-0.5506,-0.5237,-0.5237,-0.5121,-0.4849,-0.5082,-0.5198,-0.5198,-0.5422,-0.5806,-0.6307,-0.7314,-0.7936,-0.8203,-0.8551,-0.8703,-0.9453,-0.8732,-0.8147,-0.6573,-0.5223,0.0,-0.3127,-0.2152,-0.141,0.0,-0.0587,0.0,0.0,0.0706,0.1296,0.1296,0.1296,0.1296,0.1296,0.1296,0.1296,0.1296,0.1296,0.1296,0.1296,0.1296,0.1296,0.1296,0.0392,-0.0823,-0.2431,-0.3333,-0.3802,-0.3802,-0.3802,-0.3802,-0.3802,-0.3802,-0.3802,-0.3802,-0.3802,-0.3802,-0.3802,-0.3802,-0.3802,-0.3802,-0.3802,-0.3802,-0.3802,-0.3802,-0.3802,-0.3802,-0.3802,-0.3802,-0.3802,-0.3802,-0.3802,-0.3802,-0.3802,-0.3802,-0.3802,-0.3802,-0.3802,-0.3802,-0.3802,-0.3802,-0.3802,-0.3802,-0.3802,-0.3802,-0.3802,-0.3802,-0.3802,-0.3802,-0.3802,-0.3802,-0.3802,-0.3802,-0.3802,-0.3802,-0.3802,-0.3802,-0.3802,-0.3802,-0.3802,-0.3802,-0.3802,-0.3802,-0.3802,-0.3802,-0.3997,-0.4545,-0.4582,-0.4813,-0.5351,-0.5389,-0.516,-0.4621,-0.4582,-0.4348,-0.3841,-0.3802,-0.3802,-0.3802,-0.388,-0.4462,-0.5622,-0.6934,-0.7897,-0.8546,-0.8546,-0.8546,0.0,0.0,0.0,0.0,0.0,0.0,-0.4018,-0.2973,-0.2078,0.0,-0.0587,0.0,0.0,0.0706,0.1296,0.1296,0.1296,0.1296,0.1296,0.1296,0.1296,0.1296,0.1296,0.1296,0.1296,0.1296,0.1296,0.1296,-0.0157,-0.1489,-0.2431,-0.3333,-0.3802,-0.3802,-0.3802,-0.3802,-0.3802,-0.3802,-0.3802,-0.3802,-0.3802,-0.3802,-0.3802,-0.3802,-0.3802,-0.3802,-0.3802,-0.3802,-0.3802,-0.3802,-0.3802,-0.3802,-0.3802,-0.3802,-0.3802,-0.3802,-0.3802,-0.3802,-0.3802,-0.3802,-0.3802,-0.3802,-0.3802,-0.3802,-0.3802,-0.3802,-0.3802,-0.3802,-0.3802,-0.3802,-0.3802,-0.3802,-0.3802,-0.3802,-0.3802,-0.3802,-0.3802,-0.3802,-0.3802,-0.3802,-0.3802,-0.3802,-0.3802,-0.3802,-0.3802,-0.3802,-0.3802,-0.3802,-0.3802,-0.3802,-0.3841,-0.3958,-0.3958,-0.4036,-0.4151,-0.4151,-0.4112,-0.3997,-0.3958,-0.3919,-0.3802,-0.3802,-0.3802,-0.3802,-0.427,-0.489,-0.5583,-0.5893,-0.6626,-0.7748,-0.7748,-0.7748,0.0,0.0,0.0,-0.8841,0.0,0.0,0.0,-0.4336,-0.3638,-0.2741,-0.1842,-0.1136,-0.0705,0.0078,0.0785,0.1218,0.1296,0.1296,0.1296,0.1296,0.1296,0.1296,0.1296,0.1296,0.1296,0.1296,0.1296,0.1296,0.0078,-0.1019,-0.1843,-0.2705,-0.3333,-0.3802,-0.3802,-0.3802,-0.3802,-0.3802,-0.3802,-0.3802,-0.3802,-0.3802,-0.3802,-0.3802,-0.3802,-0.3802,-0.3802,-0.3802,-0.3802,-0.3802,-0.3802,-0.3802,-0.3802,-0.3802,-0.3802,-0.3802,-0.3802,-0.3802,-0.3802,-0.3802,-0.3802,-0.3802,-0.3802,-0.3802,-0.3802,-0.3802,-0.3802,-0.3802,-0.3802,-0.3802,-0.3802,-0.3802,-0.3802,-0.3802,-0.3802,-0.3802,-0.3802,-0.3802,-0.3802,-0.3802,-0.3802,-0.3802,-0.3802,-0.3802,-0.3802,-0.3802,-0.3802,-0.3802,-0.3802,-0.3802,-0.3802,-0.3802,-0.3802,-0.3802,-0.3802,-0.3802,-0.3802,-0.3802,-0.3802,-0.3802,-0.3802,-0.3802,-0.3802,-0.3802,-0.4387,-0.4854,-0.5162,-0.5783,-0.6595,-0.7484,-0.7484,-0.7484,0.0,0.0,0.0,0.0,0.0,-0.7999,0.0,0.0,0.0,-0.4151,-0.3175,-0.2314,-0.1646,0.0,0.0,0.0,0.0,0.0,0.0,0.1375,0.0,0.1375,0.1335,0.1296,0.1336,0.1375,0.1335,0.1296,0.051,-0.0352,-0.1254,-0.2078,-0.2902,-0.3763,-0.3802,-0.3802,-0.3802,-0.3802,-0.3802,-0.3802,-0.3802,-0.3802,-0.3802,-0.3802,-0.3802,-0.3802,-0.3802,-0.3802,-0.3802,-0.3802,-0.3802,-0.3802,-0.3802,-0.3802,-0.3802,-0.3802,-0.3802,-0.3802,-0.3802,-0.3802,-0.3802,-0.3802,-0.3802,-0.3802,-0.3802,-0.3802,-0.3802,-0.3802,-0.3802,-0.3802,-0.3802,-0.3802,-0.3802,-0.3802,-0.3802,-0.3802,-0.3802,-0.3802,-0.3802,-0.3802,-0.3802,-0.3802,-0.3802,-0.3802,-0.3802,-0.3802,-0.3802,-0.3802,-0.3802,-0.3802,-0.3802,-0.3802,-0.3802,-0.3802,-0.3802,-0.3802,-0.3802,-0.3802,-0.3802,-0.3802,-0.3802,-0.3919,-0.3958,-0.3958,-0.4582,-0.4932,-0.5049,-0.598,-0.6714,-0.733,-0.7446,-0.7484,0.0,0.0,0.0,0.0,-0.9485,0.0,-0.7663,0.0,-0.5154,-0.4698,0.0,-0.247,-0.2392,0.0,0.0,0.0,0.0,0.0,0.1414,0.1572,0.1572,0.1572,0.1415,0.1375,0.1533,0.1572,0.1493,0.1296,0.0666,-0.0196,-0.1254,-0.2078,-0.2902,-0.3763,-0.3802,-0.3802,-0.3802,-0.3802,-0.3802,-0.3802,-0.3802,-0.3802,-0.3802,-0.3802,-0.3802,-0.3802,-0.3802,-0.3802,-0.3802,-0.3802,-0.3802,-0.3802,-0.3802,-0.3802,-0.3802,-0.3802,-0.3802,-0.3802,-0.3802,-0.3802,-0.3802,-0.3802,-0.3802,-0.3802,-0.3802,-0.3802,-0.3802,-0.3802,-0.3802,-0.3802,-0.3802,-0.3802,-0.3802,-0.3802,-0.3802,-0.3802,-0.3802,-0.3802,-0.3802,-0.3802,-0.3802,-0.3802,-0.3802,-0.3802,-0.3802,-0.3802,-0.3802,-0.3802,-0.3802,-0.3802,-0.3802,-0.3802,-0.3802,-0.3802,-0.3802,-0.3802,-0.3802,-0.3802,-0.3802,-0.3802,-0.3802,-0.4309,-0.4582,-0.4582,-0.5198,-0.578,-0.6367,-0.5935,-0.6051,-0.6714,-0.7253,-0.7484,0.0,0.0,0.0,0.0,0.0,0.0,-0.8309,0.0,-0.6507,0.0,0.0,0.0,0.0,0.0,0.0,0.0,-0.0313,0.0,0.0,0.0,0.165,0.0,0.0,0.0,0.1611,0.0,0.0,0.0,0.1139,0.0588,-0.047,-0.1332,-0.2195,-0.302,-0.3528,-0.3802,-0.3802,-0.3802,-0.3802,-0.3802,-0.3802,-0.3802,-0.3802,-0.3802,-0.3802,-0.3802,-0.3802,-0.3802,-0.3802,-0.3802,-0.3802,-0.3802,-0.3802,-0.3802,-0.3802,-0.3802,-0.3802,-0.3802,-0.3802,-0.3802,-0.3802,-0.3802,-0.3802,-0.3802,-0.3802,-0.3802,-0.3802,-0.3802,-0.3802,-0.3802,-0.3802,-0.3802,-0.3802,-0.3802,-0.3802,-0.3802,-0.3802,-0.3802,-0.3802,-0.3802,-0.3802,-0.3802,-0.3802,-0.3802,-0.3802,-0.3802,-0.3802,-0.3802,-0.3802,-0.3802,-0.3802,-0.3802,-0.3802,-0.3802,-0.3802,-0.3802,-0.3802,-0.3802,-0.3802,-0.3802,-0.3802,-0.4036,-0.4348,-0.4701,-0.4929,-0.5201,-0.5515,-0.5941,-0.5938,-0.5515,-0.6521,-0.7176,-1.2973,0.0,0.0,0.0,0.0,0.0,0.0,0.0,0.0,0.0,0.0,0.0,0.0,0.0,0.0,0.0,0.0,-0.047,0.0,0.0902,0.0,0.0,0.0,0.0,0.0,0.0,0.0,0.0,0.0,0.1099,-0.0274,-0.094,-0.1763,-0.2823,-0.3489,-0.3802,-0.3802,-0.3802,-0.3802,-0.3802,-0.3802,-0.3802,-0.3802,-0.3802,-0.3802,-0.3802,-0.3802,-0.3802,-0.3802,-0.3802,-0.3802,-0.3802,-0.3802,-0.3802,-0.3802,-0.3802,-0.3802,-0.3802,-0.3802,-0.3802,-0.3802,-0.3802,-0.3802,-0.3802,-0.3802,-0.3802,-0.3802,-0.3802,-0.3802,-0.3802,-0.3802,-0.3802,-0.3802,-0.3802,-0.3802,-0.3802,-0.3802,-0.3802,-0.3802,-0.3802,-0.3802,-0.3802,-0.3802,-0.3802,-0.3802,-0.3802,-0.3802,-0.3802,-0.3802,-0.3802,-0.3802,-0.3802,-0.3802,-0.3802,-0.3802,-0.3802,-0.3802,-0.3802,-0.3802,-0.3802,-0.3802,-0.3958,-0.427,-0.4701,-0.4701,-0.4776,-0.4929,-0.555,-0.5515,-0.4968,-0.6251,-0.6984,0.0,0.0,0.0,-1.2562,0.0,0.0,0.0,0.0,-0.8152,0.0,0.0,0.0,0.0,0.0,0.0,-0.2705,0.0,0.0,0.0,0.0,0.0,0.0,0.0,0.0,0.0,0.208,0.0,0.0,0.1768,0.0,-0.1136,-0.1293,-0.2037,-0.3724,-0.3802,-0.3802,-0.3802,-0.3802,-0.3802,-0.3802,-0.3802,-0.3802,-0.3802,-0.3802,-0.3802,-0.3802,-0.3802,-0.3802,-0.3802,-0.3802,-0.3802,-0.3802,-0.3802,-0.3802,-0.3802,-0.3802,-0.3802,-0.3802,-0.3802,-0.3802,-0.3802,-0.3802,-0.3802,-0.3802,-0.3802,-0.3802,-0.3802,-0.3802,-0.3802,-0.3802,-0.3802,-0.3802,-0.3802,-0.3802,-0.3802,-0.3802,-0.3802,-0.3802,-0.3802,-0.3802,-0.3802,-0.3802,-0.3802,-0.3802,-0.3802,-0.3802,-0.3802,-0.3802,-0.3802,-0.3802,-0.3802,-0.3802,-0.3802,-0.3802,-0.3802,-0.3802,-0.3802,-0.3802,-0.3802,-0.3802,-0.3802,-0.4348,-0.4659,-0.4701,-0.4701,-0.4971,-0.5583,-0.4423,-0.4462,-0.5583,-0.6861,-0.7176,0.0,0.0,-1.1484,-1.1892,0.0,0.0,0.0,0.0,0.0,0.0,0.0,0.0,0.0,0.0,-0.4543,-0.4036,-0.3136,0.0,0.0,0.0,0.0,0.0,0.0,0.0,0.0,0.0,0.0,0.0,0.1924,0.0,0.0471,-0.0509,-0.1371,-0.2116,-0.3212,-0.3802,-0.3802,-0.3802,-0.3802,-0.3802,-0.3802,-0.3802,-0.3802,-0.3802,-0.3802,-0.3802,-0.3802,-0.3802,-0.3802,-0.3802,-0.3802,-0.3802,-0.3802,-0.3802,-0.3802,-0.3802,-0.3802,-0.3802,-0.3802,-0.3802,-0.3802,-0.3802,-0.3802,-0.3802,-0.3802,-0.3802,-0.3802,-0.3802,-0.3802,-0.3816,-0.3838,-0.3852,-0.3869,-0.3928,-0.3944,-0.3944,-0.3944,-0.3944,-0.3944,-0.3944,-0.3944,-0.3944,-0.3944,-0.3944,-0.3903,-0.382,-0.3802,-0.3802,-0.3802,-0.3802,-0.3802,-0.3802,-0.3802,-0.3826,-0.3848,-0.391,-0.3944,-0.3944,-0.3944,-0.4076,-0.4449,-0.4644,-0.5125,-0.5941,-0.5126,-0.5007,-0.5583,-0.4774,-0.4387,-0.4421,-0.5661,-0.6363,-1.1706,-1.1409,0.0,-1.1595,-1.126,0.0,-1.1074,0.0,0.0,0.0,0.0,0.0,0.0,0.0,0.0,-0.4779,-0.3917,-0.2978,0.0,-0.0391,0.0,0.0,0.0,0.0,0.0,0.0,0.0,0.1846,0.204,0.1883,0.0,0.0,-0.1135,-0.1605,-0.3056,-0.3802,-0.3802,-0.3802,-0.3802,-0.3802,-0.3802,-0.3802,-0.3802,-0.3802,-0.3802,-0.3802,-0.3802,-0.3802,-0.3802,-0.3802,-0.3802,-0.3802,-0.3802,-0.3802,-0.3802,-0.3802,-0.3802,-0.3802,-0.3802,-0.3802,-0.3802,-0.3802,-0.3802,-0.3802,-0.3802,-0.3826,-0.3851,-0.3851,-0.3836,-0.3873,-0.3932,-0.3948,-0.3963,-0.398,-0.3994,-0.3994,-0.3994,-0.3994,-0.3994,-0.3994,-0.3994,-0.3994,-0.3994,-0.3994,-0.3954,-0.3877,-0.3859,-0.3859,-0.3859,-0.3859,-0.3859,-0.3859,-0.3859,-0.3883,-0.3942,-0.396,-0.4118,-0.4367,-0.4409,-0.4668,-0.5287,-0.5281,-0.5652,-0.645,-0.5414,-0.5034,-0.5381,-0.4718,-0.4189,-0.3802,-0.4616,-0.5315]},{"header":{"parameterUnit":"m.s-1","parameterCategory":1,"la1":30.6,"la2":29.2853,"lo1":-89.7004,"lo2":-87.6739,"dy":0.0162,"dx":0.0183,"nx":112,"ny":82,"refTime":"2023-10-06T06:00:00:Z","depth":0,"parameterNumber":3,"parameterNumberName":"V-component_of_WINDS"},"data":[0.0,0.0,0.0,0.0,0.0,0.0,0.0,0.0,0.0,0.0,0.0,0.0,0.0,0.0,0.0,0.0,0.0,0.0,0.0,0.0,0.0,0.0,0.0,0.0,0.0,0.0,0.0,0.0,0.0,0.0,0.0,0.0,0.0,0.0,0.0,0.0,0.0,0.0,0.0,0.0,0.0,0.0,0.0,0.0,0.0,0.0,0.0,0.0,0.0,0.0,0.0,0.0,0.0,0.0,0.0,0.0,0.0,0.0,0.0,0.0,0.0,0.0,0.0,0.0,0.0,0.0,0.0,0.0,0.0,0.0,0.0,0.0,0.0,0.0,0.0,0.0,0.0,0.0,0.0,0.0,0.0,0.0,0.0,0.0,0.0,0.0,0.0,0.0,0.0,0.0,-1.1063,-1.1063,-1.3649,-1.5394,-1.5394,-1.7,-1.8877,-2.0979,0.0,0.0,0.0,0.0,0.0,0.0,0.0,0.0,0.0,0.0,0.0,0.0,0.0,0.0,0.0,0.0,0.0,0.0,0.0,0.0,0.0,0.0,0.0,0.0,0.0,0.0,0.0,0.0,0.0,0.0,0.0,0.0,0.0,0.0,0.0,0.0,0.0,0.0,0.0,0.0,0.0,0.0,0.0,0.0,0.0,0.0,0.0,0.0,0.0,0.0,0.0,0.0,0.0,0.0,0.0,0.0,0.0,0.0,0.0,0.0,0.0,0.0,0.0,0.0,0.0,0.0,0.0,0.0,0.0,0.0,0.0,0.0,0.0,0.0,0.0,0.0,0.0,0.0,0.0,0.0,0.0,0.0,0.0,0.0,0.0,0.0,0.0,0.0,0.0,0.0,0.0,0.0,0.0,0.0,0.0,0.0,0.0,0.0,0.0,0.0,0.0,0.0,0.0,0.0,-1.0096,-1.0096,-1.3298,-1.5394,-1.5394,-1.7,-1.8877,-2.0979,0.0,0.0,0.0,0.0,0.0,0.0,0.0,0.0,0.0,0.0,0.0,0.0,0.0,0.0,0.0,0.0,0.0,0.0,0.0,0.0,0.0,0.0,0.0,0.0,0.0,0.0,0.0,0.0,0.0,0.0,0.0,0.0,0.0,0.0,0.0,0.0,0.0,0.0,0.0,0.0,0.0,0.0,0.0,0.0,0.0,0.0,0.0,0.0,0.0,0.0,0.0,0.0,0.0,0.0,0.0,0.0,0.0,0.0,0.0,0.0,0.0,0.0,0.0,0.0,0.0,0.0,0.0,0.0,0.0,0.0,0.0,0.0,0.0,0.0,0.0,0.0,0.0,0.0,0.0,0.0,0.0,0.0,0.0,0.0,0.0,0.0,0.0,0.0,0.0,0.0,0.0,0.0,0.0,0.0,0.0,0.0,0.0,0.0,0.0,0.0,0.0,0.0,0.0,-1.0626,-1.0448,-0.9966,-1.3207,-1.5394,-1.5394,-1.7,-1.8877,-2.0979,-2.1094,0.0,0.0,0.0,0.0,0.0,0.0,0.0,0.0,0.0,0.0,0.0,0.0,0.0,0.0,0.0,0.0,0.0,0.0,0.0,0.0,0.0,0.0,0.0,0.0,0.0,0.0,0.0,0.0,0.0,0.0,0.0,0.0,0.0,0.0,0.0,0.0,0.0,0.0,0.0,0.0,0.0,0.0,0.0,0.0,0.0,0.0,0.0,0.0,0.0,0.0,0.0,0.0,0.0,0.0,0.0,0.0,0.0,0.0,0.0,0.0,0.0,0.0,0.0,0.0,0.0,0.0,0.0,0.0,0.0,0.0,0.0,0.0,0.0,0.0,0.0,0.0,0.0,0.0,0.0,0.0,0.0,0.0,0.0,0.0,0.0,0.0,0.0,0.0,0.0,0.0,0.0,0.0,0.0,0.0,0.0,0.0,0.0,0.0,0.0,0.0,0.0,0.0,-1.0669,-1.0799,-1.0274,-1.3341,-1.5394,-1.5394,-1.7,-1.8877,-2.0979,-2.1094,0.0,0.0,0.0,0.0,0.0,0.0,0.0,0.0,0.0,0.0,0.0,0.0,0.0,0.0,0.0,0.0,0.0,0.0,0.0,0.0,0.0,0.0,0.0,0.0,0.0,0.0,0.0,0.0,0.0,0.0,0.0,0.0,0.0,0.0,0.0,0.0,0.0,0.0,0.0,0.0,0.0,0.0,0.0,0.0,0.0,0.0,0.0,0.0,0.0,0.0,0.0,0.0,0.0,0.0,0.0,0.0,0.0,0.0,0.0,0.0,0.0,0.0,0.0,0.0,0.0,0.0,0.0,0.0,0.0,0.0,0.0,0.0,0.0,0.0,0.0,0.0,0.0,0.0,0.0,0.0,0.0,0.0,0.0,0.0,0.0,0.0,0.0,0.0,0.0,0.0,0.0,0.0,0.0,0.0,0.0,0.0,0.0,0.0,0.0,0.0,0.0,0.0,-1.0491,-1.0318,-1.1106,-1.374,-1.5394,-1.5394,-1.7,-1.8877,-2.0979,-2.1094,0.0,0.0,0.0,0.0,0.0,0.0,0.0,0.0,0.0,0.0,0.0,0.0,0.0,0.0,0.0,0.0,0.0,0.0,0.0,0.0,0.0,0.0,0.0,0.0,0.0,0.0,0.0,0.0,0.0,0.0,0.0,0.0,0.0,0.0,0.0,0.0,0.0,0.0,0.0,0.0,0.0,0.0,0.0,0.0,0.0,0.0,0.0,0.0,0.0,0.0,0.0,0.0,0.0,0.0,0.0,0.0,0.0,0.0,0.0,0.0,0.0,0.0,0.0,0.0,0.0,0.0,0.0,0.0,0.0,0.0,0.0,0.0,0.0,0.0,0.0,0.0,0.0,0.0,0.0,0.0,0.0,0.0,0.0,0.0,0.0,0.0,0.0,0.0,0.0,0.0,0.0,0.0,0.0,0.0,0.0,0.0,0.0,0.0,0.0,0.0,0.0,0.0,-1.1488,-1.1789,0.0,-1.4119,-1.5643,-1.6165,-1.7326,-1.8877,-2.0979,0.0,0.0,0.0,0.0,0.0,0.0,0.0,0.0,0.0,0.0,0.0,0.0,0.0,0.0,0.0,0.0,0.0,0.0,0.0,0.0,0.0,0.0,0.0,0.0,0.0,0.0,0.0,0.0,0.0,0.0,0.0,0.0,0.0,0.0,0.0,0.0,0.0,0.0,0.0,0.0,0.0,0.0,0.0,0.0,0.0,0.0,0.0,0.0,0.0,0.0,0.0,0.0,0.0,0.0,0.0,0.0,0.0,0.0,0.0,0.0,0.0,0.0,0.0,0.0,0.0,0.0,0.0,0.0,0.0,0.0,0.0,0.0,0.0,0.0,0.0,0.0,0.0,0.0,0.0,0.0,0.0,0.0,0.0,0.0,0.0,0.0,0.0,0.0,0.0,0.0,0.0,0.0,0.0,0.0,0.0,0.0,0.0,0.0,0.0,0.0,0.0,0.0,-1.1843,-1.2057,-1.2479,0.0,-1.4461,-1.576,-1.6617,-1.7489,-1.8838,-2.0797,0.0,0.0,0.0,0.0,0.0,0.0,0.0,0.0,0.0,0.0,0.0,0.0,0.0,0.0,0.0,0.0,0.0,0.0,0.0,0.0,0.0,0.0,0.0,0.0,0.0,0.0,0.0,0.0,0.0,0.0,0.0,0.0,0.0,0.0,0.0,0.0,0.0,0.0,0.0,0.0,0.0,0.0,0.0,0.0,0.0,0.0,0.0,0.0,0.0,0.0,0.0,0.0,0.0,0.0,0.0,0.0,0.0,0.0,0.0,0.0,0.0,0.0,0.0,0.0,0.0,0.0,0.0,0.0,0.0,0.0,0.0,0.0,0.0,0.0,0.0,0.0,0.0,0.0,0.0,0.0,0.0,0.0,0.0,0.0,0.0,0.0,0.0,0.0,0.0,0.0,0.0,0.0,0.0,0.0,0.0,0.0,0.0,0.0,0.0,0.0,0.0,0.0,-1.2705,-1.1886,-1.2003,-1.3831,-1.4845,-1.576,-1.6657,-1.7489,-1.8727,0.0,0.0,0.0,0.0,0.0,0.0,0.0,0.0,0.0,0.0,0.0,0.0,0.0,0.0,0.0,0.0,0.0,0.0,0.0,0.0,0.0,0.0,0.0,0.0,0.0,0.0,0.0,0.0,0.0,0.0,0.0,0.0,0.0,0.0,0.0,0.0,0.0,0.0,0.0,0.0,0.0,0.0,0.0,0.0,0.0,0.0,0.0,0.0,0.0,0.0,0.0,0.0,0.0,0.0,0.0,0.0,0.0,0.0,0.0,0.0,0.0,0.0,0.0,0.0,0.0,0.0,0.0,0.0,0.0,0.0,0.0,0.0,0.0,0.0,0.0,0.0,0.0,0.0,0.0,0.0,0.0,0.0,0.0,0.0,0.0,0.0,0.0,0.0,0.0,0.0,0.0,0.0,0.0,0.0,0.0,0.0,0.0,0.0,0.0,0.0,0.0,0.0,0.0,-1.3626,-1.3366,-1.3662,-1.4845,-1.5794,-1.6665,-1.7538,-1.7829,-1.8727,-2.0382,0.0,0.0,0.0,0.0,0.0,0.0,0.0,0.0,0.0,0.0,0.0,0.0,0.0,0.0,0.0,0.0,0.0,0.0,0.0,0.0,0.0,0.0,0.0,0.0,0.0,0.0,0.0,0.0,0.0,0.0,0.0,0.0,0.0,0.0,0.0,0.0,0.0,0.0,0.0,0.0,0.0,0.0,0.0,0.0,0.0,0.0,0.0,0.0,0.0,0.0,0.0,0.0,0.0,0.0,0.0,0.0,0.0,0.0,0.0,0.0,0.0,0.0,0.0,0.0,0.0,0.0,0.0,0.0,0.0,0.0,0.0,0.0,0.0,0.0,0.0,0.0,0.0,0.0,0.0,0.0,0.0,0.0,0.0,0.0,0.0,0.0,0.0,0.0,0.0,0.0,0.0,0.0,0.0,0.0,0.0,0.0,0.0,0.0,0.0,0.0,0.0,0.0,-1.4041,-1.3999,-1.4378,-1.5311,-1.6165,-1.7033,-1.791,-1.8241,-1.8935,-2.0197,0.0,0.0,0.0,0.0,0.0,0.0,0.0,0.0,0.0,0.0,0.0,0.0,0.0,0.0,0.0,0.0,0.0,0.0,0.0,0.0,0.0,0.0,0.0,0.0,0.0,0.0,0.0,0.0,0.0,0.0,0.0,0.0,0.0,0.0,0.0,0.0,0.0,0.0,0.0,0.0,0.0,0.0,0.0,0.0,0.0,0.0,0.0,0.0,0.0,0.0,0.0,0.0,0.0,0.0,0.0,0.0,0.0,0.0,0.0,0.0,0.0,0.0,0.0,0.0,0.0,0.0,0.0,0.0,0.0,0.0,0.0,0.0,0.0,0.0,0.0,0.0,0.0,0.0,0.0,0.0,0.0,0.0,0.0,0.0,0.0,0.0,0.0,0.0,0.0,0.0,0.0,0.0,0.0,0.0,0.0,0.0,0.0,0.0,0.0,0.0,0.0,0.0,-1.4378,-1.4252,-1.4587,-1.5436,-1.6288,-1.7155,-1.791,-1.8594,-1.9262,-1.9864,0.0,0.0,0.0,0.0,0.0,0.0,0.0,0.0,0.0,0.0,0.0,0.0,0.0,0.0,0.0,0.0,0.0,0.0,0.0,0.0,0.0,0.0,0.0,0.0,0.0,0.0,0.0,0.0,0.0,0.0,0.0,0.0,0.0,0.0,0.0,0.0,0.0,0.0,0.0,0.0,0.0,0.0,0.0,0.0,0.0,0.0,0.0,0.0,0.0,0.0,0.0,0.0,0.0,0.0,0.0,0.0,0.0,0.0,0.0,0.0,-0.8682,0.0,0.0,0.0,0.0,0.0,0.0,0.0,0.0,0.0,0.0,0.0,0.0,0.0,0.0,0.0,0.0,0.0,0.0,0.0,0.0,0.0,0.0,0.0,0.0,0.0,0.0,0.0,0.0,0.0,0.0,0.0,0.0,0.0,0.0,0.0,0.0,0.0,0.0,0.0,0.0,0.0,-1.6157,-1.6116,-1.6198,-1.6412,-1.7204,-1.7789,-1.8,-1.8594,-1.9262,-1.9864,-2.158,0.0,0.0,0.0,0.0,0.0,0.0,0.0,0.0,0.0,0.0,0.0,0.0,0.0,0.0,0.0,0.0,0.0,0.0,0.0,0.0,0.0,0.0,0.0,0.0,0.0,0.0,0.0,0.0,0.0,0.0,0.0,0.0,0.0,0.0,0.0,0.0,0.0,0.0,0.0,0.0,0.0,0.0,0.0,0.0,0.0,0.0,0.0,0.0,0.0,0.0,0.0,0.0,0.0,0.0,0.0,0.0,0.0,0.0,0.0,0.0,-0.8925,0.0,0.0,0.0,0.0,0.0,0.0,0.0,0.0,0.0,0.0,0.0,0.0,0.0,0.0,0.0,0.0,0.0,0.0,0.0,0.0,0.0,0.0,0.0,0.0,0.0,0.0,0.0,0.0,0.0,0.0,0.0,0.0,0.0,0.0,0.0,0.0,0.0,0.0,0.0,0.0,-1.6698,-1.6535,-1.6501,-1.6698,-1.7489,-1.8,-1.8,-1.8865,-1.9559,-1.9904,-2.1611,0.0,0.0,0.0,0.0,0.0,0.0,0.0,0.0,0.0,0.0,0.0,0.0,0.0,0.0,0.0,0.0,0.0,0.0,0.0,0.0,0.0,0.0,0.0,0.0,0.0,0.0,0.0,0.0,0.0,0.0,0.0,0.0,0.0,0.0,0.0,0.0,0.0,0.0,0.0,0.0,0.0,0.0,0.0,0.0,0.0,0.0,0.0,0.0,0.0,0.0,0.0,0.0,0.0,-0.6413,-0.6457,-0.72,-0.72,-0.6766,-0.6071,-0.7746,-0.7965,-0.7339,-1.072,0.0,0.0,0.0,0.0,0.0,0.0,0.0,0.0,0.0,0.0,0.0,0.0,0.0,0.0,0.0,0.0,0.0,0.0,0.0,0.0,0.0,0.0,0.0,0.0,-1.388,-1.4006,0.0,0.0,0.0,0.0,0.0,0.0,0.0,0.0,0.0,0.0,0.0,0.0,-1.6665,-1.6419,-1.6345,-1.6788,-1.7456,-1.7919,-1.7991,-1.9094,-1.9786,-1.9894,-2.1603,-2.2729,0.0,0.0,0.0,0.0,0.0,0.0,0.0,0.0,0.0,0.0,0.0,0.0,0.0,0.0,0.0,0.0,0.0,0.0,0.0,0.0,0.0,0.0,0.0,0.0,0.0,0.0,0.0,0.0,0.0,0.0,0.0,0.0,-0.0939,-0.0939,0.0,0.0,0.0,0.0,0.0,0.0,0.0,0.0,0.0,0.0,0.0,0.0,0.0,-0.4778,-0.4585,-0.4721,-0.4759,-0.4741,-0.4652,-0.4652,-0.4741,-0.4741,-0.501,-0.5547,-0.6384,0.0,-0.7254,-0.8948,0.0,0.0,0.0,0.0,0.0,0.0,0.0,0.0,0.0,0.0,0.0,0.0,0.0,0.0,0.0,0.0,0.0,0.0,0.0,0.0,0.0,0.0,-1.3392,-1.3476,-1.3476,-1.3519,0.0,-1.5061,-1.6312,-1.5869,-1.5779,0.0,0.0,0.0,0.0,0.0,0.0,0.0,-1.673,-1.6648,-1.6812,-1.727,-1.7392,-1.7635,-1.7951,-1.8674,-1.9341,-1.9864,-2.0692,-2.1749,-2.2964,-2.2327,0.0,0.0,0.0,0.0,0.0,0.0,0.0,0.0,0.0,0.0,0.0,0.0,0.0,0.0,0.0,0.0,0.0,0.0,0.0,0.0,0.0,0.0,0.0,0.0,0.0,0.0,0.0,0.0,0.0,-0.0403,-0.0313,-0.085,-0.1835,-0.2867,0.0,0.0,0.0,0.0,0.0,0.0,0.0,0.0,0.0,-0.4498,-0.4499,-0.443,-0.43,-0.4433,-0.4433,-0.43,-0.43,-0.43,-0.43,-0.43,-0.4701,-0.5416,-0.6121,-0.6735,-0.7438,-0.9135,-1.0433,-1.1429,0.0,0.0,0.0,0.0,-1.4524,-1.4957,-1.4657,-1.4831,0.0,-1.4908,0.0,0.0,0.0,0.0,0.0,0.0,0.0,0.0,0.0,0.0,-1.3851,-1.3476,-1.3688,-1.3977,-1.3977,-1.5033,-1.5865,0.0,-1.5379,-1.5711,-1.6796,0.0,0.0,0.0,0.0,-1.6656,-1.6689,-1.6492,-1.6533,-1.6943,-1.7456,-1.7813,-1.7974,-1.9063,-1.9824,-2.0128,-2.0722,-2.1349,-2.1949,-2.1655,-2.1617,0.0,0.0,0.0,0.0,0.0,0.0,0.0,0.0,0.0,0.0,0.0,0.0,0.0,0.0,0.0,0.0,0.0,0.0,0.0,0.0,0.0,0.0,0.0,0.0,0.0,0.0,0.0,0.0,0.0718,0.0628,-0.0179,-0.1118,-0.2134,0.0,0.0,0.0,0.0,0.0,0.0,-0.3451,-0.4155,-0.4506,-0.439,-0.4346,-0.43,-0.43,-0.43,-0.43,-0.43,-0.43,-0.43,-0.43,-0.43,-0.4788,-0.568,-0.6166,-0.6915,-0.7889,-0.9279,-1.0058,-1.0399,-1.1515,-1.2547,-1.3408,-1.3578,-1.4097,-1.465,-1.4307,-1.4531,-1.4957,-1.4657,0.0,-1.5389,-1.5389,0.0,0.0,0.0,0.0,-1.5298,-1.4783,-1.465,-1.4524,-1.4026,-1.4482,-1.4936,-1.4692,-1.52,-1.5575,0.0,-1.4936,-1.5304,-1.6599,0.0,0.0,0.0,0.0,-1.617,-1.6327,-1.6128,-1.6087,-1.6492,-1.7326,-1.7876,-1.7997,-1.9253,-2.0108,-2.0303,-2.0741,-2.1051,-2.1205,-2.1205,-2.1205,-2.1205,0.0,0.0,0.0,0.0,0.0,0.0,0.0,0.0,0.0,0.0,0.0,0.0,0.0,0.0,0.0,0.0,0.0,0.0,0.0,0.0,0.0,0.0,0.0,0.0,0.0,0.0,0.0,0.0,0.0,0.2064,0.1164,0.0,0.0,0.0,0.0,-0.3046,-0.3095,-0.3525,-0.4484,-0.4445,-0.4394,-0.4388,-0.4346,-0.43,-0.43,-0.43,-0.43,-0.43,-0.43,-0.43,-0.43,-0.43,-0.5053,-0.6343,-0.6384,-0.7231,-0.8564,-0.8652,-0.9336,-1.0399,-1.1343,-1.2419,-1.3493,-1.4097,-1.4482,-1.465,-1.4482,-1.4524,-1.4741,-1.4999,-1.5215,-1.5389,-1.5389,-1.5389,0.0,0.0,-1.5389,-1.5389,-1.5347,-1.5347,-1.5347,-1.5305,-1.5982,-1.6378,-1.5541,-1.6023,-1.6206,0.0,-1.4433,-1.4601,-1.5137,0.0,-1.5394,-1.6087,-1.6128,-1.5971,-1.5514,-1.5472,-1.5597,-1.6087,-1.6919,-1.7594,-1.7957,-1.8816,-1.9618,-2.0264,-2.0342,-2.0615,-2.1167,-2.1205,-2.1205,-2.1205,-2.1205,0.0,0.0,0.0,0.0,0.0,0.0,0.0,0.0,0.0,0.0,0.0,0.0,0.0,0.0,0.0,0.0,0.0,0.0,0.0,0.0,0.0,0.0,0.0,0.0,0.0,0.0,0.0,0.0,0.1343,0.1074,0.0,-0.0599,-0.0456,-0.078,-0.1992,-0.2114,-0.252,-0.341,-0.4035,-0.4362,-0.4349,-0.4316,-0.43,-0.43,-0.43,-0.43,-0.43,-0.43,-0.43,-0.43,-0.479,-0.55,-0.6432,-0.6915,-0.7672,-0.8612,-0.8612,-0.8823,-0.9253,-0.9554,-1.0674,-1.2089,-1.2303,-1.3209,-1.4328,-1.4398,-1.444,-1.4524,-1.4783,-1.4908,-1.4999,-1.5131,-1.5215,-1.5215,-1.5347,-1.5389,-1.5389,-1.5389,-1.5389,-1.5548,-1.6105,-1.646,-1.678,-1.7033,-1.731,-1.7383,-1.6813,-1.5801,-1.5208,-1.5658,-1.5974,-1.6288,-1.6878,-1.7164,-1.7237,-1.7074,-1.7074,-1.7164,-1.7277,-1.8086,-1.8687,-1.8816,-1.9657,-2.0255,-2.0489,-2.0489,-2.0576,-2.0809,-2.0799,-2.0799,-2.0799,-2.0799,-2.0925,0.0,0.0,0.0,0.0,0.0,0.0,0.0,0.0,0.0,0.0,0.0,0.0,0.0,0.0,0.0,0.0,0.0,0.0,0.0,0.0,0.0,0.0,0.0,0.0,0.0,0.0,0.2198,0.1299,0.1433,0.1125,0.0046,0.0587,0.0499,-0.0651,-0.1197,-0.1782,-0.2653,-0.3749,-0.4361,-0.4302,-0.43,-0.43,-0.43,-0.43,-0.43,-0.43,-0.43,-0.4433,-0.4701,-0.5193,-0.5902,-0.6782,-0.7268,-0.7937,-0.8612,-0.8612,-0.8612,-0.8652,-0.9257,-1.025,-1.137,-1.2015,-1.3052,-1.413,-1.4243,-1.4356,-1.4433,-1.4566,-1.465,-1.4734,-1.4915,-1.5249,-1.5582,-1.5707,-1.5989,-1.627,-1.627,-1.627,-1.6427,-1.6984,-1.7342,-1.7634,-1.7957,-1.8238,-1.8367,-1.8078,-1.7082,-1.6394,-1.6689,-1.696,-1.7229,-1.7553,-1.7836,-1.7997,-1.7997,-1.7997,-1.7997,-1.7997,-1.8767,-1.9301,-1.9301,-2.0089,-2.0605,-2.0605,-2.0605,-2.0605,-2.0605,-2.0867,-2.0867,-2.0605,-2.0605,-2.076,-2.1099,0.0,0.0,0.0,0.0,0.0,0.0,0.0,0.0,0.0,0.0,0.0,0.0,0.0,0.0,0.0,0.0,0.0,0.0,0.0,0.0,0.0,0.0,0.0,0.2378,0.2379,0.2424,0.2243,0.2379,0.2424,0.2243,0.2199,0.1793,0.0761,-0.0402,-0.1477,-0.2463,-0.3626,-0.43,-0.43,-0.43,-0.43,-0.43,-0.43,-0.43,-0.4344,-0.4344,-0.4701,-0.5416,-0.546,-0.621,-0.7489,-0.7533,-0.7937,-0.8612,-0.8612,-0.8612,-0.8784,-1.0549,-1.1235,-1.1542,-1.3355,-1.4039,-1.4088,-1.4088,-1.4243,-1.4398,-1.4398,-1.4524,-1.4734,-1.4692,-1.5484,-1.6394,-1.6394,-1.7155,-1.7997,-1.7997,-1.7997,-1.7997,-1.8037,-1.8687,-1.9094,-1.8238,-1.8727,-1.9094,-1.8238,-1.8078,-1.8078,-1.7997,-1.8037,-1.8037,-1.8037,-1.8078,0.0,-1.8078,-1.8078,-1.8078,-1.8078,-1.8856,-1.9341,-1.9341,-2.0128,-2.0605,-2.0605,-2.0605,-2.0605,-2.0605,-2.1346,-2.1385,-2.0605,-2.0605,-2.0693,-2.0906,0.0,0.0,0.0,0.0,0.0,0.0,0.0,0.0,0.0,0.0,0.0,0.0,0.0,0.0,0.0,0.0,0.0,0.0,0.0,0.0,0.0,0.0,0.3497,0.3274,0.2962,0.2784,0.2694,0.2739,0.2694,0.2424,0.2424,0.1705,0.0045,-0.0403,-0.1254,-0.2732,-0.3405,-0.381,-0.381,-0.4121,-0.43,-0.43,-0.43,-0.4567,-0.5104,-0.5104,-0.5458,-0.6121,-0.6694,-0.7136,-0.7533,-0.8072,-0.8432,-0.8612,-0.8612,-0.8612,-0.8656,-0.913,-1.012,-1.1365,-1.1886,-1.2918,-1.4088,-1.4088,-1.413,-1.4166,-1.4166,-1.4657,-1.5103,-1.4643,-1.5594,-1.6755,-1.6304,-1.696,-1.7772,-1.7772,-1.7885,-1.8158,-1.8807,-1.9134,-1.942,-1.9805,-2.0079,-2.0167,-1.9923,-1.9883,-1.9481,-1.8238,-1.8527,-1.8935,-1.8935,-1.949,0.0,-1.9883,-1.9883,-1.9883,-1.9883,-2.0089,-2.0245,-2.0245,-2.044,-2.0605,-2.0605,-2.0605,-2.0605,-2.0605,-2.0828,-2.0828,-2.0605,-2.0731,-2.0829,0.0,0.0,0.0,0.0,0.0,0.0,0.0,0.0,0.0,0.0,0.0,0.0,0.0,0.0,0.0,0.0,0.0,0.0,0.0,0.0,0.0,0.0,0.3896,0.4166,0.4166,0.3454,0.292,0.292,0.292,0.2829,0.2694,0.2649,0.2199,0.1076,0.0224,-0.0672,-0.1611,-0.2732,-0.3317,-0.3317,-0.3764,-0.3987,-0.3987,-0.421,-0.4523,-0.4924,-0.4924,-0.5455,-0.6432,-0.6827,-0.736,0.0,-0.8432,-0.8612,-0.8612,-0.8612,-0.8828,0.0,0.0,0.0,0.0,0.0,-1.3179,-1.4088,-1.4088,-1.4334,-1.4664,-1.4664,-1.5235,-1.5884,-1.5462,-1.6363,-1.7464,-1.7098,-1.7796,-1.8616,-1.8616,-1.8776,-1.9094,-1.9578,-1.9775,-1.9971,-2.0489,-2.0605,-2.0712,-2.1049,-2.1088,0.0,-2.0217,-1.9972,-1.9962,-2.0304,-2.0469,-2.0712,-2.1049,-2.0828,-2.0605,-2.0605,-2.0605,-2.0605,-2.0605,-2.0605,0.0,0.0,0.0,-2.075,-2.1088,-2.0789,0.0,0.0,0.0,-2.078,-2.078,0.0,0.0,0.0,-1.8652,-1.806,0.0,0.0,0.0,0.0,0.0,0.0,0.0,0.0,0.0,0.0,0.0,0.0,0.0,0.0,0.0,0.0,0.501,0.501,0.501,0.39,0.3053,0.2963,0.292,0.292,0.292,0.292,0.2873,0.2784,0.1119,0.0045,-0.0045,0.0,0.0,0.0,0.0,-0.3542,-0.3542,-0.3942,-0.4164,-0.4253,-0.4387,-0.5142,-0.6428,-0.6561,-0.7319,-0.8612,-0.8612,-0.8652,-0.874,-0.874,-0.9257,-1.0072,-1.0159,-1.0717,-1.1666,-1.344,-1.4088,-1.4088,-1.4088,0.0,0.0,-1.5235,-1.5842,-1.6535,-1.6453,-1.7302,-1.8261,-1.8141,-1.8957,-1.9863,-1.9863,-2.0059,-2.0264,-2.0264,-2.0372,-2.0527,-2.0527,-2.0527,-2.0789,-2.1499,-2.1652,-2.1907,-2.2734,-2.1766,-2.1126,-2.1832,-2.1308,-2.1088,-2.1718,-2.128,-2.0828,-2.075,0.0,0.0,-2.076,-2.0644,-2.0605,-2.0605,-2.0605,-2.0905,-2.1652,-2.0982,-2.0944,-2.1652,-2.0944,-2.0566,-2.0605,-2.0479,-1.9599,-1.7997,-1.8372,-1.7923,0.0,0.0,0.0,0.0,0.0,0.0,0.0,0.0,0.0,0.0,0.0,0.0,0.0,0.0,0.0,0.501,0.501,0.501,0.501,0.4431,0.39,0.3497,0.3142,0.292,0.292,0.292,0.2649,0.2064,0.1121,0.0314,-0.0269,-0.1614,-0.2333,-0.2333,-0.278,-0.3047,-0.3047,-0.3136,-0.3448,-0.3983,0.0,0.0,-0.6735,-0.7489,-0.8116,-0.8612,-0.8612,-0.8999,-0.9646,-0.9646,-1.0202,-1.1111,-1.1843,-1.2272,-1.2577,-1.3701,-1.4088,-1.4088,-1.4088,-1.4208,-1.4334,-1.4334,-1.4943,-1.5519,-1.4824,-1.6206,0.0,-1.722,-1.8287,-1.9676,-1.9676,-1.9833,-1.9981,-1.9981,-2.002,-2.0059,-2.0059,-2.0225,-2.042,-2.0566,-2.0712,-2.1088,-2.1869,-2.2322,-2.2585,-2.2734,-2.266,-2.236,-2.1869,-2.2247,-2.2285,-2.1652,-2.1576,-2.1576,-2.1576,-2.0972,-2.0605,-2.0605,-2.0605,-2.0673,-2.0828,-2.0673,-2.0673,-2.0828,-2.0527,-2.0459,-2.0605,-1.9717,-1.8877,-1.7997,-1.8078,-1.7269,0.0,0.0,0.0,0.0,0.0,0.0,0.0,0.0,0.0,0.0,0.0,0.5356,0.4781,0.0,0.5371,0.5371,0.5371,0.5371,0.5371,0.4968,0.4476,0.3987,0.3544,0.323,0.323,0.3053,0.2739,0.2379,0.166,0.0942,0.0179,-0.0762,-0.1436,-0.1794,-0.2287,-0.2556,-0.2556,-0.2778,-0.3314,-0.4119,-0.4607,-0.5542,-0.683,-0.7275,-0.7764,-0.8256,-0.8256,-0.8556,-0.9074,-0.955,-1.0241,-1.102,-1.1972,-1.2491,-1.279,-1.3743,-1.4088,-1.4088,-1.4088,-1.4377,-1.4741,-1.4741,-1.5352,-1.6049,-1.6049,-1.6944,-1.7997,-1.7997,-1.8696,-1.9429,-1.9429,-1.9597,-1.9754,-1.9754,-1.9833,-1.9902,-1.9902,-2.0029,-2.0216,-2.0624,-2.0779,-2.1116,-2.1897,-2.2787,-2.3427,-2.3537,-2.3243,-2.2984,-2.2947,-2.2649,-2.2247,-2.1832,-2.1794,-2.1766,-2.1672,-2.1558,-2.1328,-2.0944,-2.0905,-2.0712,-2.0255,-2.0255,-2.0255,-2.0255,-2.0137,-2.0137,-2.0255,-1.9696,-1.9094,-1.8327,-1.7876,-1.6829,0.0,0.0,0.0,0.0,0.0,0.0,0.0,0.7446,0.6889,0.7866,0.7965,0.757,0.6741,0.639,0.6213,0.6127,0.5994,0.5908,0.5908,0.546,0.5013,0.4612,0.4076,0.3721,0.3721,0.3409,0.3142,0.3053,0.2333,0.1569,0.0762,0.0,-0.0718,-0.1391,-0.1839,-0.2064,-0.2064,-0.242,-0.3001,-0.3717,-0.3941,-0.4832,-0.639,-0.6567,-0.7102,-0.79,-0.8069,-0.8245,-0.8504,-0.9584,-1.0366,-1.0982,-1.1929,-1.2491,-1.2918,-1.3701,-1.3955,-1.3962,-1.3997,-1.4489,-1.5061,-1.5151,-1.5643,-1.6329,-1.7025,-1.7472,-1.7876,-1.8407,-1.8895,-1.9262,-1.9094,-1.9311,-1.9557,-1.9557,-1.9676,-1.9784,-1.9784,-1.9824,-2.0089,-2.0914,-2.1106,-2.1364,-2.2188,-2.2999,-2.3635,-2.4,-2.3683,-2.3585,-2.4011,-2.3058,-2.2333,-2.2182,-2.2145,-2.1966,-2.1492,-2.1873,-2.1825,-2.1011,-2.1126,-2.0895,-2.0167,-2.0167,-2.0245,-2.0362,-2.002,-1.9942,-2.0167,-1.9942,-1.946,-1.8696,-1.7747,-1.6665,0.8071,0.7643,0.777,0.838,0.8618,0.89,0.0,0.9426,0.886,0.8996,0.9039,0.8869,0.8348,0.8217,0.8046,0.7614,0.7044,0.6691,0.6691,0.608,0.5599,0.5555,0.4748,0.421,0.421,0.4166,0.3987,0.3544,0.2823,0.1927,0.0762,0.0,-0.0718,-0.1391,-0.148,-0.148,-0.148,-0.1524,-0.1614,-0.1749,-0.2644,-0.3669,-0.487,-0.5758,-0.6827,-0.7944,-0.8719,-0.9061,-0.9235,-1.1015,-1.18,-1.1929,-1.2875,-1.3264,-1.3307,-1.344,-1.3483,-1.3483,-1.3695,-1.3822,-1.3942,-1.4166,-1.4292,-1.4419,-1.4496,-1.5643,-1.6698,-1.6049,-1.7513,-1.9134,-1.8367,-1.8727,-1.9341,-1.9341,-1.9341,-1.9381,-1.9381,-1.9508,-1.9912,-2.0741,-2.1088,-2.1423,-2.2237,-2.2462,-2.2835,-2.3708,-2.4432,-2.4635,-2.3986,-2.425,-2.4189,-2.3482,-2.3409,-2.2793,-2.1357,-2.128,-2.0972,-2.0098,-2.0779,-2.1165,-2.1049,-2.1049,-2.1395,-2.2101,-2.0479,-2.0098,-2.1049,-2.0098,-1.9311,-1.8696,-1.7747,-1.6854,1.2178,1.1807,1.1892,1.2159,1.153,1.108,1.204,1.1214,1.026,1.0399,1.0351,1.0,0.9266,0.9,0.8738,0.0,0.7958,0.7694,0.7438,0.6779,0.6343,0.6343,0.5636,0.5015,0.4743,0.4476,0.421,0.4032,0.3717,0.2999,0.1792,0.103,0.0179,-0.0807,-0.1211,-0.1391,-0.1391,-0.1391,-0.1704,-0.2285,-0.2688,-0.3714,-0.5272,-0.5672,-0.6428,-0.7452,-0.7977,-0.8105,-0.8057,-0.8978,-0.9632,-1.0062,-1.1009,-1.1703,-1.2272,-1.3094,-1.3398,-1.3398,-1.3483,-1.3525,-1.3646,-1.4398,-1.4601,-1.4845,-1.6,-1.6862,-1.7472,-1.7634,-1.8447,-1.9222,-1.8856,-1.9015,-1.9301,-1.9301,-1.9301,-1.9301,-1.9301,-1.939,-1.9548,-1.9893,-2.043,-2.0885,-2.1221,-2.2199,-2.3069,-2.3463,-2.35,-2.3342,-2.301,-2.2798,-2.2697,-2.2894,-2.2793,-2.283,-2.3091,-2.3016,-2.2606,-2.1776,-2.2042,-2.1814,-2.0808,-2.0769,-2.0731,-2.0586,-1.9814,-1.9657,-2.0079,-1.9657,-1.9311,-1.9024,-1.7594,-1.6772,1.5564,1.533,1.5289,1.5171,1.4021,1.3057,1.3597,1.2693,1.174,1.1709,1.1574,1.1219,1.0404,1.0091,0.9826,0.9353,0.9135,0.8873,0.8528,0.7786,0.7258,0.7258,0.6694,0.6166,0.5805,0.5099,0.4612,0.452,0.4476,0.3983,0.2774,0.2192,0.1297,-0.0045,-0.0627,-0.1031,-0.13,-0.139,-0.1749,-0.251,-0.2777,-0.3758,-0.5317,-0.5852,-0.6473,-0.7095,-0.7323,-0.7279,-0.7143,-0.7588,-0.8069,-0.8584,-0.9531,-1.0448,-1.1408,-1.2443,-1.296,-1.3222,-1.3307,-1.3313,-1.3434,-1.43,-1.4545,-1.4838,-1.6273,-1.7058,-1.7545,-1.7917,-1.8567,-1.9073,-1.8856,-1.8944,-1.9112,-1.9112,-1.9112,-1.9152,-1.9222,-1.9231,-1.9301,-1.9569,-2.0109,-2.0498,-2.0498,-2.1631,-2.2408,-2.2094,-2.1624,-2.1703,-2.2776,-2.2161,-2.1869,-2.2483,-2.2247,-2.2397,-2.3313,-2.3154,-2.2661,-2.1853,-2.203,-2.1693,-2.0745,-2.0556,-2.0537,-2.0634,-1.9766,-1.9411,-1.962,-1.9164,-1.8816,-1.8567,-1.7017,-1.6329,1.7017,1.6822,1.6741,1.6349,1.5764,1.5019,1.3942,1.3652,1.3434,1.279,1.2662,1.2485,1.2015,1.1929,1.1752,1.1278,1.0664,1.0226,1.0226,0.9179,0.8436,0.8436,0.8046,0.7746,0.0,0.6476,0.5463,0.501,0.4964,0.4472,0.3264,0.3173,0.2369,0.0716,0.0447,-0.0134,-0.1121,-0.13,-0.1436,-0.1436,-0.2419,-0.3401,-0.4423,-0.6248,-0.7095,-0.7095,-0.7095,-0.7095,-0.7183,-0.8105,-0.85,-0.8584,-0.9531,-1.0448,-1.1327,-1.137,-1.1929,-1.2747,-1.3009,-1.31,-1.3137,-1.3349,-1.3434,-1.3476,-1.3519,-1.472,-1.5876,-1.5061,-1.6714,-1.8523,-1.7691,-1.8063,-1.874,-1.874,-1.874,-1.8772,-1.8962,-1.9002,-1.9311,-2.0265,-2.0459,-2.0498,-2.0498,-2.0537,-2.0169,-1.9019,-1.8801,-2.0172,-2.3938,-2.3556,-2.2964,-2.2964,-2.2268,-2.1489,-2.0692,-2.0251,-1.9676,-1.8877,-1.9573,-2.0352,-2.1161,-2.0733,-2.1603,-2.4007,-2.0904,-1.965,-2.0352,-1.8802,-1.7594,-1.678,-1.5842,-1.5436,1.9883,1.9707,1.9576,1.945,1.8223,1.6903,1.625,1.5413,1.4685,1.4139,1.3682,1.3307,1.3173,1.313,1.296,1.2485,1.2601,1.2668,1.2328,1.116,1.0346,1.0346,0.9131,0.0,0.0,0.0,0.0,0.6248,0.6204,0.5403,0.3578,0.2995,0.2056,0.0537,-0.0045,-0.0493,-0.0852,-0.1076,-0.1211,-0.1211,-0.2195,-0.2686,-0.2907,-0.5001,-0.5983,-0.6027,-0.6782,-0.7095,-0.7139,-0.7448,-0.7929,-0.8584,-0.9531,-1.0448,-1.137,-1.2015,-1.2448,-1.2705,-1.279,-1.3209,-1.3837,-1.4671,-1.5338,-1.5925,-1.6706,-1.7326,-1.774,-1.7456,-1.8,-1.862,-1.8322,-1.8482,-1.87,-1.87,-1.87,-1.8812,-1.9301,-1.9073,-1.896,-1.9601,-1.9803,-1.9858,-1.9727,-2.0085,-2.0293,-2.0115,-1.9473,-1.9485,-2.0798,-2.1063,-2.1362,-2.1933,-2.1743,-2.1707,-2.1947,-2.1393,-2.0904,-2.0627,-2.0427,-2.021,-1.9939,-1.9794,-1.9836,-2.0132,-1.9071,-1.8618,-1.8854,-1.7838,-1.7281,-1.7115,-1.5713,-1.5189,2.281,2.2512,2.2213,2.2301,2.0783,1.9064,1.8413,1.7438,1.638,1.5448,1.4914,1.442,1.3815,1.3899,1.3899,1.3349,1.3802,1.4132,1.3824,1.2923,1.22,1.1955,1.0697,0.9701,0.0,0.0,0.0,0.7261,0.6953,0.6201,0.4823,0.4067,0.2907,0.1344,0.0761,0.009,-0.0583,-0.0852,-0.1121,-0.1479,-0.206,-0.246,-0.2683,-0.4107,-0.4776,-0.4821,-0.5888,-0.6425,-0.6517,-0.6741,-0.7272,-0.7933,-0.8444,-0.9226,-1.0188,-1.1225,-1.1789,-1.2137,-1.2571,-1.3082,-1.3669,-1.4371,-1.4991,-1.5621,-1.6322,-1.678,-1.7033,-1.7033,-1.7245,-1.7538,-1.7538,-1.7538,-1.7578,-1.791,-1.7889,-1.7994,-1.8768,-1.8551,-1.8264,-1.8616,-1.8967,-1.9134,-1.9014,-1.9383,-1.9773,-1.9985,-1.9535,-1.9308,-1.9715,-1.9745,-1.9915,-2.0471,-2.0267,-2.0303,-2.0825,-2.028,-1.993,-1.993,-1.9494,-1.9102,-1.8915,-1.8495,-1.8276,-1.8359,-1.7514,-1.7064,-1.7038,-1.6261,-1.5808,-1.5677,-1.4576,-1.4168,2.5602,2.5037,2.4575,2.476,2.329,2.1535,2.0456,1.9607,1.8602,1.6895,1.6456,1.5906,1.4216,1.4398,1.4608,1.3984,1.4482,1.4936,1.4901,1.4468,1.3915,0.0,0.0,0.0,0.0,0.0,0.0,0.8093,0.0,0.6868,0.6732,0.608,0.4835,0.2957,0.2593,0.1565,-0.0269,-0.0538,-0.1121,-0.2014,-0.2014,-0.2504,-0.3436,-0.3481,-0.3525,-0.3614,-0.4596,-0.5179,-0.5492,-0.6118,-0.6564,-0.6836,-0.6609,-0.7129,-0.8093,-0.9274,-1.0269,-1.1219,-1.2308,-1.2705,-1.279,-1.279,-1.279,-1.2833,-1.2833,-1.3415,-1.4084,-1.4084,-1.472,-1.5394,-1.5394,-1.5379,-1.5572,-1.6421,-1.6332,-1.6324,-1.7449,-1.735,-1.7157,-1.7466,-1.7961,-1.8304,-1.8267,-1.8375,-1.8498,-1.8498,-1.8733,-1.9375,-2.0541,-1.9649,-1.8862,-1.8862,-1.8156,-1.7701,-1.7701,-1.7223,-1.6955,-1.7009,-1.6928,-1.7207,-1.8019,-1.6989,-1.711,-1.8592,-1.6372,-1.5172,-1.511,-1.4256,-1.3415,-1.2625,-1.2546,-1.2559,2.7032,2.6687,2.6411,2.6041,2.4839,2.3537,2.2907,2.2247,2.1439,2.0072,1.8755,1.7572,1.6561,1.638,1.6347,1.6183,1.7277,1.7891,1.7261,1.6634,1.5944,1.5103,1.4174,1.3245,1.2443,1.2052,0.0,0.0,0.9144,0.7606,0.5836,0.5573,0.469,0.2956,0.2106,0.1434,0.0942,0.0,-0.0583,-0.0851,-0.0851,-0.0852,-0.0941,-0.1835,-0.2637,-0.3352,-0.4508,-0.5445,-0.6163,-0.634,-0.6871,-0.7617,-0.8229,-0.9052,-1.0005,-1.1025,-1.1553,-1.1774,-1.208,-1.2833,-1.3669,-1.3669,-1.4132,-1.472,-1.472,-1.4852,-1.5054,-1.5054,-1.5228,-1.5394,-1.5394,-1.5245,-1.5175,-1.5378,-1.521,-1.5195,-1.5915,-1.5667,-1.5562,-1.6536,-1.6785,-1.6812,-1.6706,-1.6696,-1.6836,-1.7072,-1.685,-1.7345,-1.9274,-1.9666,-1.979,-1.979,-1.925,-1.8875,-1.8875,-1.7908,-1.7297,-1.7297,-1.6756,-1.6307,-1.5971,-1.6217,-1.626,-1.6118,-1.5524,-1.5207,-1.5154,-1.3837,-1.3147,-1.3101,-1.1879,-1.1806,2.8834,2.839,2.7972,2.7726,2.6651,2.5429,2.4715,2.3963,2.3017,2.1612,2.0455,1.9381,1.8191,1.8146,1.8195,1.7897,1.8722,1.9274,1.8758,1.8301,1.7568,1.6404,1.5696,1.4824,1.3542,1.2912,1.2357,0.0,1.0193,0.8615,0.7328,0.6933,0.5921,0.4065,0.3618,0.2772,0.1436,0.0718,0.0179,-0.0224,-0.0224,-0.0135,-0.0045,-0.0718,-0.1523,-0.2462,0.0,-0.4692,-0.5675,-0.5991,-0.6476,-0.7092,-0.7485,-0.8006,-0.8571,-0.9628,-1.0024,-1.0159,-1.1068,-1.1875,-1.2589,-1.2991,-1.3464,-1.3928,-1.3928,-1.3928,-1.3902,-1.3811,-1.3771,-1.3655,-1.3181,-1.3236,-1.34,-1.3534,-1.36,-1.3817,-1.4561,-1.435,-1.4268,-1.5178,-1.5652,-1.5851,-1.5702,-1.5948,-1.6237,-1.6437,-1.6499,-1.7063,-1.8563,-1.8442,-1.822,-1.822,-1.7959,-1.7755,-1.7755,-1.7113,-1.6707,-1.6707,-1.6307,-1.5744,-1.4974,-1.501,-1.4724,-1.3934,-1.3593,-1.3375,-1.3266,-1.2124,-1.1614,-1.1645,-1.0478,-1.0296,3.0412,2.9817,2.9218,2.9275,2.8244,2.6993,2.6041,2.5113,2.3961,2.2428,2.1818,2.1108,1.9559,1.9692,1.9914,1.9409,1.97,1.9982,1.9972,1.9698,1.897,1.7528,1.7326,1.6544,1.4573,1.3873,1.3288,1.265,1.109,1.0053,0.971,0.9091,0.7727,0.5567,0.583,0.4592,0.1614,0.1614,0.1211,0.0404,0.0404,0.0314,0.018,0.018,-0.0404,-0.1436,-0.2331,0.0,-0.4516,-0.5104,-0.546,-0.568,-0.5549,-0.5586,-0.5836,-0.6973,-0.7486,-0.7857,-0.9665,-1.0262,-1.0449,-1.145,-1.1772,-1.1766,-1.1647,-1.1588,-1.1549,-1.1369,-1.1349,-1.1128,-1.0167,-1.0428,-1.1015,-1.1369,-1.1651,-1.2056,-1.2924,-1.298,-1.2997,-1.3585,-1.4426,-1.5005,-1.4838,-1.5404,-1.5834,-1.5834,-1.6393,-1.701,-1.7526,-1.6716,-1.6149,-1.6246,-1.6,-1.5823,-1.5823,-1.5576,-1.5434,-1.5434,-1.5434,-1.5062,-1.4243,-1.3709,-1.3025,-1.2224,-1.1558,-1.1074,-1.0925,-1.0293,-0.9836,-0.9561,-0.8803,-0.8461,3.0141,2.98,2.9608,2.9234,2.8246,2.7322,2.7129,2.6269,2.5262,2.4362,2.3317,2.2283,2.1366,2.1032,2.1076,2.1625,2.1838,2.1869,2.1845,2.1076,2.0207,1.9274,1.8979,1.8244,1.6626,1.638,0.0,0.0,1.362,1.2328,1.0269,1.0053,0.873,0.5963,0.5963,0.4903,0.2643,0.2644,0.2553,0.2374,0.2374,0.1973,0.1166,0.1166,0.0224,-0.1391,-0.1569,0.0,-0.3224,-0.336,-0.3403,-0.3535,-0.4241,-0.4941,-0.5645,-0.6625,-0.7443,-0.8135,-0.8508,-0.8628,-0.8866,-1.0213,-1.0695,-1.0532,-0.9671,-0.9453,-0.9449,-0.9406,-0.9396,-0.9346,-0.9145,-0.9056,-0.9167,-0.9872,-0.9431,-0.908,-0.9878,-1.0545,-1.1174,-1.194,-1.2792,-1.3332,-1.3288,-1.3397,-1.3506,-1.3506,-1.3614,-1.3723,-1.3824,-1.621,-1.8032,-1.8496,-1.7007,-1.5983,-1.5983,-1.4399,-1.3411,-1.3411,-1.3411,-1.3047,-1.2254,-1.2725,-1.2615,-1.1818,-1.1669,-1.1595,-1.1558,-1.0775,-1.0024,-0.9334,-0.7829,-0.713,3.0597,3.0305,3.0049,2.9572,2.9046,2.8347,2.7237,2.6512,2.5695,2.4494,2.3399,2.2592,2.2232,2.1923,2.1871,2.2256,2.2757,2.3132,2.3099,2.294,2.2371,2.1133,2.0816,2.0081,1.8492,1.7963,1.7382,1.6626,1.564,1.4225,1.2328,1.1219,0.9913,0.8451,0.7641,0.6321,0.4443,0.4316,0.3761,0.2859,0.2729,0.2513,0.2123,0.2123,0.1386,0.0043,-0.0432,0.0,-0.2118,-0.2511,-0.2643,-0.2598,-0.3155,-0.3605,-0.3994,-0.4582,-0.5013,-0.5297,-0.5832,-0.5912,-0.595,-0.6719,-0.7983,-0.9229,-0.9173,-0.9141,-0.9036,-0.8492,-0.8332,-0.8098,-0.7132,-0.6767,-0.6702,-0.6737,-0.6679,-0.674,-0.7118,-0.7816,-0.8369,-0.835,-0.9083,-0.9558,-0.9153,-0.9409,-0.9665,-0.9665,-1.0381,-1.1046,-1.1352,-1.3272,-1.4925,-1.5773,-1.498,-1.4383,-1.4383,-1.3041,-1.2208,-1.2208,-1.1821,-1.1224,-1.043,-1.0358,-0.9969,-0.9165,-0.8736,-0.8463,-0.8354,-0.7639,-0.7038,-0.651,-0.5396,-0.4858,3.1058,3.0757,3.051,3.0092,2.9799,2.9155,2.7355,2.6535,2.5767,2.4344,2.3405,2.287,2.287,2.2696,2.267,2.2938,2.354,2.4018,2.4302,2.4601,2.429,2.3029,2.2685,2.1947,2.0343,1.9534,0.0,1.847,1.7039,1.555,1.4115,1.2283,1.1112,1.0709,0.9466,0.802,0.6369,0.621,0.5424,0.4016,0.3847,0.364,0.3434,0.3434,0.2846,0.1714,0.1045,0.0,0.0,-0.1046,-0.1214,-0.1089,-0.1256,-0.1504,-0.1873,-0.2082,-0.2241,-0.2437,-0.3046,-0.3123,-0.2989,-0.3092,-0.4982,-0.7349,-0.7793,-0.7902,-0.7753,-0.6911,-0.667,-0.6313,-0.4854,-0.4474,-0.4351,-0.3814,-0.4349,-0.4961,-0.4961,-0.5405,-0.5704,-0.5298,-0.5819,-0.619,-0.5794,-0.6201,-0.6646,-0.684,-0.7932,-0.8809,-0.8904,-0.9807,-1.0609,-1.1163,-1.1814,-1.2238,-1.2238,-1.1304,-1.0705,-1.0705,-1.0124,-0.9488,-0.8874,-0.8245,-0.7517,-0.669,-0.6068,-0.5567,-0.5224,-0.4691,-0.4271,-0.393,-0.3078,-0.2613,3.1021,3.0834,3.0895,3.0671,2.9778,2.8824,2.8205,2.6872,2.5577,2.5017,2.424,2.3678,2.3678,2.3575,2.3862,2.5006,2.4711,2.4757,2.5995,2.5463,2.4921,2.4767,2.4577,2.3809,2.2211,2.1824,2.0875,1.8972,1.752,1.5974,1.4252,1.3179,1.2138,1.1071,1.0409,0.9421,0.8192,0.8151,0.8069,0.7902,0.7861,0.7032,0.5546,0.5546,0.4592,0.2931,0.2846,0.0,0.0,0.2637,0.2595,0.2595,0.2595,0.1653,0.0325,0.0284,-0.0681,-0.1849,-0.1138,-0.0902,-0.0861,-0.0892,-0.2405,-0.4067,-0.336,-0.3144,-0.3105,-0.302,-0.2979,-0.2938,-0.2776,-0.2735,-0.2696,-0.2657,-0.3239,-0.3854,-0.3854,-0.3893,-0.416,-0.4886,-0.5115,-0.5384,-0.605,-0.62,-0.651,-0.7294,-0.7566,-0.7122,-0.5657,-0.6836,-0.7313,-0.5889,-0.8341,-1.0085,-1.0085,-0.8713,-0.7876,-0.7876,-0.78,-0.7723,-0.7647,-0.757,-0.7138,-0.6283,-0.6165,-0.5774,-0.5038,-0.4961,-0.4506,-0.3701,-0.21,-0.0973,3.0942,3.0753,3.0794,3.0712,3.0272,2.9565,2.8443,2.7688,2.6883,2.5714,2.4943,2.4338,2.3978,2.3785,2.3695,2.3843,2.4529,2.5268,2.5795,2.621,2.6355,2.5906,2.565,2.5134,0.0,0.0,2.2176,1.9975,1.9213,1.786,1.5585,1.4324,1.3299,1.2428,1.2037,1.1171,0.9849,0.9733,0.9233,0.8382,0.8265,0.7907,0.7383,0.7383,0.6985,0.6232,0.524,0.0,0.0,0.389,0.3651,0.4168,0.3532,0.2876,0.2257,0.2139,0.177,0.1326,0.1676,0.191,0.2026,0.1864,0.1212,0.0315,-0.0972,-0.1356,-0.1357,-0.1364,-0.1011,-0.0621,-0.0624,0.0117,0.0858,0.0858,0.0623,0.0389,0.0389,0.0389,0.0272,-0.0039,-0.0116,-0.0233,-0.0542,-0.062,-0.0735,-0.1084,-0.1547,-0.1584,-0.0927,-0.1894,-0.236,-0.1701,-0.5698,-0.8009,-0.698,-0.5867,-0.4801,-0.3787,-0.3253,-0.2985,-0.2985,-0.248,-0.2053,-0.1705,-0.1202,-0.0815,-0.0505,-0.0505,-0.0311,0.0039,0.0701,0.1209,3.1319,3.1123,3.11,3.0942,3.0777,3.0267,2.8794,2.8316,2.7792,2.6361,2.5591,2.5051,2.4614,2.4413,2.4249,2.3983,2.5025,2.5986,2.6324,2.7208,2.7682,2.7365,0.0,2.6684,2.5554,2.4238,2.2753,2.1094,2.0527,0.0,1.7363,1.6105,1.4804,1.3477,1.3293,1.2755,1.1773,1.1834,1.1162,0.9793,1.0039,0.9707,0.8841,0.9271,0.919,0.8675,0.7516,0.0,0.0,0.6231,0.5925,0.6537,0.5771,0.531,0.5118,0.4961,0.4843,0.4804,0.5038,0.5236,0.539,0.5467,0.5467,0.5106,0.3219,0.1651,0.058,0.1007,0.1813,0.25,0.2055,0.3142,0.4342,0.4342,0.4342,0.4342,0.4342,0.4342,0.4342,0.4342,0.4342,0.4262,0.4024,0.3985,0.3906,0.3631,0.3123,0.2927,0.343,0.254,0.2038,0.254,-0.1299,-0.3715,-0.3392,-0.2784,-0.1936,-0.0735,-0.0155,0.035,0.0774,0.1393,0.1935,0.2437,0.2795,0.2958,0.3042,0.2773,0.2812,0.3042,0.3317,0.3665,3.2265,3.2127,3.2056,3.1529,3.1181,3.0658,2.9393,2.8623,2.7905,2.6916,2.6203,2.5783,2.5783,2.5797,2.5965,2.6568,2.668,2.7114,2.8302,2.847,2.8738,0.0,2.9473,2.8677,2.666,2.4134,2.253,2.2292,2.1168,0.0,1.9488,1.8575,1.6745,1.3905,1.3918,1.3968,1.3968,1.4696,1.4395,1.3078,1.4395,1.3201,0.9916,1.1267,1.1027,0.0,0.0,0.0,0.0,1.0456,1.0381,1.0338,1.0338,0.9825,0.9153,0.9153,0.8646,0.8061,0.8881,0.9153,0.927,1.014,1.0381,1.0338,1.0295,0.6904,0.335,0.4755,0.6139,0.6923,0.5504,0.6215,0.7258,0.7258,0.7258,0.7258,0.7258,0.7258,0.7258,0.7258,0.7258,0.7017,0.6225,0.6067,0.5792,0.49,0.4785,0.5358,0.7019,0.5779,0.5395,0.7057,0.5704,0.3567,0.0775,0.0544,0.0544,0.0583,0.0583,0.1236,0.2595,0.2671,0.3471,0.5109,0.4401,0.4081,0.4269,0.3466,0.3507,0.4308,0.5164,0.6444,3.223,3.195,3.1749,3.1584,3.1237,3.0733,2.9903,2.9563,2.9216,2.8504,2.7883,2.7394,2.7038,2.6651,2.6354,2.6132,2.6428,2.6834,2.7227,2.7632,2.7952,2.8178,2.8206,2.7792,0.0,0.0,2.4975,2.3968,2.366,0.0,2.0905,2.0611,1.935,1.6805,1.6677,1.646,1.6052,1.6286,1.5739,1.4466,1.4893,1.453,1.3454,1.3879,1.3828,0.0,0.0,0.0,0.0,1.1162,1.0803,1.1218,1.0685,1.0295,1.0097,1.0054,0.99,0.9745,0.998,1.0097,1.0209,1.1009,1.1224,1.1328,1.181,1.0148,0.8199,0.8647,0.8665,0.8613,0.8712,0.9135,0.9472,0.9472,0.9467,0.943,0.943,0.9467,0.9472,0.9472,0.9472,0.9387,0.91,0.9063,0.902,0.8734,0.8655,0.8814,0.9335,0.8973,0.8814,0.9372,0.8931,0.7697,0.5377,0.5188,0.5654,0.6825,0.6904,0.7086,0.753,0.7568,0.7802,0.8346,0.8083,0.7794,0.7449,0.7183,0.7004,0.6908,0.718,0.7613,3.2634,3.2384,3.2144,3.2039,3.1732,3.13,3.062,3.0415,3.018,2.9492,2.9041,2.8615,2.8185,2.7834,2.7475,2.7115,2.7362,2.7674,2.7909,2.828,0.0,2.8842,0.0,0.0,0.0,2.7196,2.6487,2.5411,2.5466,0.0,2.2473,2.2581,2.1866,1.9954,1.9249,1.8711,1.8328,1.8614,1.8071,1.675,1.7305,1.698,1.5965,1.6277,1.6286,0.0,0.0,0.0,0.0,1.3976,1.3782,1.4198,1.395,1.3856,1.3856,1.3813,1.3813,1.3856,1.3856,1.3856,1.3892,1.4084,1.4163,1.4226,1.4606,1.3466,1.1959,1.1439,1.167,1.2095,1.2068,1.2483,1.2897,1.2897,1.289,1.2853,1.2853,1.289,1.2897,1.2897,1.2897,1.2897,1.2853,1.289,1.2897,1.2897,1.289,1.2853,1.2853,1.2853,1.2853,1.2853,1.2853,1.2319,1.1028,0.968,0.9363,1.041,1.0726,1.1126,1.1646,1.1683,1.1836,1.2141,1.1836,1.1389,1.0806,1.0806,1.0627,1.031,1.0613,1.073,0.0,3.3226,3.3024,3.2766,3.2536,3.2196,3.1412,3.1128,0.0,3.0039,2.9729,2.9498,2.9264,2.9219,2.9196,2.9166,2.9173,2.9356,2.988,2.9975,0.0,0.0,2.9875,0.0,2.9184,2.8136,2.726,2.6795,0.0,0.0,2.4403,2.4646,2.4348,2.3242,2.1723,2.0845,2.071,2.1401,2.102,1.962,2.1052,2.0348,1.7826,1.8687,1.8674,0.0,0.0,0.0,0.0,1.8448,1.8637,1.8647,1.9263,1.9479,1.9403,1.9403,1.9403,1.9393,1.9479,1.9501,1.9436,1.8946,1.8825,1.8825,1.8637,1.6961,1.4812,1.3408,1.4925,1.6697,1.5319,1.5992,1.6991,1.6991,1.7111,1.7195,1.7195,1.7161,1.7195,1.7245,1.717,1.7111,1.7254,1.717,1.7111,1.7161,1.7111,1.7085,1.7085,1.7085,1.7085,1.7085,1.7085,1.7085,1.7085,1.3933,1.1975,1.1975,1.2625,1.3602,1.4879,1.4958,1.53,1.6044,1.53,1.4624,1.4032,1.406,1.4024,1.3996,1.4852,1.5238,3.2908,0.0,3.286,3.2797,3.2553,3.2179,0.0,3.1475,3.1302,3.0747,3.0514,3.0385,3.034,3.0237,3.0058,2.9675,2.981,2.9859,2.964,2.9621,0.0,2.9822,2.9428,2.9116,2.9116,2.885,2.8639,2.852,0.0,2.8139,2.726,2.731,2.7003,2.6303,2.5557,2.4383,2.2812,2.297,2.2614,2.1779,2.2478,2.2481,2.1862,2.2898,2.3249,0.0,0.0,0.0,2.2197,2.1783,2.1127,2.039,2.0545,2.0126,1.9403,1.9403,1.9403,1.9533,2.0353,2.0607,2.083,2.2058,2.2853,2.3303,2.3233,2.0815,1.7797,1.645,1.6899,1.7653,1.698,1.7415,1.804,1.804,1.907,2.0026,2.0026,1.9931,2.0044,2.0813,1.967,1.9091,2.0684,1.9745,1.91,1.9902,1.9329,1.8812,1.8812,1.8812,1.8812,1.8812,1.8812,1.8812,1.8812,1.6871,1.5642,1.5642,1.5808,1.6061,1.6375,1.641,1.6489,1.668,1.6062,1.5659,1.551,1.5547,1.532,1.4833,1.6068,1.6343,3.2763,3.2923,3.3083,3.3083,3.2943,3.2734,3.2486,3.2351,3.2179,3.1805,3.1588,3.1425,3.131,3.124,3.1111,3.0836,3.0934,3.0915,0.0,0.0,3.0431,3.0431,3.0281,3.0213,0.0,3.0213,3.0091,2.9838,0.0,2.9268,2.8428,2.8529,2.8205,2.733,2.7707,2.6952,2.4941,2.4913,2.469,2.4241,2.4819,2.5052,2.4984,2.5347,2.5491,0.0,0.0,0.0,2.4436,2.4327,2.3956,2.3463,2.3758,2.3542,2.3003,2.3003,2.3003,2.3119,2.3685,2.3674,2.3632,2.4938,2.5408,2.5491,2.5411,2.4172,2.2463,2.1054,2.0888,2.1127,2.0862,2.1066,2.1341,2.1341,2.2068,2.2725,2.2725,2.2655,2.2745,2.3304,2.2489,2.208,2.3204,2.256,2.2075,2.2651,2.2258,2.1699,2.1225,2.1144,2.0942,2.0467,2.0403,2.0508,2.078,1.9738,1.8905,1.8575,1.8862,1.9048,1.9048,1.906,1.906,1.9048,1.8729,1.8575,1.8575,1.8624,1.8438,1.8081,1.8837,1.8935,3.2715,3.3099,3.3393,3.3393,3.3393,3.3378,3.3316,3.3178,3.2975,3.2702,3.2536,3.2384,3.2162,3.2162,3.2196,3.2127,3.2092,0.0,3.1896,3.1731,3.1654,3.1654,3.1598,0.0,3.1579,3.1579,3.1393,0.0,0.0,3.0089,2.9122,2.9326,2.8986,2.7962,2.9066,2.89,2.7235,2.7058,2.689,2.6718,2.7325,2.7606,2.757,2.7131,2.6986,2.7066,0.0,0.0,2.6133,2.672,2.6825,2.6739,2.7335,2.744,2.729,2.729,2.729,2.7315,2.7504,2.728,2.7016,2.7606,2.7389,2.6916,2.68,2.7176,2.734,2.6038,2.5353,2.4994,2.4899,2.4953,2.502,2.502,2.5235,2.542,2.542,2.542,2.5447,2.5605,2.5381,2.5249,2.5578,2.5381,2.5249,2.5394,2.5302,2.4846,2.3955,2.3826,2.3489,2.2572,2.2481,2.2685,2.3183,2.2692,2.2097,2.1478,2.1615,2.1779,2.1849,2.1856,2.1856,2.1849,2.1849,2.183,2.1748,2.1923,2.1935,2.1748,2.2027,2.2058,3.2779,3.3099,3.3393,3.3393,3.3393,3.3301,3.2972,3.2876,3.2747,3.2436,3.2551,3.2731,3.2682,3.2975,3.3055,3.2669,0.0,3.2437,0.0,0.0,3.2266,3.2266,0.0,3.1914,3.1914,3.1914,3.1896,0.0,0.0,3.1399,3.1234,3.1167,3.1047,3.0861,3.0623,3.0381,3.0061,2.9172,2.8697,2.8674,2.8942,2.9329,2.9799,2.9842,3.0166,3.0653,0.0,2.9691,2.9713,2.9811,2.9323,2.8514,2.8615,2.8104,2.729,2.729,2.729,2.743,2.8357,2.9188,2.9886,2.9983,2.9946,2.9848,2.9827,2.9903,2.9924,2.9691,2.7823,2.58,2.5331,2.5639,2.6064,2.6064,2.719,2.8264,2.8264,2.8178,2.8358,2.9217,2.7955,2.7315,2.9066,2.8018,2.7215,2.8146,2.7488,2.6864,2.6685,2.666,2.6623,2.6442,2.6416,2.6468,2.656,2.6107,2.5776,2.5653,2.3606,2.2565,2.301,2.3027,2.3027,2.3039,2.3039,2.2827,2.236,2.3423,2.3436,2.239,2.4042,2.4486,3.2152,3.2757,3.3393,3.3393,3.3393,3.3349,3.3178,3.3114,3.3114,3.3063,3.3096,3.3205,3.34,3.3512,3.3488,3.3294,0.0,3.2832,3.2977,3.28,3.267,0.0,0.0,3.2666,3.2666,3.2761,0.0,0.0,0.0,0.0,3.223,3.1932,3.1768,3.1768,3.1773,3.1775,3.1775,3.1583,3.1078,3.0292,3.0639,3.1008,3.1386,3.1336,3.1517,3.1845,0.0,3.1386,3.1557,3.1215,3.1014,3.0845,3.0145,2.9767,2.9626,2.9578,2.9789,3.0159,3.0546,3.1034,3.1442,3.1359,3.1242,3.1162,3.1162,3.11,3.1061,3.1208,2.9915,2.8443,2.8411,2.8745,2.9144,2.9292,3.0066,3.0782,3.0782,3.0726,3.0738,3.0881,3.0137,2.968,3.0267,2.9625,2.9204,2.9691,2.9355,2.8831,2.8247,2.8175,2.7944,2.7365,2.729,2.743,2.7771,2.7285,2.6755,2.6212,2.4982,2.4405,2.4633,2.4661,2.4661,2.4661,2.4661,2.4533,2.4262,2.4869,2.4869,2.429,2.519,2.5398,3.1742,3.2565,3.3408,3.3466,3.3466,3.3452,3.3408,3.3481,3.3577,3.3671,3.3601,3.3629,3.3947,3.3868,0.0,3.378,3.3512,3.3309,3.3309,3.322,3.316,3.316,3.3288,3.339,3.339,0.0,0.0,0.0,0.0,0.0,3.2924,3.2564,3.235,3.235,3.2709,3.288,3.288,3.3292,3.2919,3.1812,3.209,3.2395,3.2688,3.2311,3.2278,3.2494,3.2194,3.2243,3.2488,3.2021,3.2124,3.2503,3.1519,3.1442,3.1828,3.1719,3.2039,3.2488,3.2296,3.2296,3.2345,3.2178,3.2039,3.1915,3.1915,3.1843,3.1807,3.2004,3.1555,3.1055,3.1285,3.1534,3.1792,3.2004,3.2261,3.2426,3.2441,3.2441,3.2293,3.1864,3.1756,3.1573,3.1013,3.0931,3.0908,3.0865,3.0845,3.0551,2.9729,2.9626,2.9287,2.8428,2.8366,2.8544,2.8876,2.8404,2.7735,2.6869,2.6527,2.6438,2.657,2.657,2.657,2.657,2.657,2.6491,2.6359,2.6491,2.6491,2.6385,2.6517,2.6517,3.2169,3.2781,3.3437,3.3629,3.3671,3.3633,3.3437,3.3684,3.3908,3.3739,3.3847,3.3972,3.3998,3.3985,3.3985,3.3985,3.3959,3.3947,3.3947,0.0,3.3921,3.3921,3.3915,3.3928,3.3928,0.0,0.0,0.0,0.0,0.0,3.3616,3.3482,3.3382,3.3382,3.3411,3.3439,3.3439,3.3486,3.3439,3.3335,3.3054,3.3263,3.3845,3.2958,3.288,3.3368,3.2804,3.2567,3.2599,3.2551,3.2567,3.2599,3.2503,3.2487,3.2503,3.2311,3.2393,3.2551,3.2361,3.2426,3.2567,3.2551,3.2553,3.2553,3.2553,3.2519,3.2519,3.2535,3.2503,3.2438,3.2391,3.2409,3.244,3.2519,3.2521,3.2505,3.2567,3.2583,3.2567,3.2535,3.2519,3.244,3.221,3.216,3.2109,3.1914,3.1878,3.186,3.1789,3.1789,3.168,3.1403,3.1552,3.1482,3.1021,3.0657,3.029,2.9903,2.8715,2.8283,2.885,2.885,2.885,2.885,2.885,2.8591,2.8036,2.8591,2.8568,2.8036,2.8591,2.885,3.1437,3.251,3.3605,3.3671,3.3881,3.4023,3.3815,3.3881,3.4011,3.4061,3.4036,3.4036,3.4161,0.0,3.4185,3.4185,3.4086,3.3998,3.3998,3.3998,3.3998,3.3998,3.4111,3.4185,0.0,0.0,0.0,0.0,0.0,0.0,3.4074,3.3897,3.3805,3.3805,3.3923,3.3999,3.3999,3.4123,3.4184,3.4184,3.3841,3.386,3.4173,3.3732,3.3692,3.3924,3.3611,3.3588,3.3773,3.3414,3.3511,3.3806,3.3392,3.319,3.3147,3.3063,3.3354,3.3742,3.3547,3.3547,3.3642,3.3511,3.3381,3.3291,3.3291,3.3238,3.3194,3.3413,3.3511,3.3405,3.2946,3.2973,3.3183,3.3409,3.3574,3.3695,3.3721,3.3721,3.361,3.3237,3.3165,3.3015,3.2553,3.249,3.2458,3.2377,3.2378,3.2378,3.2378,3.2263,3.2161,3.2074,3.2021,3.1915,3.1719,3.1571,3.1459,3.1333,3.0125,2.9512,2.9653,2.9853,2.9922,2.9789,2.9653,2.9534,2.9425,2.9259,2.9109,2.9016,2.9065,2.9097,3.1088,3.2433,3.382,3.3868,3.4099,3.4281,3.4209,3.4185,3.4209,3.4281,3.4245,3.4233,3.4363,0.0,0.0,0.0,3.4371,3.4323,3.4279,3.4318,3.4341,3.4279,3.4401,3.4465,0.0,0.0,0.0,0.0,0.0,0.0,0.0,3.4257,3.4185,3.4185,3.4316,3.4386,3.4386,3.4586,3.4689,3.4689,3.4505,3.4416,3.4386,3.4293,3.4281,3.4316,3.4233,3.4316,3.4506,3.4141,3.4244,3.4561,3.4086,3.3888,3.3837,3.3792,3.408,3.4506,3.4293,3.4305,3.4363,3.4233,3.4105,3.3975,3.3975,3.393,3.3891,3.4117,3.4221,3.4136,3.3642,3.3663,3.3887,3.4142,3.4305,3.4439,3.4461,3.4461,3.4344,3.3919,3.3837,3.3703,3.3223,3.3136,3.3121,3.3051,3.3051,3.3051,3.3051,3.2919,3.2829,3.2829,3.2629,3.2501,3.2534,3.2434,3.2368,3.2351,3.1559,3.098,3.0634,3.0861,3.0905,3.0766,3.0627,3.0627,3.0766,3.0311,3.0157,3.0282,3.0105,2.9946,3.1303,3.2636,3.4049,3.4245,3.4305,3.4351,3.455,3.4594,3.4539,3.4351,3.4473,3.4594,3.4594,3.4771,0.0,3.4636,3.4889,3.5047,3.4917,3.5015,3.5039,3.4917,3.4889,3.4812,0.0,0.0,0.0,0.0,0.0,0.0,0.0,3.4612,3.4612,3.4594,3.4612,3.4612,3.4594,3.4811,3.4908,3.4898,3.5041,3.4935,3.4594,3.4594,3.4594,3.4594,3.4612,3.4612,3.4612,3.4612,3.4612,3.4612,3.4612,3.4612,3.4591,3.4393,3.4439,3.4561,3.4363,3.442,3.4612,3.4612,3.4612,3.4612,3.4612,3.4612,3.4612,3.4612,3.4612,3.4612,3.4612,3.4539,3.4517,3.4572,3.4539,3.4517,3.4591,3.4612,3.4612,3.4612,3.4612,3.4528,3.4328,3.4305,3.4233,3.4036,3.4011,3.4011,3.3998,3.3998,3.3998,3.3998,3.3711,3.356,3.3698,3.3408,3.3187,3.3117,3.3101,3.2766,3.2039,3.2021,3.2021,3.2021,3.2021,3.2021,3.2021,3.1986,3.2003,3.1986,3.2003,3.175,3.147,3.2894,3.434,3.4305,3.4502,3.4752,3.4793,3.4813,3.4841,3.4916,3.487,3.4841,3.4925,3.4996,0.0,3.4952,3.5039,3.5089,3.5058,3.5073,3.5089,3.5058,3.5049,0.0,0.0,0.0,0.0,0.0,0.0,0.0,0.0,3.4612,3.4658,3.4811,3.4668,3.4722,3.4943,3.4926,3.4954,3.5049,3.5081,3.5056,3.4943,3.4841,3.4821,3.4811,3.4658,3.4612,3.4612,3.4612,3.4612,3.4612,3.4612,3.4612,3.4583,3.4528,3.4539,3.4583,3.4528,3.4539,3.4612,3.4612,3.4612,3.4612,3.4612,3.4612,3.4612,3.4612,3.4612,3.4612,3.4612,3.4591,3.4591,3.4602,3.4572,3.4591,3.4602,3.4612,3.4612,3.4612,3.4612,3.4572,3.4517,3.4506,3.4495,3.4439,3.4409,3.4363,3.4233,3.4209,3.4161,3.4023,3.3902,3.3863,3.3908,3.381,3.3689,3.3526,3.353,3.3247,3.2654,3.2848,3.2928,3.2766,3.2617,3.2635,3.2766,3.2299,3.2144,3.2283,3.2092,3.1932,3.2142,3.3487,3.4713,3.4641,3.4813,3.5039,3.5108,3.5068,3.5054,3.5173,3.5108,3.503,3.5114,3.5201,0.0,3.5159,3.5249,3.5325,3.5268,3.5292,3.5299,3.5227,3.522,0.0,0.0,0.0,0.0,0.0,0.0,0.0,0.0,3.472,3.4802,3.4981,3.4812,3.4841,3.5106,3.51,3.5133,3.5216,3.5295,3.5343,3.5336,3.5025,3.4908,3.4898,3.4689,3.4612,3.4612,3.4612,3.4612,3.4612,3.4612,3.4612,3.4612,3.4612,3.4612,3.4612,3.4612,3.4612,3.4612,3.4612,3.4612,3.4612,3.4612,3.4612,3.4612,3.4612,3.4612,3.4612,3.4612,3.4658,3.4699,3.4634,3.4612,3.4612,3.4612,3.4612,3.4612,3.4612,3.4612,3.4612,3.4612,3.4612,3.4612,3.4612,3.4612,3.455,3.442,3.4427,3.4363,3.4245,3.4245,3.4209,3.4124,3.4124,3.4036,3.3829,3.3815,3.368,3.335,3.3375,3.3349,3.3226,3.3099,3.3099,3.3226,3.2797,3.2684,3.2782,3.2636,3.2453,3.31,3.4216,3.5113,3.5122,3.517,3.528,3.5461,3.5387,3.5244,3.5258,0.0,3.5242,3.5243,3.5386,3.5457,3.5273,3.5498,3.5654,3.5531,3.5629,3.5625,3.545,3.5432,0.0,0.0,0.0,0.0,0.0,0.0,0.0,0.0,3.4917,3.4981,3.5122,3.4999,3.4999,3.5154,3.5316,3.5405,3.5438,3.5614,3.5704,3.5673,3.5187,3.4936,3.4908,3.472,3.4626,3.4636,3.4615,3.4634,3.4634,3.4634,3.4626,3.4636,3.4626,3.4645,3.4636,3.4636,3.4636,3.4636,3.4647,3.4647,3.4647,3.4626,3.4636,3.4647,3.4626,3.4634,3.4626,3.4647,3.4762,3.487,3.4689,3.4647,3.4647,3.4647,3.4636,3.4634,3.4634,3.4604,3.4612,3.4612,3.4612,3.4612,3.4612,3.4612,3.4612,3.4612,3.4612,3.4612,3.4612,3.4612,3.4528,3.434,3.4328,3.4245,3.4036,3.4023,3.4023,3.3998,3.3643,3.3452,3.3452,3.3452,3.3452,3.3452,3.3452,3.3452,3.3452,3.3452,3.3223,3.3371,3.4418,3.5173,3.5174,3.532,3.5475,3.5612,3.5659,3.5674,3.5664,3.5556,3.5463,3.5571,3.5634,3.5644,3.5604,3.5659,3.5699,3.5659,3.5674,3.5674,3.5649,3.5644,0.0,0.0,0.0,0.0,0.0,0.0,0.0,3.5056,3.5047,3.5138,3.5324,3.5146,3.522,3.5565,3.5457,3.547,0.0,3.5673,3.5704,3.5679,3.5417,3.5205,3.5039,3.4889,3.487,3.4908,3.481,3.479,3.484,3.484,3.4898,3.4982,3.487,3.4898,3.4972,3.4935,3.4898,3.4916,3.4988,3.4996,3.4961,3.487,3.4917,3.4961,3.487,3.484,3.486,3.4971,3.4954,3.4917,3.4988,3.4996,3.4996,3.4996,3.4917,3.484,3.484,3.471,3.4612,3.4612,3.4612,3.4612,3.4612,3.4612,3.4612,3.4612,3.4612,3.4612,3.4612,3.4612,3.4572,3.4539,3.4528,3.445,3.4245,3.4233,3.4161,3.4011,3.3908,3.3868,3.3868,3.3868,3.3868,3.3868,3.3868,3.3868,3.3868,3.3868,3.3829,3.4033,3.4925,3.5451,3.5481,3.5574,3.565,3.5737,3.5769,3.5791,3.5801,3.5728,3.5654,3.5737,3.5751,3.5741,3.5741,3.5741,3.5741,3.5741,3.5741,3.5756,3.5747,3.5742,0.0,0.0,0.0,0.0,0.0,0.0,3.536,3.529,3.529,3.5372,3.5532,3.5339,3.5386,3.5704,3.5601,3.5606,3.5706,3.5702,3.5697,3.5681,3.5489,3.5295,3.5098,3.498,3.4972,3.498,3.4889,3.486,3.4917,3.4963,3.5,3.5,3.5,3.5,3.5009,3.5034,3.5043,3.5069,3.5119,3.5159,3.5124,3.5054,3.5087,3.5135,3.5073,3.5039,3.5056,3.5122,3.5138,3.5154,3.5235,3.517,3.5106,3.5106,3.5058,3.5008,3.5008,3.487,3.4751,3.4751,3.4658,3.4612,3.4612,3.4612,3.4612,3.4612,3.4612,3.4612,3.4612,3.4612,3.4612,3.4612,3.4612,3.455,3.445,3.445,3.4404,3.4293,3.4281,3.4197,3.3998,3.3998,3.3998,3.3998,3.3998,3.3998,3.3998,3.3998,3.3998,3.4727,3.5425,3.5723,3.5782,3.5795,3.5795,3.5795,3.5807,3.5819,3.5819,3.5819,3.5815,3.5814,3.5819,3.5818,3.5818,3.5818,3.5818,3.5818,3.5818,3.5827,3.5814,3.5814,0.0,0.0,0.0,0.0,0.0,0.0,3.5649,3.5537,3.5531,3.5585,3.5693,3.5543,3.5531,3.5701,3.5702,3.5693,3.5693,3.5699,3.5694,3.5693,3.5532,3.5359,3.5201,3.5114,3.51,3.51,3.5016,3.4981,3.5008,3.5119,3.5111,3.5043,3.5122,3.5105,3.5043,3.5147,3.5187,3.5208,3.5271,3.5287,3.528,3.5259,3.5266,3.528,3.5259,3.5244,3.5264,3.5288,3.5346,3.5419,3.5451,3.5318,3.5189,3.5201,3.517,3.5154,3.5154,3.5032,3.4936,3.4936,3.4802,3.467,3.4658,3.4647,3.4636,3.4594,3.4612,3.4612,3.4612,3.4612,3.4612,3.4612,3.4612,3.4612,3.4612,3.4612,3.4612,3.4612,3.4612,3.445,3.4111,3.4099,3.4099,3.4099,3.4099,3.4099,3.4099,3.4099,3.4099,3.5023,3.556,3.5782,3.5795,3.5795,3.5795,3.5795,3.5833,3.5897,0.0,3.5897,3.5897,3.5894,3.5895,3.588,3.588,3.588,3.588,3.588,3.588,3.5886,3.588,3.5894,0.0,0.0,0.0,0.0,0.0,3.5713,3.5679,3.5669,3.5664,3.5669,3.5699,3.5669,3.5664,3.5699,3.5699,3.5704,3.5704,3.5704,3.5704,3.5699,3.5664,3.5653,3.561,3.5483,3.5476,3.5519,3.5372,3.5378,3.5412,3.5445,3.5514,3.5575,3.5429,3.5457,3.5581,3.5483,3.5483,3.5543,3.5609,3.5625,3.5609,3.5507,3.5548,3.5609,3.5482,3.5451,3.5495,3.5593,3.556,3.5519,3.5634,3.5644,3.5618,3.5631,3.547,3.5371,3.5371,3.5193,3.5073,3.5073,3.5056,3.4987,3.4879,3.487,3.4801,3.4615,3.4612,3.4612,3.4612,3.4612,3.4612,3.4612,3.4612,3.4612,3.4612,3.4612,3.4612,3.4612,3.4612,3.4561,3.4517,3.4517,3.4517,3.4517,3.4517,3.4517,3.4517,3.4517,3.4517,3.5115,3.562,3.5795,3.5795,3.5795,3.5807,3.5856,3.5888,3.5899,3.5906,3.5908,3.5896,3.5896,3.5905,3.5895,3.5895,3.5895,3.5895,3.5895,3.5895,3.5908,3.5892,3.589,0.0,0.0,0.0,0.0,0.0,3.5773,3.5765,3.5765,3.5765,3.576,3.5766,3.5766,3.5742,3.5708,3.5736,3.5772,3.5802,3.5771,3.576,3.5766,3.576,3.5747,3.5689,3.5602,3.5566,3.5582,3.5495,3.547,3.5501,3.5501,3.5508,3.5522,3.5422,3.5415,3.5437,3.5477,3.5526,3.5579,3.5713,3.5765,3.576,3.5694,3.5713,3.5736,3.5674,3.5664,3.5689,3.5737,3.5713,3.5669,3.5699,3.5708,3.5699,3.5698,3.5621,3.5532,3.5418,3.5324,3.5224,3.5122,3.5106,3.5047,3.4917,3.4908,3.4831,3.4634,3.4612,3.4612,3.4612,3.4612,3.4612,3.4612,3.4612,3.4612,3.4612,3.4612,3.4612,3.4612,3.4612,3.4612,3.4612,3.4612,3.4612,3.4612,3.4612,3.4612,3.4612,3.4612,3.4612,3.5187,3.5625,3.5806,3.5795,3.5811,3.5845,3.5897,0.0,3.5898,0.0,3.5917,3.5937,3.5934,3.5932,3.5932,3.5932,3.5932,3.5932,3.5932,3.5932,3.5911,3.5906,3.5905,3.5895,0.0,0.0,0.0,0.0,3.5807,3.5795,3.5795,3.5795,3.5806,3.5793,3.5808,3.5784,3.5727,3.5772,3.5833,3.5866,3.5827,3.5806,3.5793,3.5806,3.5778,3.5722,3.5664,3.5649,3.5644,3.5607,3.5585,3.5585,3.5585,3.5544,3.5509,3.5483,3.5423,3.5376,3.5489,3.5568,3.5607,3.5741,3.5795,3.5795,3.5795,3.5795,3.5795,3.5795,3.5795,3.5791,3.5793,3.5808,3.5784,3.5747,3.5727,3.5722,3.5708,3.5694,3.5667,3.552,3.5476,3.5419,3.5283,3.5249,3.5201,3.5034,3.4999,3.4908,3.4687,3.4655,3.4655,3.4655,3.4623,3.4615,3.4668,3.4626,3.4604,3.4645,3.4623,3.4612,3.4612,3.4612,3.4612,3.4612,3.4612,3.4612,3.4612,3.4612,3.4612,3.4612,3.4612,3.4612,3.5352,3.561,3.5808,3.581,3.5856,3.5906,3.5908,0.0,3.5898,3.5898,3.5951,3.5995,3.5996,3.5996,3.5996,3.5996,3.5996,3.5996,3.5996,3.5996,3.5966,3.5918,3.5898,3.5896,0.0,0.0,0.0,0.0,3.5841,3.5795,3.5795,3.5795,3.5795,3.5795,3.5795,3.5795,3.5791,3.5799,3.5799,3.5803,3.5799,3.5795,3.5795,3.5795,3.5795,3.5791,3.5791,3.5786,3.5786,3.5786,3.5786,3.5786,3.5786,3.5782,3.5773,3.5703,3.5718,3.5765,3.5703,3.5728,3.5786,3.5795,3.5795,3.5795,3.5795,3.5795,3.5795,3.5795,3.5795,3.5795,3.5795,3.5795,3.5795,3.5791,3.5791,3.5782,3.5718,3.5704,3.5704,3.5694,3.5674,3.5674,3.5669,3.5664,3.5582,3.5318,3.5283,3.5154,3.483,3.4788,3.4788,3.4788,3.4676,3.4678,3.4879,3.471,3.4655,3.4778,3.4666,3.4612,3.4612,3.4612,3.4612,3.4612,3.4612,3.4612,3.4612,3.4612,3.4612,3.4612,3.4612,3.4612,3.522,3.5432,3.5644,3.5775,3.5849,3.5899,3.591,3.5908,3.5918,3.597,3.5979,3.5992,3.5992,3.5992,3.5992,3.5992,3.5992,3.5992,3.5992,3.5992,3.5996,3.5966,3.5967,3.5953,0.0,0.0,0.0,0.0,0.0,3.5852,3.5799,3.5795,3.5795,3.5795,3.5795,3.5823,3.5853,3.5823,3.5823,3.5853,3.5823,3.5795,3.5795,3.5795,3.5795,3.5795,3.5795,3.5795,3.5795,3.5795,3.5795,3.5791,3.5747,3.5747,3.5718,3.5621,3.5585,3.5618,3.5678,3.5728,3.5737,3.5782,3.5795,3.5795,3.5795,3.5795,3.5795,3.5795,3.5795,3.5795,3.5795,3.5795,3.5795,3.5795,3.5795,3.5791,3.5773,3.5727,3.5708,3.5708,3.5708,3.5708,3.5708,3.5708,3.5644,3.5451,3.5425,3.5332,3.5098,3.5064,3.5064,3.5064,3.499,3.4954,3.5018,3.4879,3.4811,3.485,3.4821,3.4801,3.4801,3.4749,3.4737,3.4737,3.4645,3.4612,3.4612,3.4612,3.4612,3.4612,3.4612,3.4612,3.5125,3.5359,3.5541,3.5757,3.5843,3.5903,3.591,3.5916,3.5952,3.5996,3.5992,3.5992,3.5992,3.5992,3.5992,3.5992,3.5992,3.5992,3.5992,3.5992,3.5992,3.5992,3.5992,3.598,0.0,0.0,0.0,0.0,0.0,0.0,3.5841,3.5811,3.5795,3.5795,3.5795,3.5823,3.5876,3.5823,3.5823,3.5876,3.5823,3.5795,3.5795,3.5795,3.5795,3.5795,3.5795,3.5795,3.5795,3.5795,3.5795,3.5791,3.5747,3.5728,3.5718,3.5629,3.5607,3.5618,3.5708,3.5728,3.5732,3.5782,3.5795,3.5795,3.5795,3.5795,3.5795,3.5795,3.5795,3.5795,3.5795,3.5795,3.5795,3.5795,3.5795,3.5795,3.5795,3.5773,3.5732,3.5732,3.5732,3.5732,3.5732,3.5732,3.5699,3.5579,3.5562,3.5495,3.5285,3.5264,3.5249,3.5205,3.5133,3.5105,3.5122,3.4982,3.4926,3.5009,3.4982,3.4991,3.4997,3.4963,3.4926,3.4926,3.4841,3.4803,3.4803,3.466,3.4612,3.4612,3.4612,3.4612,0.0,0.0,0.0,3.5747,3.5833,3.5893,3.5895,0.0,3.5994,3.5992,3.5992,3.5992,3.5992,3.5992,3.5992,3.5992,3.5992,3.5992,3.5992,3.5992,3.5992,3.5992,3.5992,3.5992,3.5992,0.0,0.0,0.0,3.5905,3.5892,3.5908,3.5841,3.5795,3.5795,3.5795,3.5795,3.5795,3.5795,3.5795,3.5795,3.5795,3.5795,3.5795,3.5795,3.5795,3.5795,3.5795,3.5795,3.5795,3.5795,3.5795,3.5795,3.5795,3.5795,3.5795,3.5795,3.5795,3.5795,3.5795,3.5795,3.5795,3.5795,3.5795,3.5795,3.5795,3.5795,3.5795,3.5795,3.5795,3.5795,3.5795,3.5795,3.5795,3.5795,3.5795,3.5795,3.5795,3.5795,3.5795,3.5795,3.5795,3.5795,3.5795,3.5795,3.5773,3.5703,3.5693,3.5626,3.5432,3.5412,3.5364,3.522,3.5152,3.5138,3.5198,3.5018,3.499,3.5208,3.5144,3.5141,3.5208,3.5215,3.5215,3.5215,3.5208,3.5208,3.5208,3.4813,3.4604,3.4604,3.4604,3.4612,3.487,0.0,0.0,0.0,0.0,0.0,0.0,0.0,3.5933,3.5996,3.5992,3.5992,3.5992,3.5992,3.5992,3.5992,3.5992,3.5992,3.5992,3.5992,3.5992,3.5992,3.5992,3.5992,3.5992,0.0,0.0,0.0,3.5903,3.5908,3.5892,3.5841,3.5795,3.5795,3.5795,3.5795,3.5795,3.5795,3.5795,3.5795,3.5795,3.5795,3.5795,3.5795,3.5795,3.5795,3.5795,3.5795,3.5795,3.5795,3.5795,3.5795,3.5795,3.5795,3.5795,3.5795,3.5795,3.5795,3.5795,3.5795,3.5795,3.5795,3.5795,3.5795,3.5795,3.5795,3.5795,3.5795,3.5795,3.5795,3.5795,3.5795,3.5795,3.5795,3.5795,3.5795,3.5795,3.5795,3.5795,3.5795,3.5795,3.5795,3.5795,3.5795,3.5791,3.5769,3.5769,3.5756,3.5704,3.5699,3.5689,3.5644,3.5574,3.5546,3.5558,3.5418,3.5352,3.5406,3.5405,3.5392,3.5425,3.5379,3.5352,3.5352,3.5256,3.5208,3.5208,3.5049,3.4963,3.4963,3.486,3.4821,3.4772,3.499,3.513,3.5386,0.0,0.0,3.5834,3.5878,3.5916,0.0,3.5953,3.5969,3.5969,3.598,3.5992,3.5992,3.5992,3.5992,3.5992,3.5992,3.5992,3.5992,3.5992,3.5992,3.5992,3.5992,3.5979,3.5933,3.5917,3.5896,3.5894,3.5841,3.5795,3.5795,3.5795,3.5795,3.5795,3.5795,3.5795,3.5795,3.5795,3.5795,3.5795,3.5795,3.5795,3.5795,3.5795,3.5795,3.5795,3.5795,3.5795,3.5795,3.5795,3.5795,3.5795,3.5795,3.5795,3.5795,3.5795,3.5795,3.5795,3.5795,3.5795,3.5795,3.5795,3.5795,3.5795,3.5795,3.5795,3.5795,3.5795,3.5795,3.5795,3.5795,3.5795,3.5795,3.5795,3.5795,3.5795,3.5795,3.5795,3.5795,3.5795,3.5795,3.5795,3.5795,3.5795,3.5795,3.5795,3.5795,3.5786,3.5756,3.5713,3.5672,3.5621,3.555,3.5513,3.5574,3.5574,3.559,3.5629,3.5596,3.5579,3.5579,3.5486,3.5406,3.532,3.5165,3.507,3.5009,3.4945,3.4908,3.4672,3.486,3.4942,3.5252,3.5477,0.0,3.5742,3.5834,3.589,0.0,3.5894,3.5898,3.5898,3.595,3.5992,3.5992,3.5992,3.5992,3.5992,3.5992,3.5992,3.5992,3.5992,3.5992,3.5992,3.5992,3.5992,3.5992,3.5935,3.5908,3.5894,3.5841,3.5795,3.5795,3.5795,3.5795,3.5795,3.5795,3.5795,3.5795,3.5795,3.5795,3.5795,3.5795,3.5795,3.5795,3.5795,3.5795,3.5795,3.5795,3.5795,3.5795,3.5795,3.5795,3.5795,3.5795,3.5795,3.5795,3.5795,3.5795,3.5795,3.5795,3.5795,3.5795,3.5795,3.5795,3.5795,3.5795,3.5795,3.5795,3.5795,3.5795,3.5795,3.5795,3.5795,3.5795,3.5795,3.5795,3.5795,3.5795,3.5795,3.5795,3.5795,3.5795,3.5795,3.5795,3.5795,3.5795,3.5795,3.5795,3.5773,3.5728,3.5703,3.5653,3.5537,3.5531,3.5585,3.5698,3.5703,3.5732,3.5791,3.5795,3.5795,3.5795,3.5786,3.5699,3.5495,3.5262,3.5079,3.4926,3.4926,3.4926,0.0,0.0,0.0,0.0,0.0,0.0,3.5614,3.5775,3.5897,0.0,3.5894,3.5898,3.5898,3.595,3.5992,3.5992,3.5992,3.5992,3.5992,3.5992,3.5992,3.5992,3.5992,3.5992,3.5992,3.5992,3.5992,3.5992,3.5937,3.5907,3.5894,3.5841,3.5795,3.5795,3.5795,3.5795,3.5795,3.5795,3.5795,3.5795,3.5795,3.5795,3.5795,3.5795,3.5795,3.5795,3.5795,3.5795,3.5795,3.5795,3.5795,3.5795,3.5795,3.5795,3.5795,3.5795,3.5795,3.5795,3.5795,3.5795,3.5795,3.5795,3.5795,3.5795,3.5795,3.5795,3.5795,3.5795,3.5795,3.5795,3.5795,3.5795,3.5795,3.5795,3.5795,3.5795,3.5795,3.5795,3.5795,3.5795,3.5795,3.5795,3.5795,3.5795,3.5795,3.5795,3.5795,3.5795,3.5795,3.5795,3.5791,3.5778,3.5778,3.5769,3.5736,3.5736,3.5741,3.5773,3.5778,3.5782,3.5795,3.5795,3.5795,3.5795,3.5742,3.5643,3.5501,3.5451,3.5321,3.5132,3.5132,3.5132,0.0,0.0,0.0,3.4813,0.0,0.0,0.0,3.5636,3.5733,3.5833,3.589,3.59,3.5891,3.5937,3.5968,3.5995,3.5992,3.5992,3.5992,3.5992,3.5992,3.5992,3.5992,3.5992,3.5992,3.5992,3.5992,3.5992,3.5937,3.5903,3.591,3.5875,3.5841,3.5795,3.5795,3.5795,3.5795,3.5795,3.5795,3.5795,3.5795,3.5795,3.5795,3.5795,3.5795,3.5795,3.5795,3.5795,3.5795,3.5795,3.5795,3.5795,3.5795,3.5795,3.5795,3.5795,3.5795,3.5795,3.5795,3.5795,3.5795,3.5795,3.5795,3.5795,3.5795,3.5795,3.5795,3.5795,3.5795,3.5795,3.5795,3.5795,3.5795,3.5795,3.5795,3.5795,3.5795,3.5795,3.5795,3.5795,3.5795,3.5795,3.5795,3.5795,3.5795,3.5795,3.5795,3.5795,3.5795,3.5795,3.5795,3.5795,3.5795,3.5795,3.5795,3.5795,3.5795,3.5795,3.5795,3.5795,3.5795,3.5795,3.5795,3.5795,3.5728,3.5667,3.5604,3.5509,3.5367,3.5209,3.5209,3.5209,0.0,0.0,0.0,0.0,0.0,3.4996,0.0,0.0,0.0,3.5736,3.5836,3.5902,3.59,0.0,0.0,0.0,0.0,0.0,0.0,3.6009,0.0,3.6009,3.5991,3.5992,3.601,3.6009,3.5991,3.5992,3.5934,3.5897,3.5896,3.5897,3.5879,3.5799,3.5795,3.5795,3.5795,3.5795,3.5795,3.5795,3.5795,3.5795,3.5795,3.5795,3.5795,3.5795,3.5795,3.5795,3.5795,3.5795,3.5795,3.5795,3.5795,3.5795,3.5795,3.5795,3.5795,3.5795,3.5795,3.5795,3.5795,3.5795,3.5795,3.5795,3.5795,3.5795,3.5795,3.5795,3.5795,3.5795,3.5795,3.5795,3.5795,3.5795,3.5795,3.5795,3.5795,3.5795,3.5795,3.5795,3.5795,3.5795,3.5795,3.5795,3.5795,3.5795,3.5795,3.5795,3.5795,3.5795,3.5795,3.5795,3.5795,3.5795,3.5795,3.5795,3.5795,3.5795,3.5795,3.5795,3.5795,3.5782,3.5778,3.5778,3.5703,3.5657,3.564,3.5496,3.5364,3.5242,3.5218,3.5209,0.0,0.0,0.0,0.0,3.4643,0.0,3.5111,0.0,3.5546,3.5688,0.0,3.5892,3.5897,0.0,0.0,0.0,0.0,0.0,3.5988,3.6001,3.6001,3.6001,3.6007,3.6009,3.6002,3.6001,3.6004,3.5992,3.5931,3.5898,3.5896,3.5897,3.5879,3.5799,3.5795,3.5795,3.5795,3.5795,3.5795,3.5795,3.5795,3.5795,3.5795,3.5795,3.5795,3.5795,3.5795,3.5795,3.5795,3.5795,3.5795,3.5795,3.5795,3.5795,3.5795,3.5795,3.5795,3.5795,3.5795,3.5795,3.5795,3.5795,3.5795,3.5795,3.5795,3.5795,3.5795,3.5795,3.5795,3.5795,3.5795,3.5795,3.5795,3.5795,3.5795,3.5795,3.5795,3.5795,3.5795,3.5795,3.5795,3.5795,3.5795,3.5795,3.5795,3.5795,3.5795,3.5795,3.5795,3.5795,3.5795,3.5795,3.5795,3.5795,3.5795,3.5795,3.5795,3.5795,3.5795,3.5795,3.5795,3.5737,3.5703,3.5703,3.5579,3.5489,3.5429,3.5464,3.5444,3.5364,3.5258,3.5209,0.0,0.0,0.0,0.0,0.0,0.0,3.4944,0.0,3.5324,0.0,0.0,0.0,0.0,0.0,0.0,0.0,3.5897,0.0,0.0,0.0,3.5997,0.0,0.0,0.0,3.5999,0.0,0.0,0.0,3.5978,3.5933,3.5895,3.5893,3.589,3.5869,3.5823,3.5795,3.5795,3.5795,3.5795,3.5795,3.5795,3.5795,3.5795,3.5795,3.5795,3.5795,3.5795,3.5795,3.5795,3.5795,3.5795,3.5795,3.5795,3.5795,3.5795,3.5795,3.5795,3.5795,3.5795,3.5795,3.5795,3.5795,3.5795,3.5795,3.5795,3.5795,3.5795,3.5795,3.5795,3.5795,3.5795,3.5795,3.5795,3.5795,3.5795,3.5795,3.5795,3.5795,3.5795,3.5795,3.5795,3.5795,3.5795,3.5795,3.5795,3.5795,3.5795,3.5795,3.5795,3.5795,3.5795,3.5795,3.5795,3.5795,3.5795,3.5795,3.5795,3.5795,3.5795,3.5795,3.5795,3.5769,3.5732,3.5707,3.5637,3.5599,3.5571,3.5502,3.5483,3.5571,3.54,3.5273,3.3577,0.0,0.0,0.0,0.0,0.0,0.0,0.0,0.0,0.0,0.0,0.0,0.0,0.0,0.0,0.0,0.0,3.5895,0.0,3.5946,0.0,0.0,0.0,0.0,0.0,0.0,0.0,0.0,0.0,3.5979,3.5897,3.5906,3.5894,3.5866,3.5827,3.5795,3.5795,3.5795,3.5795,3.5795,3.5795,3.5795,3.5795,3.5795,3.5795,3.5795,3.5795,3.5795,3.5795,3.5795,3.5795,3.5795,3.5795,3.5795,3.5795,3.5795,3.5795,3.5795,3.5795,3.5795,3.5795,3.5795,3.5795,3.5795,3.5795,3.5795,3.5795,3.5795,3.5795,3.5795,3.5795,3.5795,3.5795,3.5795,3.5795,3.5795,3.5795,3.5795,3.5795,3.5795,3.5795,3.5795,3.5795,3.5795,3.5795,3.5795,3.5795,3.5795,3.5795,3.5795,3.5795,3.5795,3.5795,3.5795,3.5795,3.5795,3.5795,3.5795,3.5795,3.5795,3.5795,3.5778,3.5742,3.5707,3.5707,3.5678,3.5637,3.5546,3.5571,3.5632,3.5449,3.5312,0.0,0.0,0.0,3.3712,0.0,0.0,0.0,0.0,3.4961,0.0,0.0,0.0,0.0,0.0,0.0,3.5875,0.0,0.0,0.0,0.0,0.0,0.0,0.0,0.0,0.0,3.5936,0.0,0.0,3.5992,0.0,3.59,3.5895,3.588,3.5803,3.5795,3.5795,3.5795,3.5795,3.5795,3.5795,3.5795,3.5795,3.5795,3.5795,3.5795,3.5795,3.5795,3.5795,3.5795,3.5795,3.5795,3.5795,3.5795,3.5795,3.5795,3.5795,3.5795,3.5795,3.5795,3.5795,3.5795,3.5795,3.5795,3.5795,3.5795,3.5795,3.5795,3.5795,3.5795,3.5795,3.5795,3.5795,3.5795,3.5795,3.5795,3.5795,3.5795,3.5795,3.5795,3.5795,3.5795,3.5795,3.5795,3.5795,3.5795,3.5795,3.5795,3.5795,3.5795,3.5795,3.5795,3.5795,3.5795,3.5795,3.5795,3.5795,3.5795,3.5795,3.5795,3.5795,3.5795,3.5732,3.5693,3.5707,3.5707,3.5651,3.5501,3.5704,3.5699,3.5501,3.5296,3.5273,0.0,0.0,3.4074,3.3934,0.0,0.0,0.0,0.0,0.0,0.0,0.0,0.0,0.0,0.0,3.5708,3.5769,3.584,0.0,0.0,0.0,0.0,0.0,0.0,0.0,0.0,0.0,0.0,0.0,3.5964,0.0,3.5973,3.5914,3.5892,3.5875,3.5813,3.5795,3.5795,3.5795,3.5795,3.5795,3.5795,3.5795,3.5795,3.5795,3.5795,3.5795,3.5795,3.5795,3.5795,3.5795,3.5795,3.5795,3.5795,3.5795,3.5795,3.5795,3.5795,3.5795,3.5795,3.5795,3.5795,3.5795,3.5795,3.5795,3.5795,3.5795,3.5795,3.5795,3.5795,3.5931,3.6518,3.6653,3.6809,3.7372,3.7528,3.7528,3.7528,3.7528,3.7528,3.7528,3.7528,3.7528,3.7528,3.7528,3.7139,3.5969,3.5795,3.5795,3.5795,3.5795,3.5795,3.5795,3.5795,3.6028,3.6615,3.7197,3.7528,3.7528,3.7528,3.7219,3.6566,3.6503,3.6182,3.5502,3.5629,3.5626,3.5501,3.5658,3.5728,3.5684,3.5489,3.5409,3.3998,3.4099,0.0,3.4036,3.4148,0.0,3.4209,0.0,0.0,0.0,0.0,0.0,0.0,0.0,0.0,3.5697,3.5763,3.5833,0.0,3.5877,0.0,0.0,0.0,0.0,0.0,0.0,0.0,3.5968,3.5919,3.5927,0.0,0.0,3.588,3.5862,3.5827,3.5795,3.5795,3.5795,3.5795,3.5795,3.5795,3.5795,3.5795,3.5795,3.5795,3.5795,3.5795,3.5795,3.5795,3.5795,3.5795,3.5795,3.5795,3.5795,3.5795,3.5795,3.5795,3.5795,3.5795,3.5795,3.5795,3.5795,3.5795,3.5795,3.5795,3.6028,3.6261,3.6261,3.6498,3.6848,3.7411,3.7566,3.7702,3.827,3.8406,3.8406,3.8406,3.8406,3.8406,3.8406,3.8406,3.8406,3.8406,3.8406,3.8018,3.6887,3.6712,3.6712,3.6712,3.6712,3.6712,3.6712,3.6712,3.6945,3.7508,3.8076,3.8373,3.8326,3.8321,3.8015,3.7323,3.7284,3.6992,3.6346,3.6495,3.6392,3.6006,3.6139,3.6066,3.5795,3.5659,3.5562]}]]